     2              OBSERVATION DATA    GPS                 RINEX VERSION / TYPE
teqc 2000Jul20 Karen Wendt 20030417 19:57:33UTC             PGM / RUN BY / DATE
                                                            COMMENT
L2: 1 -> 1; 150 -> 5; 250 -> 9                              COMMENT
L2: 1 -> 1; 150 -> 5; 250 -> 9                              COMMENT
L2: 1 -> 1; 150 -> 5; 250 -> 9                              COMMENT
L2: 1 -> 1; 150 -> 5; 250 -> 9                              COMMENT
L2: 1 -> 1; 150 -> 5; 250 -> 9                              COMMENT
L2: 1 -> 1; 150 -> 5; 250 -> 9                              COMMENT
L2: 1 -> 1; 150 -> 5; 250 -> 9                              COMMENT
L2: 1 -> 1; 150 -> 5; 250 -> 9                              COMMENT
L2: 1 -> 1; 150 -> 5; 250 -> 9                              COMMENT
L2: 1 -> 1; 150 -> 5; 250 -> 9                              COMMENT
L2: 1 -> 1; 150 -> 5; 250 -> 9                              COMMENT
L2: 1 -> 1; 150 -> 5; 250 -> 9                              COMMENT
L2: 1 -> 1; 150 -> 5; 250 -> 9                              COMMENT
L2: 1 -> 1; 150 -> 5; 250 -> 9                              COMMENT
Original Marker Name: pyra Pyrmid_1932_USC&GS               COMMENT
Campaign Name: USGS 2003                                    COMMENT
4-Character Station Name: PYRA                              COMMENT
6-Character Antenna Code: DMRCHT                            COMMENT
Vertical Measurement Point: BCR                             COMMENT
Vertical Offset to Rinex Ref. Point: 0.0348                 COMMENT
Radial Measurement Point: ECF                               COMMENT
Radial Offset to Rinex Ref. Point: 0.1897                   COMMENT
Antenna Height from Field Measurement: 1.3570 m             COMMENT
Additional Antenna Identification Info.:                    COMMENT
Turborogue and Ashtech Choke Ring                           COMMENT
Original XYZ: -2593954.9936 -4478731.3536 3715349.0032      COMMENT
New XYZ position is based on association with SCEC monument COMMENT
E1F1F8Y4+0011. Position of that monument is believed to be  COMMENT
valid to within 1 m horizontally; vertical accuracy         COMMENT
should be no worse than 3-times this value.                 COMMENT
                                                            COMMENT
Revised Rinex header created by UCSD GPS archive for        COMMENT
GSAC on 17-Jul-2003 (2003:198) 21:02:14 GMT                 COMMENT
For assistance contact dagnew@ucsd.edu                      COMMENT
or anderson@python.ucsd.edu                                 COMMENT
                                                            COMMENT
PYRAMID 1932                                                MARKER NAME
JMS US GEOLOGICAL SURVEY                                    OBSERVER / AGENCY
LP00108.707 ASHTECH Z-XII3 CD00                             REC # / TYPE / VERS
CR519993706 DORNE-MARGOL. TYPE T                            ANT # / TYPE
 -2593974.3962 -4478709.4634  3715343.6679                  APPROX POSITION XYZ
        1.3089        0.0000        0.0000                  ANTENNA: DELTA H/E/N
     1     1     0                                          WAVELENGTH FACT L1/2
     5    C1    L1    L2    P1    P2                        # / TYPES OF OBSERV
    30                                                      INTERVAL
  2003     4    13     0     1    0.000000                  TIME OF FIRST OBS
  2003     4    13    23    44    0.000000                  TIME OF LAST OBS
                                                            END OF HEADER
 03  4 13  0  1  0.0000000  0  9G21G14G 9G 3G17G31G23G15G18
  22098097.899   -19204511.70849 -14564054.21846  22098097.246    22098103.042
  21041957.030   -22404360.98549 -17438719.15047  21041956.497    21041962.112
  23476759.244    -7268082.88349  -5655919.56745  23476758.818    23476766.845
  21728871.380   -19723379.44449 -15142314.55747  21728871.016    21728877.770
  22370867.103   -16797920.17849 -12888884.55246  22370866.421    22370874.506
  22806683.536    -9653226.99949  -7507902.81246  22806682.952    22806690.109
  21723518.987   -17820176.97649 -13870587.53347  21723518.351    21723524.807
  20353425.474   -27859083.58249 -21524774.11848  20353424.707    20353431.157
  21225477.669   -22509771.26449 -17517780.55547  21225477.148    21225482.274
 03  4 13  0  1 30.0000000  0  9G21G14G 9G 3G17G31G23G15G18
  22111540.336   -19133871.33249 -14509009.83346  22111539.689    22111545.481
  21029265.002   -22471057.81149 -17490690.66647  21029264.463    21029270.077
  23473596.498    -7284702.11249  -5668869.61845  23473596.287    23473604.268
  21729071.401   -19722328.42749 -15141495.59347  21729071.047    21729077.797
  22384362.210   -16727003.04549 -12833624.50746  22384361.549    22384369.685
  22797430.288    -9701853.01649  -7545793.18246  22797429.688    22797436.889
  21732166.573   -17774733.73449 -13835177.22947  21732165.944    21732172.380
  20357905.987   -27835538.26549 -21506427.13348  20357905.216    20357911.675
  21234383.757   -22462969.52149 -17481311.67747  21234383.232    21234388.363
 03  4 13  0  2  0.0000000  0  9G21G14G 9G 3G17G31G23G15G18
  22125041.920   -19062920.51749 -14453723.53646  22125041.262    22125047.055
  21016661.858   -22537287.76049 -17542298.37947  21016661.318    21016666.903
  23470538.710    -7300771.91649  -5681391.51745  23470538.245    23470546.355
  21729379.002   -19720711.87349 -15140235.95247  21729378.654    21729385.406
  22397915.998   -16655777.91349 -12778124.47046  22397915.346    22397923.457
  22788276.923    -9749954.05849  -7583274.48846  22788276.335    22788283.503
  21740832.724   -17729192.73049 -13799690.74547  21740832.075    21740838.562
  20362463.864   -27811586.49249 -21487763.42648  20362463.110    20362469.568
  21243322.283   -22415997.39649 -17444710.03447  21243321.754    21243326.907
 03  4 13  0  2 30.0000000  0  9G21G14G 9G 3G17G31G23G15G18
  22138602.257   -18991660.55449 -14398196.36446  22138601.615    22138607.432
  21004147.690   -22603049.95649 -17593541.61347  21004147.152    21004152.741
  23467585.497    -7316291.58549  -5693484.74745  23467584.889    23467592.950
  21729794.008   -19718531.07949 -15138536.64747  21729793.657    21729800.418
  22411528.102   -16584246.10049 -12722385.47446  22411527.472    22411535.585
  22779223.643    -9797529.43549  -7620346.17046  22779223.042    22779230.190
  21749517.203   -17683555.58949 -13764129.34547  21749516.533    21749523.040
  20367099.032   -27787228.64049 -21468783.29548  20367098.271    20367104.745
  21252292.893   -22368856.43949 -17407976.83447  21252292.374    21252297.518
 03  4 13  0  3  0.0000000  0  9G21G14G 9G 3G17G31G23G15G18
  22152221.372   -18920091.84649 -14342428.59046  22152220.727    22152226.577
  20991722.859   -22668342.74049 -17644419.06747  20991722.323    20991727.898
  23464737.348    -7331259.44849  -5705148.00045  23464736.681    23464744.574
  21730316.370   -19715786.07749 -15136397.69547  21730316.015    21730322.771
  22425198.491   -16512407.92149 -12666407.76546  22425197.808    22425205.971
  22770270.651    -9844577.61449  -7657007.06546  22770270.060    22770277.183
  21758219.852   -17637822.98549 -13728493.56847  21758219.188    21758225.684
  20371811.554   -27762464.06949 -21449486.23948  20371810.799    20371817.273
  21261295.523   -22321547.40349 -17371112.66347  21261295.012    21261300.136
 03  4 13  0  3 30.0000000  0  9G21G14G 9G 3G17G31G23G15G18
  22165899.324   -18848213.98949 -14286419.92646  22165898.668    22165904.521
  20979387.824   -22733163.75849 -17694928.91547  20979387.292    20979392.847
  23461994.287    -7345673.44549  -5716379.65245  23461993.799    23462001.656
  21730946.165   -19712476.65849 -15133818.94447  21730945.809    21730952.556
  22438927.278   -16440262.96949 -12610190.99646  22438926.554    22438934.791
  22761418.407    -9891096.36649  -7693255.40846  22761417.828    22761424.930
  21766940.649   -17591994.99349 -13692783.46447  21766940.001    21766946.488
  20376601.739   -27737291.55049 -21429871.30048  20376600.993    20376607.470
  21270330.022   -22274070.86149 -17334117.97447  21270329.497    21270334.650
 03  4 13  0  4  0.0000000  0  9G21G14G 9G 3G17G31G23G15G18
  22179635.839   -18776028.23049 -14230171.36146  22179635.218    22179641.100
  20967142.694   -22797512.11049 -17745070.44947  20967142.140    20967147.708
  23459356.969    -7359532.68149  -5727179.07145  23459356.425    23459364.377
  21731683.172   -19708603.63849 -15130801.02147  21731682.809    21731689.574
  22452714.295   -16367812.00749 -12553735.77446  22452713.620    22452721.819
  22752667.111    -9937084.72449  -7729090.46246  22752666.537    22752673.606
  21775679.305   -17546073.04249 -13657000.14547  21775678.651    21775685.167
  20381469.565   -27711711.01249 -21409938.42848  20381468.793    20381475.293
  21279396.194   -22226427.95849 -17296993.65347  21279395.661    21279400.806
 03  4 13  0  4 30.0000000  0  9G21G14G 9G 3G17G31G23G15G18
  22193431.055   -18703534.14749 -14173682.51346  22193430.418    22193436.359
  20954987.953   -22861385.62749 -17794841.98547  20954987.404    20954992.940
  23456825.164    -7372835.27849  -5737544.69445  23456824.898    23456833.138
  21732527.458   -19704166.93349 -15127343.86247  21732527.095    21732533.858
  22466559.570   -16295054.82349 -12497041.94746  22466558.885    22466567.126
  22744017.086    -9982540.82349  -7764510.76446  22744016.505    22744023.567
  21784435.790   -17500057.35849 -13621143.78447  21784435.149    21784441.646
  20386415.233   -27685721.36649 -21389686.76548  20386414.459    20386420.958
  21288493.936   -22178619.05749 -17259739.97947  21288493.413    21288498.567
 03  4 13  0  5  0.0000000  0  9G21G14G 9G 3G17G31G23G15G18
  22207284.601   -18630733.46649 -14116954.77846  22207284.007    22207289.926
  20942923.685   -22924783.71349 -17844243.05547  20942923.136    20942928.667
  23454399.930    -7385580.66749  -5747476.16345  23454399.558    23454407.686
  21733478.732   -19699168.09149 -15123448.67647  21733478.386    21733485.117
  22480462.867   -16221992.88249 -12440110.65746  22480462.190    22480470.431
  22735468.415   -10027464.08749  -7799515.87346  22735467.823    22735474.897
  21793209.819   -17453949.55949 -13585215.64747  21793209.195    21793215.712
  20391438.670   -27659323.14749 -21369116.73748  20391437.901    20391444.402
  21297622.819   -22130646.28949 -17222358.62147  21297622.323    21297627.479
 03  4 13  0  5 30.0000000  0  9G21G14G 9G 3G17G31G23G15G18
  22221196.454   -18557626.32849 -14059988.22746  22221195.866    22221201.805
  20930950.229   -22987704.37849 -17893272.10947  20930949.675    20930955.187
  23452080.999    -7397767.14849  -5756972.12245  23452080.623    23452088.496
  21734536.975   -19693607.05249 -15119115.41147  21734536.623    21734543.366
  22494424.071   -16148626.62049 -12382942.22346  22494423.334    22494431.629
  22727021.526   -10071852.72949  -7834104.38446  22727020.951    22727028.005
  21802001.329   -17407750.04749 -13549216.04047  21802000.679    21802007.222
  20396540.041   -27632515.32649 -21348227.53648  20396539.270    20396545.763
  21306782.902   -22082509.87149 -17184849.74047  21306782.382    21306787.554
 03  4 13  0  6  0.0000000  0  9G21G14G 9G 3G17G31G23G15G18
  22235166.549   -18484213.48349 -14002783.48246  22235165.945    22235171.859
  20919067.843   -23050146.50349 -17941928.27247  20919067.301    20919072.809
  23449868.621    -7409393.37949  -5766031.48845  23449868.155    23449876.115
  21735702.047   -19687484.64449 -15114344.71947  21735701.687    21735708.439
  22508443.126   -16074956.29549 -12325536.86146  22508442.469    22508450.769
  22718676.562   -10115705.59249  -7868275.42546  22718676.008    22718683.050
  21810810.062   -17361459.88049 -13513145.79947  21810809.411    21810815.957
  20401719.389   -27605297.57049 -21327018.90348  20401718.614    20401725.121
  21315973.853   -22034211.06449 -17147214.32547  21315973.339    21315978.513
 03  4 13  0  6 30.0000000  0  9G21G14G 9G 3G17G31G23G15G18
  22249194.775   -18410494.88249 -13945340.47446  22249194.163    22249200.075
  20907276.907   -23112108.26449 -17990210.12947  20907276.354    20907281.868
  23447762.785    -7420457.76049  -5774653.05645  23447762.482    23447770.631
  21736973.904   -19680801.01549 -15109136.71647  21736973.516    21736980.275
  22522520.053   -16000981.90549 -12267894.56846  22522519.364    22522527.722
  22710433.932   -10159020.90949  -7902027.57946  22710433.394    22710440.374
  21819635.972   -17315079.34349 -13477005.13947  21819635.341    21819641.896
  20406976.897   -27577669.26949 -21305490.37248  20406976.144    20406982.644
  21325195.662   -21985750.36849 -17109452.76147  21325195.135    21325200.330
 03  4 13  0  7  0.0000000  0  9G21G14G 9G 3G17G31G23G15G18
  22263281.019   -18336471.41849 -13887659.89446  22263280.412    22263286.337
  20895577.595   -23173588.33649 -18038116.64347  20895577.053    20895582.539
  23445764.551    -7430959.20349  -5782835.98945  23445764.196    23445772.423
  21738352.436   -19673556.82249 -15103491.90447  21738352.052    21738358.825
  22536654.749   -15926703.87149 -12210015.65046  22536654.089    22536662.413
  22702293.783   -10201797.58449  -7935360.01746  22702293.269    22702300.231
  21828478.934   -17268609.35449 -13440794.77847  21828478.299    21828484.846
  20412312.599   -27549630.06449 -21283641.65648  20412311.851    20412318.341
  21334448.001   -21937128.84349 -17071565.87947  21334447.479    21334452.679
 03  4 13  0  7 30.0000000  0  9G21G14G 9G 3G17G31G23G15G18
  22277425.065   -18262144.06749 -13829742.54946  22277424.460    22277430.449
  20883970.160   -23234585.65049 -18085646.98147  20883969.609    20883975.103
  23443873.441    -7440896.97749  -5790579.67745  23443873.194    23443881.255
  21739837.470   -19665752.97049 -15097410.99847  21739837.074    21739843.869
  22550846.963   -15852123.47849 -12151901.11546  22550846.354    22550854.692
  22694256.294   -10244034.61149  -7968271.95346  22694255.793    22694262.724
  21837338.661   -17222051.16749 -13404515.68647  21837338.006    21837344.604
  20417726.498   -27521179.89549 -21261472.70848  20417725.733    20417732.241
  21343730.776   -21888347.72049 -17033554.63347  21343730.243    21343735.454
 03  4 13  0  8  0.0000000  0  9G21G14G 9G 3G17G31G23G15G18
  22291626.934   -18187512.98849 -13771588.50646  22291626.308    22291632.328
  20872454.917   -23295098.52149 -18132799.83647  20872454.381    20872459.854
  23442089.727    -7450269.48049  -5797882.92445  23442089.609    23442097.591
  21741428.917   -19657389.87549 -15090894.32147  21741428.532    21741435.313
  22565096.766   -15777240.57549 -12093550.88946  22565096.089    22565104.496
  22686321.794   -10285730.52249  -8000762.23946  22686321.267    22686328.215
  21846215.156   -17175405.14249 -13368168.15647  21846214.500    21846221.082
  20423218.768   -27492317.89249 -21238982.84948  20423218.000    20423224.500
  21353043.752   -21839407.68249 -16995419.55547  21353043.236    21353048.443
 03  4 13  0  8 30.0000000  0  9G21G14G 9G 3G17G31G23G15G18
  22305886.540   -18112578.55849 -13713198.10046  22305885.906    22305891.907
  20861032.180   -23355125.15449 -18179573.80047  20861031.648    20861037.117
  23440413.739    -7459075.20949  -5804744.50745  23440413.929    23440421.914
  21743126.728   -19648467.83149 -15083942.10047  21743126.347    21743133.118
  22579404.113   -15702055.25849 -12034965.01746  22579403.434    22579411.883
  22678490.604   -10326883.59449  -8032829.53146  22678490.088    22678497.002
  21855108.268   -17128671.54849 -13331752.38747  21855107.614    21855114.179
  20428789.561   -27463043.28049 -21216171.48047  20428788.794    20428795.295
  21362386.852   -21790309.37849 -16957161.16047  21362386.338    21362391.569
 03  4 13  0  9  0.0000000  0  9G21G14G 9G 3G17G31G23G15G18
  22320203.690   -18037341.43049 -13654571.82246  22320203.085    22320209.113
  20849702.148   -23414664.67049 -18225968.19547  20849701.632    20849707.092
  23438846.065    -7467313.45649  -5811163.88845  23438846.075    23438854.170
  21744930.684   -19638988.05049 -15076555.27747  21744930.308    21744937.093
  22593768.760   -15626568.88749 -11976144.54946  22593768.129    22593776.522
  22670762.825   -10367493.08549  -8064473.25446  22670762.338    22670769.226
  21864017.814   -17081851.57949 -13295269.30947  21864017.176    21864023.757
  20434438.814   -27433356.21749 -21193038.72047  20434438.043    20434444.551
  21371759.873   -21741053.84849 -16918780.24647  21371759.359    21371764.592
 03  4 13  0  9 30.0000000  0  9G21G14G 9G 3G17G31G23G15G18
  22334578.153   -17961803.38149 -13595711.07746  22334577.524    22334583.578
  20838465.001   -23473716.17749 -18271982.32247  20838464.461    20838469.941
  23437386.497    -7474983.67549  -5817140.65945  23437386.455    23437394.552
  21746840.570   -19628951.57649 -15068734.67147  21746840.196    21746846.990
  22608190.550   -15550782.03449 -11917089.93246  22608189.956    22608198.361
  22663138.670   -10407558.18249  -8095692.77046  22663138.146    22663145.046
  21872943.561   -17034946.44949 -13258719.87247  21872942.917    21872949.524
  20440166.592   -27403256.76549 -21169584.61447  20440165.808    20440172.314
  21381162.584   -21691642.47949 -16880277.89247  21381162.079    21381167.317
 03  4 13  0 10  0.0000000  0  9G21G14G 9G 3G17G31G23G15G18
  22349009.927   -17885964.07549 -13536615.58246  22349009.293    22349015.353
  20827321.142   -23532277.43749 -18317614.44447  20827320.606    20827326.067
  23436035.543    -7482083.74849  -5822673.18345  23436035.410    23436043.384
  21748856.505   -19618357.98349 -15060479.94747  21748856.120    21748862.929
  22622669.615   -15474694.34249 -11857800.91146  22622669.002    22622677.408
  22655618.489   -10447076.86549  -8126486.51546  22655617.952    22655624.824
  21881885.569   -16987955.90449 -13222103.88347  21881884.946    21881891.529
  20445973.069   -27372743.64249 -21145808.17347  20445972.288    20445978.769
  21390594.886   -21642075.27549 -16841654.12147  21390594.409    21390599.628
 03  4 13  0 10 30.0000000  0  9G21G14G 9G 3G17G31G23G15G18
  22363498.826   -17809824.81549 -13477286.36446  22363498.232    22363504.280
  20816270.618   -23590348.16749 -18362864.33447  20816270.076    20816275.541
  23434793.077    -7488613.41849  -5827761.23645  23434793.070    23434800.904
  21750978.060   -19607209.24949 -15051792.64547  21750977.672    21750984.478
  22637205.579   -15398307.40349 -11798278.70346  22637204.979    22637213.437
  22648202.343   -10486048.88149  -8156854.27646  22648201.806    22648208.674
  21890843.531   -16940881.63449 -13185422.65447  21890842.885    21890849.480
  20451858.170   -27341817.29949 -21121709.74347  20451857.374    20451863.882
  21400056.567   -21592354.03349 -16802910.31147  21400056.069    21400061.305
 03  4 13  0 11  0.0000000  0  9G21G14G 9G 3G17G31G23G15G18
  22378044.855   -17733385.04249 -13417722.97646  22378044.243    22378050.331
  20805313.973   -23647925.56849 -18407729.81147  20805313.441    20805318.895
  23433659.655    -7494570.58749  -5832403.16045  23433659.475    23433667.386
  21753205.362   -19595504.72849 -15042672.26347  21753204.970    21753211.780
  22651798.753   -15321620.12749 -11738522.47646  22651798.166    22651806.643
  22640890.677   -10524471.77649  -8186794.16946  22640890.108    22640897.008
  21899817.523   -16893722.94649 -13148675.63747  21899816.882    21899823.465
  20457822.242   -27310475.89149 -21097287.88947  20457821.455    20457827.971
  21409547.617   -21542478.31949 -16764046.13147  21409547.109    21409552.359
 03  4 13  0 11 30.0000000  0  9G21G14G 9G 3G17G31G23G15G18
  22392647.769   -17656646.72149 -13357926.97246  22392647.153    22392653.199
  20794451.092   -23705010.28649 -18452211.38247  20794450.561    20794456.005
  23432635.167    -7499955.77649  -5836599.43645  23432634.655    23432642.712
  21755537.931   -19583247.01449 -15033120.81847  21755537.555    21755544.374
  22666448.568   -15244635.19949 -11678534.30746  22666447.945    22666456.473
  22633683.394   -10562346.04549  -8216306.55346  22633682.858    22633689.750
  21908807.125   -16846482.39149 -13111864.83147  21908806.479    21908813.091
  20463864.969   -27278721.14649 -21072543.95247  20463864.182    20463870.689
  21419067.576   -21492450.63249 -16725063.53847  21419067.058    21419072.302
 03  4 13  0 12  0.0000000  0  9G21G14G 9G 3G17G31G23G15G18
  22407307.516   -17579609.36149 -13297897.92946  22407306.884    22407312.986
  20783682.431   -23761599.83549 -18496307.10547  20783681.916    20783687.342
  23431719.456    -7504766.69349  -5840348.17245  23431719.198    23431727.218
  21757975.898   -19570435.59949 -15023137.91547  21757975.507    21757982.311
  22681155.137   -15167351.85249 -11618313.59846  22681154.503    22681163.063
  22626580.977   -10599669.35949  -8245389.62246  22626580.434    22626587.355
  21917812.409   -16799159.24649 -13074989.67147  21917811.785    21917818.392
  20469986.683   -27246551.46549 -21047476.69147  20469985.914    20469992.410
  21428616.497   -21442270.72249 -16685962.32947  21428616.008    21428621.251
 03  4 13  0 12 30.0000000  0  9G21G14G 9G 3G17G31G23G15G18
  22422023.911   -17502274.55849 -13237637.10346  22422023.296    22422029.399
  20773008.155   -23817693.39049 -18540016.34247  20773007.656    20773013.062
  23430913.518    -7509002.77649  -5843649.04045  23430913.046    23430921.146
  21760518.917   -19557072.01049 -15012724.75247  21760518.537    21760525.347
  22695918.359   -15089771.09049 -11557861.13446  22695917.722    22695926.302
  22619583.486   -10636441.30349  -8274043.06446  22619582.938    22619589.853
  21926833.201   -16751754.81049 -13038051.17647  21926832.580    21926839.200
  20476187.333   -27213966.81049 -21022086.07247  20476186.571    20476193.085
  21438194.210   -21391939.72749 -16646743.39147  21438193.687    21438198.943
 03  4 13  0 13  0.0000000  0  9G21G14G 9G 3G17G31G23G15G18
  22436796.827   -17424642.46249 -13177144.63646  22436796.249    22436802.342
  20762428.642   -23873289.03649 -18583337.59647  20762428.140    20762433.536
  23430217.426    -7512662.52649  -5846500.79645  23430216.728    23430224.795
  21763166.983   -19543156.36049 -15001881.40747  21763166.643    21763173.441
  22710738.167   -15011892.73849 -11497176.77546  22710737.533    22710746.100
  22612691.257   -10672660.06249  -8302265.44846  22612690.710    22612697.635
  21935869.444   -16704269.10649 -13001049.34447  21935868.794    21935875.425
  20482467.148   -27180966.26849 -20996371.38347  20482466.374    20482472.901
  21447800.562   -21341458.03449 -16607407.02547  21447800.037    21447805.301
 03  4 13  0 13 30.0000000  0  9G21G14G 9G 3G17G31G23G15G18
  22451626.251   -17346713.82449 -13116421.08946  22451625.613    22451631.750
  20751944.032   -23928386.00549 -18626270.27247  20751943.518    20751948.893
  23429630.648    -7515745.16849  -5848902.83245  23429630.075    23429638.025
  21765919.889   -19528689.84449 -14990608.81647  21765919.518    21765926.346
  22725614.363   -14933718.03349 -11436261.48546  22725613.765    22725622.333
  22605904.383   -10708324.94849  -8330056.24046  22605903.819    22605910.796
  21944920.992   -16656703.10049 -12963984.94347  21944920.348    21944926.979
  20488826.080   -27147549.93549 -20970332.70247  20488825.301    20488831.845
  21457435.385   -21290826.69449 -16567954.05147  21457434.887    21457440.167
 03  4 13  0 14  0.0000000  0  9G21G14G 9G 3G17G31G23G15G18
  22466511.935   -17268489.14049 -13055466.85546  22466511.338    22466517.469
  20741554.614   -23982982.80149 -18668813.20347  20741554.111    20741559.452
  23429154.021    -7518249.89749  -5850854.56745  23429153.544    23429161.456
  21768777.520   -19513673.11549 -14978907.48647  21768777.159    21768783.967
  22740546.958   -14855247.09449 -11375115.37646  22740546.307    22740554.932
  22599223.230   -10743434.61349  -8357414.39346  22599222.644    22599229.640
  21953987.727   -16609057.08449 -12926858.19547  21953987.111    21953993.723
  20495264.265   -27113717.17449 -20943969.53347  20495263.474    20495270.027
  21467098.586   -21240046.24849 -16528384.89347  21467098.077    21467103.342
 03  4 13  0 14 30.0000000  0  9G21G14G 9G 3G17G31G23G15G18
  22481453.828   -17189969.30849 -12994282.64546  22481453.224    22481459.392
  20731260.524   -24037078.52949 -18710965.68947  20731260.017    20731265.359
  23428787.474    -7520175.75649  -5852355.23245  23428786.988    23428794.994
  21771739.622   -19498107.09649 -14966778.13847  21771739.268    21771746.100
  22755535.758   -14776480.79949 -11313739.11346  22755535.041    22755543.681
  22592647.861   -10777988.21349  -8384339.25646  22592647.306    22592654.284
  21963069.527   -16561331.97749 -12889669.82047  21963068.914    21963075.518
  20501781.658   -27079467.96349 -20917281.85447  20501780.882    20501787.443
  21476789.989   -21189117.70749 -16488700.33547  21476789.478    21476794.760
 03  4 13  0 15  0.0000000  0  9G21G14G 9G 3G17G31G23G15G18
  22496451.761   -17111154.82449 -12932868.84046  22496451.151    22496457.315
  20721062.024   -24090671.93549 -18752726.75747  20721061.508    20721066.848
  23428531.170    -7521521.84649  -5853404.10845  23428530.696    23428538.746
  21774806.139   -19481992.47649 -14954221.31147  21774805.776    21774812.617
  22770580.661   -14697419.57449 -11252133.04846  22770579.955    22770588.696
  22586178.536   -10811984.73949  -8410830.03146  22586177.964    22586184.944
  21972166.314   -16513528.31249 -12852420.23147  21972165.656    21972172.277
  20508378.424   -27044801.79449 -20890269.27447  20508377.656    20508384.209
  21486509.453   -21138041.70649 -16448900.87747  21486508.929    21486514.240
 03  4 13  0 15 30.0000000  0  9G21G14G 9G 3G17G31G23G15G18
  22511505.586   -17032046.74949 -12871226.24746  22511504.990    22511511.148
  20710959.305   -24143762.06749 -18794095.66447  20710958.792    20710964.105
  23428385.418    -7522287.81949  -5854000.96245  23428384.966    23428393.077
  21777976.815   -19465330.67749 -14941238.11447  21777976.451    21777983.278
  22785681.499   -14618064.46849 -11190297.99845  22785680.791    22785689.514
  22579815.328   -10845423.43749  -8436886.13346  22579814.769    22579821.734
  21981277.871   -16465646.84949 -12815110.02247  21981277.198    21981283.831
  20515054.566   -27009718.60049 -20862931.73747  20515053.784    20515060.341
  21496256.790   -21086819.19949 -16408987.25347  21496256.251    21496261.563
 03  4 13  0 16  0.0000000  0  9G21G14G 9G 3G17G31G23G15G18
  22526615.145   -16952645.65849 -12809355.34346  22526614.569    22526620.735
  20700952.525   -24196347.76849 -18835071.50947  20700951.999    20700957.322
  23428350.299    -7522472.57549  -5854144.93345  23428349.810    23428357.987
  21781251.332   -19448122.94849 -14927829.51247  21781250.974    21781257.808
  22800838.125   -14538416.19149 -11128234.47046  22800837.468    22800846.082
  22573558.487   -10878303.30949  -8462506.79246  22573557.901    22573564.861
  21990404.108   -16417688.09149 -12777739.57947  21990403.460    21990410.089
  20521810.097   -26974218.14149 -20835269.05947  20521809.327    20521815.880
  21506031.793   -21035451.08549 -16368960.17547  21506031.304    21506036.611
 03  4 13  0 16 30.0000000  0  9G21G14G 9G 3G17G31G23G15G18
  22541780.295   -16872952.54649 -12747256.89446  22541779.710    22541785.907
  20691041.903   -24248428.46749 -18875653.84247  20691041.380    20691046.689
  23428426.259    -7522075.78749  -5853835.71445  23428425.439    23428433.333
  21784629.483   -19430370.65449 -14913996.57647  21784629.135    21784635.953
  22816050.448   -14458475.24249 -11065942.89545  22816049.787    22816058.473
  22567408.082   -10910623.86649  -8487691.61946  22567407.519    22567414.455
  21999544.888   -16369653.14849 -12740309.77247  21999544.202    21999550.836
  20528644.993   -26938300.61049 -20807281.38947  20528644.205    20528650.773
  21515834.315   -20983938.55749 -16328820.56147  21515833.828    21515839.150
 03  4 13  0 17  0.0000000  0  9G21G14G 9G 3G17G31G23G15G18
  22557000.990   -16792967.74549 -12684931.14246  22557000.363    22557006.638
  20681227.719   -24300002.09049 -18915841.05247  20681227.194    20681232.507
  23428612.268    -7521095.94949  -5853072.19445  23428611.879    23428619.682
  21788111.291   -19412073.80949 -14899739.31547  21788110.925    21788117.737
  22831318.437   -14378241.73849 -11003423.36045  22831317.807    22831326.463
  22561364.398   -10942383.39049  -8512439.28146  22561363.843    22561370.773
  22008700.220   -16321541.63549 -12702820.30147  22008699.554    22008706.186
  20535559.445   -26901964.85649 -20778967.83447  20535558.669    20535565.233
  21525664.412   -20932281.33549 -16288568.19847  21525663.893    21525669.203
 03  4 13  0 17 30.0000000  0  9G21G14G 9G 3G17G31G23G15G18
  22572277.003   -16712691.99149 -12622378.68646  22572276.378    22572282.671
  20671510.178   -24351067.98149 -18955632.62947  20671509.652    20671514.946
  23428909.195    -7519532.43349  -5851853.86245  23428909.254    23428917.117
  21791696.450   -19393233.81249 -14885058.82047  21791696.093    21791702.900
  22846641.920   -14297716.57449 -10940676.56245  22846641.289    22846649.984
  22555427.654   -10973581.24449  -8536749.27946  22555427.073    22555433.993
  22017869.873   -16273354.58349 -12665271.97847  22017869.236    22017875.885
  20542553.548   -26865210.80549 -20750328.33147  20542552.767    20542559.345
  21535521.745   -20880480.57749 -16248203.99547  21535521.259    21535526.561
 03  4 13  0 18  0.0000000  0  9G21G14G 9G 3G17G31G23G15G18
  22587608.290   -16632125.87149 -12559599.95046  22587607.675    22587613.987
  20661889.534   -24401624.67149 -18995027.42547  20661889.032    20661894.306
  23429318.183    -7517384.17849  -5850179.89345  23429317.951    23429325.843
  21795384.817   -19373851.36149 -14869955.63047  21795384.449    21795391.283
  22862020.897   -14216899.90149 -10877702.60045  22862020.223    22862028.981
  22549597.954   -11004216.36549  -8560620.78746  22549597.398    22549604.281
  22027054.021   -16225092.15049 -12627664.90147  22027053.278    22027059.958
  20549627.263   -26828038.16649 -20721362.65647  20549626.480    20549633.056
  21545406.316   -20828536.86449 -16207728.39447  21545405.836    21545411.124
 03  4 13  0 18 30.0000000  0  9G21G14G 9G 3G17G31G23G15G18
  22602994.400   -16551271.39749 -12496596.52246  22602993.813    22603000.132
  20652365.727   -24451672.54249 -19034025.73847  20652365.195    20652370.484
  23429837.968    -7514652.00549  -5848050.91445  23429837.831    23429845.789
  21799175.987   -19353928.65449 -14854431.46547  21799175.635    21799182.448
  22877454.871   -14135794.12049 -10814503.38045  22877454.248    22877463.006
  22543875.328   -11034289.04849  -8584054.02646  22543874.761    22543881.631
  22036252.069   -16176756.09049 -12590000.46547  22036251.381    22036258.052
  20556780.419   -26790448.09349 -20692071.70847  20556779.648    20556786.228
  21555317.828   -20776451.94449 -16167142.77047  21555317.294    21555322.587
 03  4 13  0 19  0.0000000  0  9G21G14G 9G 3G17G31G23G15G18
  22618435.620   -16470127.68649 -12433367.72546  22618435.024    22618441.370
  20642939.243   -24501208.93549 -19072625.49847  20642938.721    20642943.989
  23430468.936    -7511333.39849  -5845464.96745  23430469.214    23430477.125
  21803070.050   -19333465.37549 -14838486.07147  21803069.689    21803076.509
  22892944.014   -14054398.32949 -10751078.16845  22892943.395    22892952.094
  22538260.170   -11063796.90049  -8607047.15146  22538259.608    22538266.430
  22045464.240   -16128345.51949 -12552277.96747  22045463.613    22045470.285
  20564013.383   -26752438.83149 -20662454.11847  20564012.600    20564019.171
  21565256.292   -20724224.98849 -16126446.46247  21565255.774    21565261.058
 03  4 13  0 19 30.0000000  0  9G21G14G 9G 3G17G31G23G15G18
  22633931.534   -16388696.48449 -12369914.89446  22633930.916    22633937.242
  20633610.143   -24550233.65549 -19110826.55247  20633609.609    20633614.870
  23431211.850    -7507428.80349  -5842422.42145  23431212.209    23431220.074
  21807066.543   -19312463.67349 -14822121.13447  21807066.192    21807073.011
  22908488.217   -13972713.44149 -10687427.68845  22908487.614    22908496.324
  22532752.487   -11092740.05249  -8629600.24146  22532751.920    22532758.710
  22054690.469   -16079861.65349 -12514498.35247  22054689.816    22054696.491
  20571325.952   -26714011.08749 -20632510.44347  20571325.178    20571331.758
  21575221.455   -20671857.65049 -16085640.76847  21575220.965    21575226.264
 03  4 13  0 20  0.0000000  0  9G21G14G 9G 3G17G31G23G15G18
  22649481.849   -16306979.28749 -12306239.24546  22649481.210    22649487.579
  20624378.377   -24598746.73549 -19148628.92447  20624377.860    20624383.102
  23432066.840    -7502938.53349  -5838923.47045  23432066.818    23432074.693
  21811165.170   -19290925.26949 -14805337.98247  21811164.845    21811171.652
  22924087.024   -13890741.47749 -10623553.51645  22924086.425    22924095.145
  22527352.238   -11121118.47049  -8651713.29146  22527351.699    22527358.441
  22063930.320   -16031305.96349 -12476662.77647  22063929.689    22063936.344
  20578718.042   -26675165.36049 -20602241.06847  20578717.270    20578723.846
  21585213.116   -20619351.55049 -16044726.95647  21585212.598    21585217.872
 03  4 13  0 20 30.0000000  0  9G21G14G 9G 3G17G31G23G15G18
  22665086.462   -16224976.80149 -12242341.26346  22665085.807    22665092.259
  20615244.282   -24646746.72649 -19186031.48647  20615243.764    20615248.980
  23433033.046    -7497861.69149  -5834967.47945  23433032.959    23433040.922
  21815365.781   -19268850.94449 -14788137.23047  21815365.427    21815372.262
  22939740.391   -13808482.96049 -10559456.04845  22939739.699    22939748.471
  22522059.647   -11148931.19649  -8673385.52546  22522059.102    22522065.847
  22073183.723   -15982678.59549 -12438771.34947  22073183.173    22073189.836
  20586189.831   -26635901.05649 -20571645.52847  20586189.048    20586195.646
  21595231.050   -20566707.12849 -16003705.35347  21595230.513    21595235.776
 03  4 13  0 21  0.0000000  0  9G21G14G 9G 3G17G31G23G15G18
  22680745.255   -16142689.50749 -12178221.37646  22680744.627    22680751.106
  20606208.051   -24694232.38449 -19223033.27148  20606207.519    20606212.729
  23434110.832    -7492196.94949  -5830553.38345  23434110.764    23434118.987
  21819668.239   -19246241.70849 -14770519.66647  21819667.868    21819674.683
  22955448.303   -13725937.82749 -10495135.25445  22955447.645    22955456.464
  22516874.898   -11176177.02349  -8694616.02746  22516874.382    22516881.133
  22082450.876   -15933979.55149 -12400824.06847  22082450.338    22082456.993
  20593741.302   -26596217.78949 -20540723.52547  20593740.520    20593747.117
  21605275.252   -20513924.41149 -15962575.99747  21605274.770    21605280.032
 03  4 13  0 21 30.0000000  0  9G21G14G 9G 3G17G31G23G15G18
  22696458.206   -16060117.68049 -12113879.77046  22696457.589    22696464.068
  20597269.861   -24741202.76149 -19259633.53848  20597269.347    20597274.535
  23435300.857    -7485943.79049  -5825680.79145  23435300.709    23435308.959
  21824072.191   -19223098.66449 -14752486.14647  21824071.830    21824078.681
  22971210.582   -13643106.87249 -10430591.73845  22971209.852    22971218.723
  22511798.197   -11202855.10449  -8715404.13546  22511797.676    22511804.472
  22091731.592   -15885209.38449 -12362821.37347  22091731.003    22091737.695
  20601372.571   -26556115.36549 -20509474.90347  20601371.797    20601378.410
  21615345.639   -20461003.98449 -15921339.32447  21615345.198    21615350.460
 03  4 13  0 22  0.0000000  0  9G21G14G 9G 3G17G31G23G15G18
  22712225.021   -15977262.73149 -12049317.53846  22712224.414    22712230.937
  20588429.880   -24787657.26249 -19295831.82448  20588429.337    20588434.533
  23436603.085    -7479102.26449  -5820349.70645  23436602.657    23436610.746
  21828577.473   -19199423.38149 -14734037.89047  21828577.130    21828584.000
  22987027.061   -13559991.34749 -10365826.49045  22987026.372    22987035.187
  22506829.618   -11228965.22749  -8735749.67746  22506829.096    22506835.858
  22101025.725   -15836368.89449 -12324763.87347  22101025.079    22101031.746
  20609083.515   -26515594.06649 -20477899.88947  20609082.739    20609089.360
  21625442.095   -20407946.96449 -15879996.22647  21625441.648    21625446.908
 03  4 13  0 22 30.0000000  0  9G21G14G 9G 3G17G31G23G15G18
  22728045.599   -15894125.38549 -11984535.27746  22728044.951    22728051.512
  20579688.214   -24833594.80249 -19331627.28248  20579687.689    20579692.861
  23438017.016    -7471671.55449  -5814559.52745  23438016.848    23438024.598
  21833183.777   -19175217.08249 -14715175.86547  21833183.422    21833190.291
  23002897.536   -13476591.37949 -10300839.59445  23002896.956    23002905.737
  22501969.272   -11254506.52849  -8755651.97946  22501968.741    22501975.501
  22110333.106   -15787458.43149 -12286651.85247  22110332.445    22110339.127
  20616874.280   -26474653.30249 -20445998.01547  20616873.505    20616880.119
  21635564.384   -20354754.12949 -15838547.28947  21635563.921    21635569.181
 03  4 13  0 23  0.0000000  0  9G21G14G 9G 3G17G31G23G15G18
  22743919.769   -15810706.31849 -11919533.47646  22743919.152    22743925.639
  20571045.114   -24879014.51649 -19367019.23948  20571044.572    20571049.754
  23439543.045    -7463651.16849  -5808309.85945  23439543.082    23439550.881
  21837890.943   -19150481.02149 -14695901.02947  21837890.583    21837897.465
  23018822.100   -13392907.54749 -10235631.51545  23018821.521    23018830.363
  22497217.294   -11279478.28449  -8775110.47846  22497216.781    22497223.510
  22119653.721   -15738478.22349 -12248485.47947  22119653.063    22119659.753
  20624744.937   -26433292.91949 -20413769.16747  20624744.167    20624750.797
  21645712.483   -20301425.82549 -15796992.79547  21645712.005    21645717.255
 03  4 13  0 23 30.0000000  0  9G21G14G 9G 3G17G31G23G15G18
  22759847.309   -15727007.05049 -11854313.34846  22759846.666    22759853.159
  20562500.609   -24923916.04349 -19402007.41648  20562500.067    20562505.250
  23441181.621    -7455041.52749  -5801601.04145  23441181.298    23441189.435
  21842698.616   -19125216.64049 -14676214.51847  21842698.215    21842705.133
  23034800.401   -13308941.40449 -10170203.44445  23034799.790    23034808.638
  22492573.714   -11303880.35349  -8794125.06446  22492573.196    22492579.949
  22128987.435   -15689429.20349 -12210265.49347  22128986.801    22128993.508
  20632695.317   -26391513.37649 -20381213.69747  20632694.533    20632701.178
  21655886.163   -20247962.98049 -15755333.46447  21655885.682    21655890.934
 03  4 13  0 24  0.0000000  0  9G21G14G 9G 3G17G31G23G15G18
  22775828.063   -15643027.76149 -11788875.02046  22775827.412    22775833.941
  20554054.987   -24968297.98549 -19436590.71948  20554054.454    20554059.627
  23442932.580    -7445841.41749  -5794432.13345  23442932.046    23442940.240
  21847606.636   -19099424.77749 -14656116.98147  21847606.247    21847613.168
  23050832.275   -13224693.72749 -10104555.99945  23050831.651    23050840.581
  22488038.760   -11327711.65649  -8812694.89946  22488038.255    22488044.996
  22138334.258   -15640311.39649 -12171991.90347  22138333.601    22138340.333
  20640725.551   -26349314.33549 -20348331.34747  20640724.784    20640731.407
  21666085.392   -20194365.84749 -15713569.48947  21666084.862    21666090.151
 03  4 13  0 24 30.0000000  0  9G21G14G 9G 3G17G31G23G15G18
  22791861.851   -15558769.81849 -11723219.54946  22791861.253    22791867.767
  20545708.299   -25012160.09949 -19470768.96648  20545707.762    20545712.935
  23444795.851    -7436051.00949  -5786803.23645  23444795.256    23444803.060
  21852614.677   -19073107.40549 -14635609.95847  21852614.310    21852621.232
  23066917.583   -13140165.26249 -10038689.76345  23066916.995    23066925.928
  22483612.464   -11350972.02249  -8830819.85146  22483611.949    22483618.711
  22147694.047   -15591125.59549 -12133665.33547  22147693.411    22147700.103
  20648835.581   -26306695.93149 -20315122.22847  20648834.819    20648841.449
  21676309.951   -20140635.63649 -15671701.82747  21676309.413    21676314.696
 03  4 13  0 25  0.0000000  0  9G21G14G 9G 3G17G31G23G15G18
  22807948.659   -15474233.31149 -11657347.03746  22807948.046    22807954.590
  20537460.783   -25055500.85449 -19504540.95648  20537460.242    20537465.426
  23446771.075    -7425668.82949  -5778713.21845  23446770.909    23446778.580
  21857722.607   -19046265.11549 -14614693.90647  21857722.234    21857729.174
  23083056.237   -13055356.31049  -9972604.96445  23083055.653    23083064.603
  22479295.041   -11373660.14549  -8848498.89646  22479294.528    22479301.281
  22157066.802   -15541871.50849 -12095285.54847  22157066.142    22157072.888
  20657025.593   -26263657.23349 -20281585.60347  20657024.829    20657031.463
  21686559.875   -20086772.16449 -15629730.31447  21686559.337    21686564.604
 03  4 13  0 25 30.0000000  0  9G21G14G 9G 3G17G31G23G15G18
  22824088.291   -15389419.25349 -11591258.23946  22824087.643    22824094.204
  20529312.634   -25098319.58849 -19537906.17848  20529312.103    20529317.278
  23448859.027    -7414695.17549  -5770162.33245  23448858.983    23448867.012
  21862930.141   -19018899.38749 -14593369.98247  21862929.739    21862936.708
  23099248.158   -12970267.50549  -9906302.10045  23099247.613    23099256.574
  22475086.588   -11395775.74449  -8865731.82546  22475086.042    22475092.801
  22166452.446   -15492549.81149 -12056853.08147  22166451.805    22166458.532
  20665295.483   -26220198.72249 -20247721.85247  20665294.714    20665301.357
  21696834.962   -20032776.33649 -15587655.67547  21696834.384    21696839.678
 03  4 13  0 26  0.0000000  0  9G21G14G 9G 3G17G31G23G15G18
  22840280.436   -15304329.40649 -11524954.55146  22840279.783    22840286.359
  20521263.771   -25140616.48049 -19570864.76948  20521263.235    20521268.412
  23451059.828    -7403130.59249  -5761150.96845  23451059.719    23451067.924
  21868236.854   -18991012.52749 -14571639.98347  21868236.455    21868243.438
  23115493.102   -12884900.35849  -9839782.34345  23115492.467    23115501.514
  22470986.965   -11417319.28449  -8882518.98446  22470986.449    22470993.205
  22175850.676   -15443161.72149 -12018368.88547  22175850.058    22175856.804
  20673645.101   -26176321.24549 -20213531.63647  20673644.344    20673650.989
  21707135.020   -19978649.46649 -15545478.92147  21707134.414    21707139.699
 03  4 13  0 26 30.0000000  0  9G21G14G 9G 3G17G31G23G15G18
  22856524.853   -15218964.64949 -11458436.62546  22856524.187    22856530.754
  20513314.374   -25182390.84849 -19603416.19848  20513313.828    20513318.999
  23453373.071    -7390974.54149  -5751678.70845  23453372.998    23453380.944
  21873642.508   -18962605.91549 -14549504.98047  21873642.093    21873649.060
  23131790.766   -12799255.83849  -9773046.45745  23131790.046    23131799.198
  22466996.344   -11438290.05749  -8898859.83446  22466995.823    22467002.582
  22185261.543   -15393707.55849 -11979833.19747  22185260.923    22185267.661
  20682074.507   -26132024.57849 -20179014.77847  20682073.758    20682080.397
  21717459.803   -19924392.17649 -15503200.53847  21717459.246    21717464.529
 03  4 13  0 27  0.0000000  0  9G21G14G 9G 3G17G31G23G15G18
  22872821.476   -15133325.63949 -11391704.98946  22872820.816    22872827.420
  20505464.598   -25223641.47549 -19635559.51748  20505464.063    20505469.223
  23455798.884    -7378226.42149  -5741745.09145  23455798.778    23455806.616
  21879146.826   -18933680.55249 -14526965.75847  21879146.412    21879153.381
  23148141.125   -12713334.60149  -9706094.94945  23148140.456    23148149.545
  22463114.867   -11458687.30649  -8914753.79446  22463114.320    22463121.114
  22194684.938   -15344187.34949 -11941246.05247  22194684.320    22194691.033
  20690583.780   -26087308.20949 -20144170.87947  20690583.007    20690589.672
  21727809.386   -19870004.62549 -15460820.65247  21727808.861    21727814.167
 03  4 13  0 27 30.0000000  0  9G21G14G 9G 3G17G31G23G15G18
  22889170.109   -15047413.38149 -11324760.45346  22889169.438    22889176.048
  20497714.571   -25264368.07649 -19667294.49948  20497714.028    20497719.185
  23458337.470    -7364886.50149  -5731350.33845  23458337.331    23458345.196
  21884749.537   -18904238.18049 -14504023.67147  21884749.143    21884756.103
  23164543.878   -12627137.85249  -9638928.75145  23164543.241    23164552.279
  22459342.542   -11478510.97249  -8930200.78946  22459342.021    22459348.800
  22204120.781   -15294601.93149 -11902608.08547  22204120.128    22204126.869
  20699172.811   -26042172.59449 -20109000.29047  20699172.041    20699178.700
  21738183.610   -19815487.74949 -15418339.99347  21738183.109    21738188.429
 03  4 13  0 28  0.0000000  0  9G21G14G 9G 3G17G31G23G15G18
  22905570.589   -14961228.60649 -11257603.57946  22905569.944    22905576.508
  20490064.425   -25304569.76649 -19698620.46748  20490063.884    20490069.031
  23460988.752    -7350954.12749  -5720493.91545  23460988.566    23460996.438
  21890450.354   -18874280.12349 -14480679.75347  21890449.977    21890456.938
  23180999.082   -12540665.52949  -9571547.81145  23180998.469    23181007.467
  22455679.543   -11497760.21349  -8945200.19746  22455678.997    22455685.786
  22213569.028   -15244951.19149 -11863919.22447  22213568.366    22213575.126
  20707841.691   -25996617.41149 -20073502.77347  20707840.930    20707847.592
  21748582.340   -19760841.97049 -15375758.89547  21748581.870    21748587.198
 03  4 13  0 28 30.0000000  0  9G21G14G 9G 3G17G31G23G15G18
  22922022.651   -14874772.60949 -11190235.34646  22922021.965    22922028.590
  20482514.269   -25344246.01449 -19729536.99948  20482513.751    20482518.874
  23463752.605    -7336429.58049  -5709176.08045  23463752.332    23463760.340
  21896248.989   -18843808.26949 -14456935.47347  21896248.603    21896255.563
  23197506.470   -12453919.10649  -9503953.30945  23197505.801    23197514.907
  22452125.813   -11516435.12749  -8959752.07146  22452125.257    22452132.026
  22223029.521   -15195235.93249 -11825180.07847  22223028.837    22223035.626
  20716590.312   -25950643.12149 -20037678.67647  20716589.543    20716596.223
  21759005.480   -19706068.08049 -15333077.96647  21759005.024    21759010.378
 03  4 13  0 29  0.0000000  0  9G21G14G 9G 3G17G31G23G15G18
  22938526.176   -14788046.30649 -11122656.49146  22938525.509    22938532.120
  20475064.162   -25383396.49449 -19760043.83848  20475063.628    20475068.758
  23466629.325    -7321313.02849  -5697396.93345  23466628.971    23466636.920
  21902145.122   -18812824.02549 -14432791.93047  21902144.731    21902151.709
  23214065.746   -12366899.91549  -9436146.25645  23214065.076    23214074.199
  22448681.468   -11534535.31549  -8973856.10746  22448680.902    22448687.684
  22232502.225   -15145456.52249 -11786390.96247  22232501.569    22232508.346
  20725418.709   -25904249.65149 -20001527.94247  20725417.952    20725424.649
  21769452.915   -19651166.65849 -15290297.66247  21769452.422    21769457.797
 03  4 13  0 29 30.0000000  0  9G21G14G 9G 3G17G31G23G15G18
  22955080.991   -14701050.49549 -11054867.62846  22955080.299    22955086.967
  20467714.291   -25422020.26149 -19790140.25348  20467713.757    20467718.872
  23469618.746    -7305603.65249  -5685155.84645  23469618.271    23469626.232
  21908138.498   -18781328.66149 -14408250.11047  21908138.112    21908145.083
  23230676.859   -12279608.28449  -9368126.91445  23230676.167    23230685.343
  22445346.533   -11552060.28149  -8987511.92846  22445346.010    22445352.803
  22241987.105   -15095612.99549 -11747551.86747  22241986.493    22241993.296
  20734326.879   -25857436.95149 -19965050.53147  20734326.125    20734332.828
  21779924.527   -19596138.23849 -15247418.40547  21779924.002    21779929.381
 03  4 13  0 30  0.0000000  0  9G21G14G 9G 3G17G31G23G15G18
  22971686.801   -14613786.65849 -10986869.91846  22971686.123    22971692.799
  20460464.636   -25460117.42749 -19819826.33148  20460464.115    20460469.228
  23472720.840    -7289302.36149  -5672453.51645  23472720.264    23472728.301
  21914228.711   -18749324.35549 -14383311.71747  21914228.315    21914235.302
  23247339.519   -12192045.68349  -9299896.41845  23247338.892    23247348.063
  22442121.076   -11569010.23549  -9000719.67346  22442120.533    22442127.341
  22251484.051   -15045706.43249 -11708663.66447  22251483.428    22251490.213
  20743314.713   -25810205.70849 -19928246.98447  20743313.952    20743320.672
  21790420.115   -19540983.68949 -15204440.85947  21790419.566    21790424.940
 03  4 13  0 30 30.0000000  0  9G21G14G 9G 3G17G31G23G15G18
  22988343.512   -14526255.36549 -10918663.80546  22988342.881    22988349.512
  20453315.340   -25497686.98549 -19849101.28448  20453314.825    20453319.920
  23475935.704    -7272408.56249  -5659289.48645  23475935.029    23475943.092
  21920415.569   -18716812.34549 -14357977.70747  21920415.192    21920422.155
  23264053.684   -12104212.57949  -9231455.15545  23264053.041    23264062.301
  22439005.169   -11585384.44049  -9013478.79446  22439004.620    22439011.429
  22260993.052   -14995736.56849 -11669726.13147  22260992.366    22260999.184
  20752382.278   -25762555.42449 -19891116.91747  20752381.525    20752388.262
  21800939.626   -19485703.19049 -15161365.16847  21800939.124    21800944.523
 03  4 13  0 31  0.0000000  0  9G21G14G 9G 3G17G31G23G15G18
  23005050.941   -14438457.48449 -10850249.95946  23005050.325    23005056.971
  20446266.612   -25534728.18349 -19877964.52948  20446266.085    20446271.184
  23479263.104    -7254922.11149  -5645663.66945  23479262.495    23479270.649
  21926698.714   -18683794.26549 -14332249.35547  21926698.342    21926705.310
  23280819.157   -12016109.83549  -9162803.77145  23280818.485    23280827.766
  22435998.856   -11601182.62349  -9025789.06846  22435998.302    22436005.093
  22270514.010   -14945703.73449 -11630739.53347  22270513.324    22270520.161
  20761529.542   -25714486.20249 -19853660.39847  20761528.783    20761535.544
  21811483.012   -19430297.09549 -15118191.61047  21811482.545    21811487.953
 03  4 13  0 31 30.0000000  0  9G21G14G 9G 3G17G31G23G15G18
  23021808.962   -14350393.94449 -10781629.10846  23021808.363    23021814.981
  20439318.548   -25571240.45149 -19906415.62348  20439318.015    20439323.108
  23482703.368    -7236842.87349  -5631575.94545  23482702.903    23482710.949
  21933077.907   -18650271.54849 -14306127.78147  21933077.526    21933084.488
  23297635.791   -11927738.16049  -9093942.84345  23297635.043    23297644.506
  22433102.220   -11616404.54449  -9037650.31146  22433101.647    22433108.488
  22280046.812   -14895608.36349 -11591704.21047  22280046.205    22280053.014
  20770756.542   -25665998.19549 -19815877.56047  20770755.765    20770762.556
  21822050.221   -19374766.09749 -15074920.73347  21822049.759    21822055.184
 03  4 13  0 32  0.0000000  0  9G21G14G 9G 3G17G31G23G15G18
  23038617.119   -14262066.64649 -10712802.73746  23038616.578    23038623.196
  20432471.060   -25607224.24849 -19934454.92248  20432470.525    20432475.600
  23486256.391    -7218171.74649  -5617026.99945  23486255.893    23486263.838
  21939552.656   -18616246.55249 -14279614.82847  21939552.284    21939559.250
  23314503.304   -11839099.24749  -9024873.68045  23314502.535    23314511.992
  22430315.175   -11631050.72549  -9049062.91246  22430314.586    22430321.428
  22289591.352   -14845451.35049 -11552620.84547  22289590.767    22289597.591
  20780063.026   -25617092.16649 -19777768.98947  20780062.262    20780069.048
  21832640.937   -19319111.57349 -15031553.59347  21832640.467    21832645.916
 03  4 13  0 32 30.0000000  0  9G21G14G 9G 3G17G31G23G15G18
  23055475.551   -14173475.47049 -10643770.75846  23055474.947    23055481.622
  20425724.374   -25642678.24049 -19962081.38748  20425723.836    20425728.924
  23489922.141    -7198907.96149  -5602016.24645  23489921.636    23489929.594
  21946122.803   -18581720.21549 -14252711.21547  21946122.436    21946129.403
  23331421.554   -11750193.61949  -8955596.68145  23331420.803    23331430.253
  22427637.795   -11645120.15549  -9060026.10446  22427637.260    22427644.091
  22299147.797   -14795232.27349 -11513489.12347  22299147.141    22299153.982
  20789449.236   -25567767.39849 -19739334.12647  20789448.454    20789455.260
  21843255.259   -19263333.23649 -14988089.97947  21843254.779    21843260.234
 03  4 13  0 33  0.0000000  0  9G21G14G 9G 3G17G31G23G15G18
  23072383.763   -14084622.51849 -10574534.79046  23072383.072    23072389.896
  20419078.402   -25677602.91049 -19989295.38848  20419077.867    20419082.938
  23493700.422    -7179052.60249  -5586544.52645  23493699.900    23493707.928
  21952787.880   -18546694.98649 -14225418.85647  21952787.511    21952794.469
  23348390.322   -11661022.56849  -8886112.84945  23348389.656    23348399.169
  22425070.084   -11658613.63449  -9070540.50446  22425069.528    22425076.366
  22308715.742   -14744952.31649 -11474309.96147  22308715.128    22308721.982
  20798914.930   -25518024.90849 -19700573.76847  20798914.171    20798920.964
  21853892.868   -19207432.47449 -14944530.97247  21853892.365    21853897.797
 03  4 13  0 33 30.0000000  0  9G21G14G 9G 3G17G31G23G15G18
  23089341.720   -13995508.16049 -10505095.12946  23089341.112    23089347.962
  20412533.371   -25711997.08749 -20016096.02548  20412532.828    20412537.907
  23497591.410    -7158605.10649  -5570611.41345  23497591.037    23497599.140
  21959547.675   -18511172.13649 -14197738.73847  21959547.292    21959554.279
  23365409.604   -11571586.30949  -8816422.36845  23365408.934    23365418.403
  22422612.127   -11671530.31149  -9080605.44446  22422611.569    22422618.386
  22318295.420   -14694611.11749 -11435083.08947  22318294.746    22318301.624
  20808460.192   -25467864.30349 -19661487.60547  20808459.433    20808466.234
  21864553.745   -19151409.03549 -14900876.37047  21864553.285    21864558.718
 03  4 13  0 34  0.0000000  0  9G21G14G 9G 3G17G31G23G15G18
  23106349.140   -13906134.05149 -10435453.05446  23106348.568    23106355.427
  20406089.254   -25745861.09049 -20042483.53848  20406088.719    20406093.790
  23501595.096    -7137566.17749  -5554217.44045  23501594.705    23501602.599
  21966401.734   -18475153.87649 -14169672.59347  21966401.357    21966408.338
  23382478.903   -11481886.81849  -8746526.76845  23382478.207    23382487.712
  22420263.847   -11683870.66249  -9090221.29746  22420263.295    22420270.111
  22327886.566   -14644209.55649 -11395809.16947  22327885.896    22327892.756
  20818084.871   -25417286.32949 -19622076.23147  20818084.120    20818090.923
  21875237.885   -19095263.87349 -14857126.92547  21875237.348    21875242.793
 03  4 13  0 34 30.0000000  0  9G21G14G 9G 3G17G31G23G15G18
  23123405.819   -13816500.92649 -10365609.16346  23123405.210    23123412.093
  20399746.168   -25779194.08049 -20068457.27648  20399745.640    20399750.692
  23505711.129    -7115935.64649  -5537362.46345  23505710.836    23505718.569
  21973349.793   -18438641.74449 -14141221.60647  21973349.417    21973356.409
  23399598.186   -11391924.74249  -8676426.56945  23399597.485    23399607.039
  22418025.301   -11695634.32349  -9099387.77746  22418024.724    22418031.569
  22337489.113   -14593747.68749 -11356488.24847  22337488.478    22337495.338
  20827789.050   -25366290.79449 -19582339.48547  20827788.282    20827795.104
  21885945.092   -19038997.16149 -14813282.75847  21885944.576    21885950.019
 03  4 13  0 35  0.0000000  0  9G21G14G 9G 3G17G31G23G15G18
  23140511.584   -13726609.88649 -10295564.29746  23140510.958    23140517.902
  20393504.130   -25811996.07449 -20094017.25048  20393503.621    20393508.657
  23509939.695    -7093714.17649  -5520047.03145  23509939.408    23509947.161
  21980391.493   -18401637.43849 -14112387.11547  21980391.112    21980398.097
  23416767.259   -11301701.03349  -8606122.50945  23416766.539    23416776.173
  22415896.419   -11706821.58049  -9108105.11746  22415895.858    22415902.664
  22347103.119   -14543225.88349 -11317120.63147  22347102.463    22347109.320
  20837572.493   -25314878.42649 -19542277.92947  20837571.749    20837578.563
  21896675.246   -18982609.88549 -14769344.65047  21896674.728    21896680.175
 03  4 13  0 35 30.0000000  0  9G21G14G 9G 3G17G31G23G15G18
  23157666.248   -13636462.01049 -10225319.29746  23157665.572    23157672.613
  20387363.247   -25844266.64749 -20119163.13148  20387362.732    20387367.766
  23514280.741    -7070901.72949  -5502271.10345  23514280.472    23514288.271
  21987526.502   -18364142.87549 -14083170.59647  21987526.132    21987533.093
  23433985.932   -11211216.80849  -8535615.44345  23433985.299    23433994.877
  22413877.324   -11717432.20349  -9116373.13946  22413876.746    22413883.556
  22356728.442   -14492644.30649 -11277706.44147  22356727.839    22356734.729
  20847435.318   -25263049.07749 -19501891.45247  20847434.571    20847441.380
  21907428.289   -18926102.36149 -14725312.83947  21907427.793    21907433.234
 03  4 13  0 36  0.0000000  0  9G21G14G 9G 3G17G31G23G15G18
  23174869.566   -13546058.38749 -10154875.02246  23174868.873    23174875.943
  20381323.536   -25876005.42249 -20143894.62248  20381323.034    20381328.041
  23518734.283    -7047498.18949  -5484034.58645  23518734.109    23518741.793
  21994754.483   -18326159.73949 -14053573.38147  21994754.108    21994761.092
  23451254.025   -11120472.79649  -8464905.94745  23451253.405    23451263.015
  22411967.937   -11727466.14949  -9124191.80446  22411967.348    22411974.144
  22366365.199   -14442003.08849 -11238245.77546  22366364.538    22366371.460
  20857377.457   -25210802.95249 -19461180.21547  20857376.708    20857383.514
  21918204.100   -18869475.33049 -14681187.90247  21918203.563    21918209.025
 03  4 13  0 36 30.0000000  0  9G21G14G 9G 3G17G31G23G15G18
  23192121.204   -13455400.61049 -10084232.70346  23192120.559    23192127.602
  20375385.059   -25907212.35649 -20168211.69448  20375384.545    20375389.555
  23523300.320    -7023504.44349  -5465338.13945  23523299.948    23523307.580
  22002074.944   -18287690.46049 -14023597.34647  22002074.561    22002081.577
  23468571.189   -11029470.79349  -8393995.41445  23468570.607    23468580.121
  22410168.188   -11736923.94849  -9131561.52346  22410167.594    22410174.366
  22376013.094   -14391303.01049 -11198739.24346  22376012.449    22376019.370
  20867398.748   -25158140.87649 -19420144.86347  20867397.991    20867404.808
  21929002.512   -18812729.31649 -14636970.25647  21929001.988    21929007.479
 03  4 13  0 37  0.0000000  0  9G21G14G 9G 3G17G31G23G15G18
  23209421.162   -13364489.18549 -10013392.72945  23209420.552    23209427.591
  20369547.873   -25937886.84349 -20192113.87048  20369547.356    20369552.354
  23527978.610    -6998920.59549  -5446181.89245  23527978.120    23527985.819
  22009487.669   -18248736.33349 -13993243.51347  22009487.299    22009494.318
  23485937.473   -10938211.11549  -8322884.10245  23485936.854    23485946.390
  22408478.144   -11745805.20649  -9138481.98746  22408477.524    22408484.332
  22385672.272   -14340543.99049 -11159186.78246  22385671.572    22385678.526
  20877499.225   -25105062.65249 -19378785.23947  20877498.478    20877505.296
  21939823.552   -18755864.41749 -14592659.97347  21939823.056    21939828.515
 03  4 13  0 37 30.0000000  0  9G21G14G 9G 3G17G31G23G15G18
  23226769.143   -13273325.40449  -9942356.10045  23226768.532    23226775.575
  20363812.025   -25968028.96749 -20215601.22048  20363811.527    20363816.497
  23532768.778    -6973747.12549  -5426566.19545  23532768.443    23532776.188
  22016992.299   -18209299.31149 -13962513.39447  22016991.943    22016998.993
  23503352.450   -10846695.21749  -8251573.13345  23503351.868    23503361.338
  22406897.689   -11754110.17949  -9144953.39546  22406897.148    22406903.959
  22395342.550   -14289726.22849 -11119588.55446  22395341.867    22395348.833
  20887678.785   -25051568.71649 -19337101.68247  20887678.051    20887684.883
  21950667.104   -18698881.41849 -14548257.66147  21950666.570    21950672.044
 03  4 13  0 38  0.0000000  0  9G21G14G 9G 3G17G31G23G15G18
  23244164.901   -13181910.40049  -9871123.74645  23244164.310    23244171.385
  20358177.457   -25997638.60649 -20238673.64348  20358176.937    20358181.914
  23537671.441    -6947984.50449  -5406491.40345  23537670.969    23537678.500
  22024588.460   -18169381.43649 -13931408.58347  22024588.075    22024595.146
  23520815.934   -10754924.35149  -8180063.50245  23520815.298    23520824.835
  22405426.972   -11761839.03749  -9150975.88246  22405426.426    22405433.176
  22405023.969   -14238850.18249 -11079944.90646  22405023.285    22405030.245
  20897937.402   -24997659.50349 -19295094.53347  20897936.650    20897943.494
  21961533.000   -18641780.78949 -14503763.69147  21961532.488    21961537.952
 03  4 13  0 38 30.0000000  0  9G21G14G 9G 3G17G31G23G15G18
  23261608.293   -13090245.23049  -9799696.43845  23261607.644    23261614.853
  20352644.361   -26026715.24849 -20261330.74848  20352643.838    20352648.825
  23542685.897    -6921632.91649  -5385957.69145  23542685.418    23542693.175
  22032275.727   -18128984.69249 -13899930.62647  22032275.343    22032282.431
  23538327.883   -10662899.07649  -8108355.62445  23538327.216    23538336.858
  22404065.787   -11768991.81249  -9156549.46946  22404065.288    22404072.049
  22414716.502   -14187915.98149 -11040255.95446  22414715.785    22414722.716
  20908275.000   -24943335.19549 -19252763.94047  20908274.243    20908281.089
  21972421.186   -18584562.93649 -14459178.37747  21972420.690    21972426.168
 03  4 13  0 39  0.0000000  0  9G21G14G 9G 3G17G31G23G15G18
  23279099.045   -12998331.01649  -9728075.07745  23279098.425    23279105.629
  20347212.722   -26055258.65849 -20283572.34348  20347212.188    20347217.174
  23547812.213    -6894692.85649  -5364965.44045  23547811.869    23547819.769
  22040053.811   -18088110.64449 -13868080.75047  22040053.428    22040060.543
  23555887.974   -10570620.74849  -8036450.57045  23555887.259    23555897.019
  22402814.273   -11775568.62449  -9161674.26146  22402813.765    22402820.518
  22424419.998   -14136923.77049 -11000521.78746  22424419.317    22424426.250
  20918691.542   -24888595.86849 -19210109.95447  20918690.802    20918697.656
  21983331.685   -18527228.17949 -14414501.97247  21983331.166    21983336.647
 03  4 13  0 39 30.0000000  0  9G21G14G 9G 3G17G31G23G15G18
  23296636.920   -12906169.34349  -9656260.88145  23296636.305    23296643.524
  20341882.478   -26083269.05749 -20305398.60948  20341881.948    20341886.926
  23553050.723    -6867164.79849  -5343514.99545  23553050.382    23553058.097
  22047922.320   -18046761.52649 -13835860.68747  22047921.931    22047929.050
  23573495.939   -10478090.77149  -7964349.42045  23573495.268    23573505.014
  22401672.273   -11781569.94249  -9166350.61446  22401671.716    22401678.504
  22434134.434   -14085874.01349 -10960742.78246  22434133.782    22434140.697
  20929186.946   -24833442.30249 -19167133.19247  20929186.186    20929193.064
  21994264.248   -18469777.11449 -14369734.93847  21994263.768    21994269.234
 03  4 13  0 40  0.0000000  0  9G21G14G 9G 3G17G31G23G15G18
  23314221.687   -12813760.97949  -9584254.48345  23314221.050    23314228.309
  20336653.740   -26110746.20449 -20326809.34948  20336653.218    20336658.200
  23558400.792    -6839049.30649  -5321606.80845  23558400.559    23558408.140
  22055880.848   -18004939.39649 -13803272.04447  22055880.421    22055887.555
  23591151.703   -10385309.61749  -7892052.54445  23591151.066    23591160.847
  22400639.805   -11786995.81649  -9170578.57146  22400639.230    22400645.980
  22443859.847   -14034766.81049 -10920919.01246  22443859.170    22443866.092
  20939761.090   -24777874.96249 -19123834.00447  20939760.326    20939767.201
  22005218.892   -18412210.27949 -14324877.68847  22005218.405    22005223.870
 03  4 13  0 40 30.0000000  0  9G21G14G 9G 3G17G31G23G15G18
  23331853.100   -12721107.63049  -9512057.17845  23331852.495    23331859.785
  20331526.378   -26137690.44549 -20347804.84048  20331525.877    20331530.840
  23563862.645    -6810347.37049  -5299241.66745  23563862.318    23563870.046
  22063928.951   -17962646.23249 -13770316.36047  22063928.550    22063935.691
  23608854.991   -10292278.87449  -7819561.18945  23608854.380    23608864.234
  22399716.719   -11791846.96949  -9174358.69746  22399716.109    22399722.833
  22453596.085   -13983602.82849 -10881051.00046  22453595.369    22453602.304
  20950413.808   -24721894.61849 -19080212.99247  20950413.041    20950419.920
  22016195.390   -18354528.67149 -14279931.00847  22016194.885    22016200.335
 03  4 13  0 41  0.0000000  0  9G21G14G 9G 3G17G31G23G15G18
  23349531.039   -12628210.02649  -9439669.52945  23349530.456    23349537.787
  20326500.558   -26164101.28549 -20368384.69348  20326500.047    20326505.005
  23569435.954    -6781059.08849  -5276419.62545  23569435.689    23569443.437
  22072066.347   -17919884.03449 -13736995.19547  22072065.947    22072073.090
  23626605.502   -10198999.70449  -7746876.26145  23626604.852    23626614.824
  22398902.992   -11796123.25049  -9177690.86646  22398902.353    22398909.049
  22463343.132   -13932381.89349 -10841138.61246  22463342.401    22463349.325
  20961145.181   -24665501.06149 -19036269.99747  20961144.422    20961151.312
  22027193.692   -18296732.15849 -14234894.79347  22027193.211    22027198.667
 03  4 13  0 41 30.0000000  0  9G21G14G 9G 3G17G31G23G15G18
  23367255.254   -12535069.13349  -9367092.33345  23367254.666    23367261.979
  20321576.277   -26189978.38249 -20388548.64648  20321575.766    20321580.708
  23575120.941    -6751184.70749  -5253140.87045  23575120.643    23575128.292
  22080292.664   -17876654.67349 -13703310.00547  22080292.262    22080299.439
  23644403.288   -10105472.44649  -7673998.02645  23644402.580    23644412.513
  22398198.499   -11799824.85849  -9180575.24646  22398197.940    22398204.693
  22473100.948   -13881104.00649 -10801181.84646  22473100.296    22473107.201
  20971955.126   -24608694.53849 -18992005.20547  20971954.368    20971961.282
  22038213.860   -18238820.85549 -14189769.13947  22038213.362    22038218.840
 03  4 13  0 42  0.0000000  0  9G21G14G 9G 3G17G31G23G15G18
  23385025.365   -12441686.99849  -9294327.14445  23385024.784    23385032.086
  20316753.421   -26215322.58649 -20408297.35348  20316752.915    20316757.858
  23580916.925    -6720725.97949  -5229406.81545  23580916.610    23580924.412
  22088607.321   -17832960.93949 -13669262.96047  22088606.915    22088614.083
  23662247.859   -10011699.05149  -7600927.97245  23662247.197    23662257.100
  22397603.203   -11802952.84549  -9183012.64246  22397602.702    22397609.474
  22482869.446   -13829770.27349 -10761181.56346  22482868.793    22482875.747
  20982843.398   -24551476.39449 -18947419.67447  20982842.640    20982849.558
  22049255.621   -18180796.22949 -14144555.18147  22049255.128    22049260.583
 03  4 13  0 42 30.0000000  0  9G21G14G 9G 3G17G31G23G15G18
  23402841.319   -12348063.96949  -9221374.23445  23402840.750    23402847.921
  20312032.146   -26240133.07649 -20427630.18248  20312031.623    20312036.564
  23586824.256    -6689682.49649  -5205217.07045  23586823.981    23586831.726
  22097010.118   -17788803.90049 -13634854.90547  22097009.709    22097016.904
  23680139.193    -9917679.98349  -7527666.49745  23680138.541    23680148.585
  22397117.289   -11805506.71849  -9185002.68046  22397116.709    22397123.492
  22492648.767   -13778379.72649 -10721137.00846  22492648.114    22492655.088
  20993810.126   -24493846.15749 -18902513.03547  20993809.368    20993816.296
  22060319.046   -18122657.81749 -14099252.54947  22060318.519    22060323.998
 03  4 13  0 43  0.0000000  0  9G21G14G 9G 3G17G31G23G15G18
  23420702.733   -12254201.98549  -9148235.13845  23420702.215    23420709.371
  20307412.252   -26264410.69349 -20446547.78848  20307411.741    20307416.662
  23592842.715    -6658055.73849  -5180572.85845  23592842.416    23592850.144
  22105500.571   -17744186.43049 -13600088.07147  22105500.181    22105507.356
  23698076.816    -9823417.67049  -7454215.48645  23698076.063    23698086.271
  22396740.328   -11807487.65349  -9186546.27246  22396739.740    22396746.554
  22502438.632   -13726933.46649 -10681049.04546  22502438.046    22502445.015
  21004854.997   -24435805.02349 -18857286.21647  21004854.242    21004861.148
  22071403.853   -18064406.93349 -14053862.27747  22071403.326    22071408.814
 03  4 13  0 43 30.0000000  0  9G21G14G 9G 3G17G31G23G15G18
  23438609.490   -12160101.71249  -9074910.37245  23438608.948    23438616.164
  20302893.899   -26288154.71049 -20465049.60248  20302893.389    20302898.304
  23598971.922    -6625845.82749  -5155474.22445  23598971.642    23598979.472
  22114078.319   -17699110.12749 -13564963.70547  22114077.922    22114085.103
  23716060.644    -9728912.53549  -7380575.26245  23716059.972    23716070.043
  22396472.425   -11808895.38049  -9187643.20446  22396471.875    22396478.712
  22512239.185   -13675431.05849 -10640917.32346  22512238.641    22512245.615
  21015978.109   -24377352.85049 -18811739.10647  21015977.352    21015984.273
  22082510.075   -18006043.09849 -14008383.99847  22082509.607    22082515.111
 03  4 13  0 44  0.0000000  0  9G21G14G 9G 3G17G31G23G15G18
  23456561.376   -12065764.32749  -9001400.84245  23456560.891    23456568.102
  20298477.067   -26311365.18649 -20483135.66948  20298476.557    20298481.452
  23605212.187    -6593053.32749  -5129921.62145  23605211.922    23605219.681
  22122743.001   -17653577.13049 -13529483.47447  22122742.584    22122749.766
  23734090.464    -9634165.42649  -7306746.48645  23734089.862    23734099.999
  22396313.527   -11809730.34549  -9188293.83746  22396313.015    22396319.816
  22522050.478   -13623872.52549 -10600741.87446  22522049.909    22522056.889
  21027179.363   -24318490.04049 -18765872.01347  21027178.607    21027185.535
  22093637.804   -17947566.80949 -13962818.09347  22093637.283    22093642.817
 03  4 13  0 44 30.0000000  0  9G21G14G 9G 3G17G31G23G15G18
  23474558.108   -11971191.37649  -8927707.74445  23474557.542    23474564.880
  20294161.690   -26334042.67349 -20500806.42048  20294161.165    20294166.061
  23611563.039    -6559679.36449  -5103915.93545  23611562.766    23611570.503
  22131494.088   -17607589.87249 -13493649.27747  22131493.676    22131500.877
  23752166.049    -9539178.23849  -7232730.64345  23752165.358    23752175.476
  22396263.358   -11809993.45449  -9188498.86646  22396262.940    22396269.724
  22531872.354   -13572258.51449 -10560523.20246  22531871.770    22531878.785
  21038458.584   -24259217.58349 -18719685.71847  21038457.829    21038464.766
  22104786.760   -17888978.75549 -13917165.09947  22104786.245    22104791.773
 03  4 13  0 45  0.0000000  0  9G21G14G 9G 3G17G31G23G15G18
  23492599.439   -11876383.93049  -8853831.92045  23492598.862    23492606.263
  20289947.768   -26356186.88149 -20518061.63448  20289947.252    20289952.119
  23618024.428    -6525724.25449  -5077457.42345  23618024.212    23618031.988
  22140331.309   -17561150.14449 -13457462.49947  22140330.918    22140338.081
  23770287.116    -9443951.81549  -7158528.38045  23770286.384    23770296.455
  22396322.039   -11809684.74649  -9188258.32646  22396321.679    22396328.467
  22541704.766   -13520588.92449 -10520261.21246  22541704.183    22541711.221
  21049815.697   -24199535.64049 -18673180.34547  21049814.956    21049821.895
  22115956.929   -17830279.11349 -13871425.15347  22115956.452    22115961.955
 03  4 13  0 45 30.0000000  0  9G21G14G 9G 3G17G31G23G15G18
  23510685.054   -11781344.00449  -8779774.96545  23510684.441    23510691.864
  20285835.185   -26377798.66949 -20534901.96948  20285834.659    20285839.534
  23624596.181    -6491189.74749  -5050547.41145  23624595.953    23624603.743
  22149254.033   -17514260.91049 -13420925.46147  22149253.641    22149260.800
  23788453.401    -9348487.85449  -7084141.03445  23788452.665    23788462.722
  22396489.422   -11808805.68649  -9187573.35246  22396488.993    22396495.784
  22551547.621   -13468864.71549 -10479956.66046  22551546.989    22551554.036
  21061250.470   -24139445.58549 -18626356.95947  21061249.730    21061256.675
  22127148.088   -17771469.28649 -13825599.33447  22127147.624    22127153.160
 03  4 13  0 46  0.0000000  0  9G21G14G 9G 3G17G31G23G15G18
  23528814.814   -11686071.78749  -8705537.00445  23528814.251    23528821.622
  20281824.052   -26398877.22349 -20551326.79848  20281823.516    20281828.394
  23631278.164    -6456075.51749  -5023185.68045  23631277.877    23631285.661
  22158262.115   -17466923.41349 -13384039.13047  22158261.715    22158268.873
  23806664.813    -9252786.70449  -7009568.86245  23806664.239    23806674.253
  22396765.445   -11807355.75849  -9186443.55346  22396764.892    22396771.699
  22561401.016   -13417085.01549 -10439608.86346  22561400.377    22561407.371
  21072762.965   -24078947.08349 -18579215.31447  21072762.220    21072769.185
  22138360.340   -17712548.71549 -13779687.22746  22138359.842    22138365.398
 03  4 13  0 46 30.0000000  0  9G21G14G 9G 3G17G31G23G15G18
  23546988.323   -11590569.68849  -8631119.90445  23546987.769    23546995.254
  20277914.166   -26419423.79249 -20567337.09548  20277913.642    20277918.500
  23638070.161    -6420383.53049  -4995373.75445  23638069.835    23638077.683
  22167354.893   -17419140.64149 -13346805.83847  22167354.500    22167361.661
  23824920.936    -9156850.48549  -6934813.52345  23824920.330    23824930.509
  22397149.761   -11805336.48049  -9184870.10846  22397149.166    22397155.979
  22571264.708   -13365250.80549 -10399218.59746  22571264.109    22571271.101
  21084352.994   -24018041.26549 -18531756.26947  21084352.237    21084359.226
  22149593.495   -17653518.37249 -13733689.58946  22149592.966    22149598.562
 03  4 13  0 47  0.0000000  0  9G21G14G 9G 3G17G31G23G15G18
  23565205.562   -11494837.98749  -8556523.88945  23565204.948    23565212.482
  20274105.641   -26439437.54649 -20582932.21348  20274105.119    20274109.969
  23644971.989    -6384114.05649  -4967111.83545  23644971.676    23644979.531
  22176532.071   -17370914.34749 -13309226.94947  22176531.687    22176538.836
  23843221.820    -9060679.60449  -6859875.30345  23843221.162    23843231.354
  22397642.407   -11802747.60949  -9182852.81946  22397641.825    22397648.640
  22581139.031   -13313361.49449 -10358785.39446  22581138.373    22581145.364
  21096020.496   -23956728.14749 -18483979.85547  21096019.749    21096026.742
  22160847.532   -17594377.95249 -13687606.16946  22160847.025    22160852.619
 03  4 13  0 47 30.0000000  0  9G21G14G 9G 3G17G31G23G15G18
  23583466.150   -11398878.42049  -8481750.33445  23583465.606    23583473.021
  20270398.358   -26458919.37949 -20598112.84448  20270397.836    20270402.678
  23651983.533    -6347268.10849  -4938400.69445  23651983.163    23651990.999
  22185793.180   -17322247.02149 -13271304.39247  22185792.785    22185799.967
  23861566.946    -8964275.82649  -6784755.64645  23861566.092    23861576.554
  22398243.138   -11799590.24149  -9180392.54346  22398242.659    22398249.478
  22591023.679   -13261417.61949 -10318309.67846  22591023.000    22591029.968
  21107765.368   -23895008.73649 -18435886.84347  21107764.599    21107771.607
  22172122.438   -17535128.28449 -13641437.62946  22172121.879    22172127.494
 03  4 13  0 48  0.0000000  0  9G21G14G 9G 3G17G31G23G15G18
  23601769.926   -11302691.98149  -8406799.97645  23601769.256    23601776.864
  20266792.410   -26477868.80949 -20612878.61348  20266791.892    20266796.743
  23659104.769    -6309846.06549  -4909240.67045  23659104.323    23659112.180
  22195137.894   -17273140.30749 -13233039.45747  22195137.506    22195144.694
  23879956.215    -8867640.26749  -6709455.35145  23879955.530    23879965.904
  22398952.091   -11795864.51349  -9177489.39046  22398951.668    22398958.495
  22600918.707   -13209418.88649 -10277791.21946  22600918.030    22600925.019
  21119587.467   -23832883.15649 -18387477.33347  21119586.714    21119593.738
  22183418.052   -17475769.54849 -13595184.09646  22183417.490    22183423.130
 03  4 13  0 48 30.0000000  0  9G21G14G 9G 3G17G31G23G15G18
  23620116.569   -11206280.27649  -8331674.09245  23620115.854    23620123.543
  20263287.622   -26496286.54449 -20627230.08048  20263287.108    20263291.935
  23666335.210    -6271849.39949  -4879632.88445  23666334.917    23666342.763
  22204565.719   -17223596.94249 -13194434.27847  22204565.329    22204572.537
  23898389.340    -8770773.94049  -6633975.23345  23898388.670    23898399.072
  22399769.037   -11791571.53849  -9174144.23346  22399768.583    22399775.426
  22610824.116   -13157365.81449 -10237230.41346  22610823.432    22610830.429
  21131486.747   -23770352.30149 -18338752.02647  21131485.986    21131493.024
  22194734.276   -17416302.12549 -13548845.88046  22194733.766    22194739.421
 03  4 13  0 49  0.0000000  0  9G21G14G 9G 3G17G31G23G15G18
  23638505.842   -11109644.42249  -8256373.55145  23638505.183    23638512.907
  20259883.964   -26514172.80249 -20641167.40848  20259883.435    20259888.268
  23673674.995    -6233278.98949  -4849578.02145  23673674.606    23673682.383
  22214076.228   -17173618.95849 -13155490.43447  22214075.855    22214083.089
  23916866.107    -8673678.64249  -6558316.72345  23916865.378    23916875.838
  22400693.893   -11786711.70049  -9170357.36746  22400693.403    22400700.264
  22620739.804   -13105258.32049 -10196627.20146  22620739.188    22620746.178
  21143462.984   -23707416.72249 -18289711.34547  21143462.226    21143469.273
  22206071.143   -17356726.34349 -13502423.21646  22206070.667    22206076.305
 03  4 13  0 49 30.0000000  0  9G21G14G 9G 3G17G31G23G15G18
  23656937.479   -11012786.01849  -8180899.60245  23656936.833    23656944.610
  20256581.306   -26531528.24049 -20654691.10848  20256580.781    20256585.614
  23681123.539    -6194136.40049  -4819077.30345  23681123.190    23681131.049
  22223668.946   -17123209.12749 -13116210.09147  22223668.554    22223675.813
  23935386.156    -8576355.76549  -6482480.87145  23935385.507    23935395.977
  22401726.412   -11781286.25849  -9166129.77346  22401725.848    22401732.712
  22630665.765   -13053096.88949 -10155981.95446  22630665.196    22630672.213
  21155516.045   -23644077.64449 -18240356.25547  21155515.282    21155522.347
  22217428.555   -17297042.97649 -13455916.72646  22217428.065    22217433.720
 03  4 13  0 50  0.0000000  0  9G21G14G 9G 3G17G31G23G15G18
  23675411.252   -10915706.24949  -8105253.14245  23675410.634    23675418.393
  20253379.746   -26548352.61149 -20667800.99148  20253379.217    20253384.046
  23688680.929    -6154422.04649  -4788131.06045  23688680.568    23688688.533
  22233343.419   -17072369.48949 -13076594.83047  22233343.027    22233350.333
  23953949.405    -8478806.00349  -6406468.21145  23953948.686    23953959.190
  22402866.416   -11775295.52349  -9161461.68746  22402865.839    22402872.710
  22640602.048   -13000881.32449 -10115294.52546  22640601.518    22640608.525
  21167645.875   -23580335.21649 -18190686.86947  21167645.114    21167652.192
  22228806.476   -17237251.82349 -13409326.24746  22228805.978    22228811.627
 03  4 13  0 50 30.0000000  0  9G21G14G 9G 3G17G31G23G15G18
  23693926.818   -10818406.45349  -8029435.26545  23693926.136    23693934.050
  20250279.112   -26564646.41249 -20680497.44548  20250278.584    20250283.408
  23696346.997    -6114137.00249  -4756740.11945  23696346.661    23696354.503
  22243099.265   -17021102.26649 -13036646.38847  22243098.883    22243106.194
  23972555.617    -8381030.48749  -6330279.64845  23972554.846    23972565.339
  22404113.872   -11768740.31049  -9156353.74646  22404113.295    22404120.162
  22650548.683   -12948611.71149 -10074564.99046  22650548.072    22650555.127
  21179852.336   -23516190.00249 -18140703.61847  21179851.564    21179858.658
  22240204.744   -17177353.68149 -13362652.39446  22240204.217    22240209.878
 03  4 13  0 51  0.0000000  0  9G21G14G 9G 3G17G31G23G15G18
  23712484.063   -10720888.16349  -7953447.11845  23712483.350    23712491.322
  20247279.322   -26580410.45649 -20692781.10148  20247278.791    20247283.590
  23704121.205    -6073282.80149  -4724905.70145  23704120.988    23704128.813
  22252936.035   -16969409.90549 -12996366.66946  22252935.653    22252942.962
  23991204.360    -8283031.44149  -6253916.89745  23991203.586    23991214.232
  22405468.465   -11761621.73549  -9150806.82046  22405467.907    22405474.774
  22660505.546   -12896288.52249 -10033793.69646  22660504.889    22660511.952
  21192135.206   -23451643.10349 -18090407.37247  21192134.441    21192141.537
  22251623.307   -17117349.06349 -13315895.58046  22251622.752    22251628.416
 03  4 13  0 51 30.0000000  0  9G21G14G 9G 3G17G31G23G15G18
  23731082.645   -10623152.28149  -7877289.42545  23731081.973    23731089.951
  20244380.388   -26595644.32649 -20704651.63348  20244379.847    20244384.662
  23712003.849    -6031859.80749  -4692628.03645  23712003.492    23712011.422
  22262853.348   -16917294.27049 -12955757.13446  22262852.957    22262860.264
  24009895.435    -8184809.58149  -6177380.52945  24009894.745    24009905.377
  22406930.234   -11753940.04049  -9144821.10046  22406929.676    22406936.532
  22670472.680   -12843911.17149  -9992980.21046  22670471.958    22670479.052
  21204494.476   -23386694.79749 -18039798.34347  21204493.724    21204500.822
  22263062.149   -17057237.56249 -13269055.47746  22263061.613    22263067.295
 03  4 13  0 52  0.0000000  0  9G21G14G 9G 3G17G31G23G15G18
  23749722.390   -10525200.49949  -7800963.47845  23749721.720    23749729.642
  20241582.195   -26610349.02149 -20716109.82348  20241581.655    20241586.455
  23719994.230    -5989869.67249  -4659908.46945  23719993.919    23720001.844
  22272850.567   -16864758.58049 -12914820.27246  22272850.196    22272857.510
  24028628.634    -8086366.45749  -6100671.78245  24028627.837    24028638.558
  22408498.987   -11745696.63049  -9138397.68446  22408498.369    22408505.252
  22680449.972   -12791480.29449  -9952124.99846  22680449.221    22680456.368
  21216929.993   -23321345.92249 -17988877.18247  21216929.246    21216936.358
  22274521.164   -16997020.04949 -13222132.76746  22274520.630    22274526.316
 03  4 13  0 52 30.0000000  0  9G21G14G 9G 3G17G31G23G15G18
  23768402.955   -10427034.01549  -7724470.23445  23768402.317    23768410.199
  20238884.678   -26624524.53749 -20727155.66348  20238884.142    20238888.936
  23728092.523    -5947313.39749  -4626747.74745  23728092.134    23728100.035
  22282927.373   -16811804.80449 -12873557.63446  22282927.001    22282934.317
  24047403.769    -7987703.03149  -6023791.31845  24047402.929    24047413.760
  22410174.428   -11736891.90249  -9131536.86846  22410173.840    22410180.720
  22690437.511   -12738995.47249  -9911227.75446  22690436.797    22690443.936
  21229441.618   -23255597.10249 -17937644.37747  21229440.864    21229447.986
  22286000.361   -16936696.42649 -13175127.37046  22285999.873    22286005.537
 03  4 13  0 53  0.0000000  0  9G21G14G 9G 3G17G31G23G15G18
  23787124.115   -10328654.11449  -7647810.73045  23787123.437    23787131.384
  20236287.743   -26638171.30549 -20737789.49448  20236287.210    20236291.997
  23736298.226    -5904191.91649  -4593146.61845  23736297.853    23736305.718
  22293083.336   -16758435.05249 -12831970.86446  22293082.960    22293090.282
  24066220.594    -7888820.82349  -5946740.40645  24066219.843    24066230.497
  22411956.545   -11727526.67449  -9124239.29146  22411956.006    22411962.883
  22700435.267   -12686456.69349  -9870288.47446  22700434.596    22700441.758
  21242029.178   -23189449.02649 -17886100.47047  21242028.430    21242035.543
  22297499.696   -16876267.21549 -13128039.70346  22297499.212    22297504.863
 03  4 13  0 53 30.0000000  0  9G21G14G 9G 3G17G31G23G15G18
  23805885.557   -10230062.67149  -7570986.34845  23805884.859    23805892.792
  20233791.278   -26651290.27049 -20748012.04848  20233790.768    20233795.532
  23744611.242    -5860506.98949  -4559106.41145  23744610.918    23744618.658
  22303317.869   -16704652.34149 -12790062.29946  22303317.495    22303324.839
  24085078.687    -7789721.47049  -5869520.29345  24085077.957    24085088.706
  22413845.141   -11717602.36849  -9116506.08046  22413844.539    22413851.433
  22710443.253   -12633864.44049  -9829307.51746  22710442.597    22710449.768
  21254692.525   -23122903.00149 -17834246.46147  21254691.763    21254698.911
  22309018.990   -16815732.94949 -13080870.16146  22309018.518    22309024.190
 03  4 13  0 54  0.0000000  0  9G21G14G 9G 3G17G31G23G15G18
  23824687.046   -10131260.67149  -7493997.90545  23824686.391    23824694.313
  20231395.260   -26663881.43449 -20757823.33048  20231394.737    20231399.502
  23753031.334    -5816259.31749  -4524627.71245  23753030.939    23753038.765
  22313630.663   -16650458.50449 -12747833.38046  22313630.285    22313637.622
  24103978.022    -7690405.47549  -5792131.35145  24103977.144    24103988.002
  22415839.938   -11707119.48249  -9108337.60846  22415839.397    22415846.283
  22720461.430   -12581218.40549  -9788284.65046  22720460.802    22720467.975
  21267431.520   -23055959.19349 -17782082.49547  21267430.784    21267437.923
  22320558.320   -16755093.68849 -13033618.82346  22320557.810    22320563.470
 03  4 13  0 54 30.0000000  0 10G21G14G 9G25G 3G17G31G23G15G18
  23843528.382   -10032249.32849  -7416846.33545  23843527.730    23843535.682
  20229099.568   -26675945.23949 -20767223.68148  20229099.056    20229103.825
  23761558.153    -5771450.10049  -4489711.45445  23761557.876    23761565.657
  24540831.150    -5137537.05449  -3987087.63045  24540831.057    24540842.866
  22324021.164   -16595856.06349 -12705286.06846  22324020.762    22324028.153
  24122918.076    -7590875.00949  -5714575.32845  24122917.262    24122928.144
  22417940.809   -11696078.95949  -9099734.61346  22417940.343    22417947.237
  22730489.844   -12528518.65849  -9747219.94446  22730489.229    22730496.406
  21280246.082   -22988618.38249 -17729609.17147  21280245.323    21280252.485
  22332117.551   -16694349.59649 -12986285.78546  22332117.027    22332122.692
 03  4 13  0 55  0.0000000  0 10G21G14G 9G25G 3G17G31G23G15G18
  23862408.054    -9933036.49249  -7339537.76445  23862407.419    23862415.447
  20226902.913   -26687488.61549 -20776218.50248  20226902.407    20226907.188
  23770190.601    -5726086.85549  -4454363.47945  23770190.250    23770197.998
  24522157.269    -5235667.77049  -4063552.84645  24522157.034    24522168.889
  22334487.739   -16540854.03649 -12662427.39446  22334487.356    22334494.757
  24141897.583    -7491137.61649  -5636858.01545  24141896.912    24141907.759
  22420146.467   -11684488.27349  -9090702.92146  22420145.976    22420152.876
  22740527.354   -12475771.54249  -9706118.32146  22740526.701    22740533.865
  21293134.800   -22920887.90249 -17676832.21847  21293134.050    21293141.202
  22343695.461   -16633507.37149 -12938876.29446  22343694.962    22343700.639
 03  4 13  0 55 30.0000000  0 10G21G14G 9G25G 3G17G31G23G15G18
  23881327.512    -9833614.67849  -7262066.32745  23881326.882    23881334.928
  20224806.929   -26698503.13649 -20784801.23048  20224806.408    20224811.180
  23778929.757    -5680162.06149  -4418577.95245  23778929.450    23778937.192
  24503473.192    -5333852.60549  -4140060.25245  24503472.890    24503484.502
  22345031.624   -16485445.75849 -12619252.15146  22345031.246    22345038.620
  24160917.890    -7391185.89549  -5558973.70145  24160917.115    24160928.210
  22422458.384   -11672339.35749  -9081236.24246  22422457.845    22422464.763
  22750575.556   -12422968.10349  -9664972.79646  22750574.864    22750582.057
  21306099.210   -22852759.64549 -17623745.30147  21306098.445    21306105.630
  22355293.671   -16572558.39349 -12891383.60946  22355293.183    22355298.885
 03  4 13  0 56  0.0000000  0 10G21G14G 9G25G 3G17G31G23G15G18
  23900286.254    -9733986.35949  -7184434.02945  23900285.496    23900293.781
  20222811.231   -26708990.45849 -20792973.15448  20222810.709    20222815.488
  23787775.397    -5633678.16149  -4382356.73845  23787775.145    23787782.841
  24484778.963    -5432089.86349  -4216608.51345  24484778.701    24484790.321
  22355652.103   -16429634.75549 -12575763.10246  22355651.724    22355659.147
  24179978.601    -7291021.82949  -5480923.93445  24179977.700    24179988.972
  22424876.054   -11659634.41749  -9071336.30446  22424875.532    22424882.425
  22760634.214   -12370109.46949  -9623784.26246  22760633.541    22760640.755
  21319138.960   -22784235.32649 -17570349.76147  21319138.208    21319145.380
  22366911.971   -16511504.07349 -12843808.83946  22366911.450    22366917.172
 03  4 13  0 56 30.0000000  0 10G21G14G 9G25G 3G17G31G23G15G18
  23919283.848    -9634153.78849  -7106642.50945  23919283.203    23919291.310
  20220915.584   -26718952.07849 -20800735.44148  20220915.062    20220919.825
  23796726.966    -5586637.47849  -4345701.66545  23796726.569    23796734.350
  24466075.192    -5530377.89749  -4293196.33545  24466074.890    24466086.404
  22366348.659   -16373424.22649 -12531962.72746  22366348.300    22366355.717
  24199079.113    -7190648.12349  -5402710.82045  24199078.186    24199089.502
  22427399.249   -11646375.23249  -9061004.48246  22427398.715    22427405.621
  22770703.208   -12317196.36449  -9582553.30246  22770702.571    22770709.803
  21332253.827   -22715316.49449 -17516646.81347  21332253.059    21332260.264
  22378550.057   -16450345.50349 -12796152.84146  22378549.562    22378555.280
 03  4 13  0 57  0.0000000  0 10G21G14G 9G25G 3G17G31G23G15G18
  23938320.014    -9534118.58849  -7028693.13145  23938319.346    23938327.425
  20219119.857   -26728388.71449 -20808088.65148  20219119.345    20219124.097
  23805784.170    -5539041.45649  -4308613.86545  23805783.858    23805791.608
  24447362.166    -5628714.29449  -4369821.84445  24447361.903    24447373.249
  22377120.725   -16316816.85349 -12487853.12946  22377120.362    22377127.791
  24218219.341    -7090066.00949  -5324335.33245  24218218.446    24218229.749
  22430027.536   -11632563.23049  -9050241.89646  22430027.045    22430033.947
  22780782.568   -12264229.18449  -9541280.21246  22780781.923    22780789.152
  21345443.496   -22646004.40849 -17462637.44047  21345442.737    21345449.945
  22390207.888   -16389083.22349 -12748416.02446  22390207.382    22390213.114
 03  4 13  0 57 30.0000000  0 10G21G14G 9G25G 3G17G31G23G15G18
  23957394.356    -9433882.64249  -6950587.32345  23957393.721    23957401.849
  20217423.833   -26737301.29949 -20815033.50948  20217423.309    20217428.066
  23814946.792    -5490891.87249  -4271094.72245  23814946.386    23814954.119
  24428640.278    -5727097.45949  -4446483.82145  24428640.256    24428651.191
  22387967.701   -16259815.72849 -12443436.70846  22387967.323    22387974.777
  24237399.005    -6989277.28449  -5245798.75345  24237398.257    24237409.034
  22432760.797   -11618199.93549  -9039049.73446  22432760.323    22432767.195
  22790872.155   -12211208.30849  -9499965.27346  22790871.478    22790878.710
  21358707.783   -22576300.31149 -17408322.59947  21358707.025    21358714.229
  22401885.345   -16327717.90749 -12700598.93146  22401884.858    22401890.583
 03  4 13  0 58  0.0000000  0 10G21G14G 9G25G 3G17G31G23G15G18
  23976506.707    -9333447.18749  -6872326.01145  23976506.052    23976514.043
  20215827.387   -26745690.62349 -20821570.63148  20215826.874    20215831.635
  23824214.354    -5442190.13849  -4233145.33345  23824214.030    23824221.794
  24409910.088    -5825524.00249  -4523179.54545  24409909.912    24409921.098
  22398889.128   -16202423.38249 -12398715.43946  22398888.732    22398896.206
  24256617.489    -6888283.42049  -5167102.44744  24256616.933    24256627.504
  22435598.824   -11603286.31949  -9027428.74546  22435598.269    22435605.131
  22800971.931   -12158133.66749  -9458608.42946  22800971.256    22800978.471
  21372046.523   -22506204.95849 -17353702.88547  21372045.771    21372052.995
  22413582.418   -16266249.60849 -12652701.58346  22413581.900    22413587.623
 03  4 13  0 58 30.0000000  0 10G21G14G 9G25G 3G17G31G23G15G18
  23995656.553    -9232814.48849  -6793911.05545  23995655.972    23995664.041
  20214330.291   -26753557.71849 -20827700.82248  20214329.781    20214334.538
  23833586.744    -5392938.18749  -4194767.20845  23833586.411    23833594.076
  24391172.017    -5923992.16349  -4599907.72345  24391171.804    24391182.873
  22409884.455   -16144642.82049 -12353691.66346  22409884.060    22409891.522
  24275874.809    -6787086.05149  -5088247.45744  24275874.202    24275884.778
  22438541.189   -11587824.04349  -9015380.23146  22438540.662    22438547.548
  22811081.893   -12105005.81849  -9417210.12846  22811081.197    22811088.396
  21385459.411   -22435719.89249 -17298779.50347  21385458.645    21385465.863
  22425298.896   -16204679.32049 -12604724.76846  22425298.379    22425304.108
 03  4 13  0 59  0.0000000  0  9G21G14G 9G25G 3G31G23G15G18
  24014843.550    -9131986.31149  -6715343.76145  24014842.950    24014851.197
  20212932.376   -26760903.78449 -20833425.01348  20212931.868    20212936.619
  23843063.414    -5343137.69949  -4155961.65245  23843063.041    23843070.870
  24372426.447    -6022499.89949  -4676666.77845  24372426.132    24372437.192
  22420953.048   -16086477.13149 -12308367.78446  22420952.617    22420960.084
  22441587.670   -11571814.73249  -9002905.46246  22441587.153    22441594.010
  22821201.842   -12051825.09849  -9375770.63446  22821201.171    22821208.372
  21398946.192   -22364846.51049 -17243553.53547  21398945.438    21398952.658
  22437034.640   -16143007.63549 -12556668.93646  22437034.145    22437039.879
 03  4 13  0 59 30.0000000  0  9G21G14G 9G25G 3G31G23G15G18
  24034067.575    -9030963.66849  -6636624.96245  24034066.971    24034075.278
  20211633.614   -26767728.82249 -20838743.21448  20211633.108    20211637.827
  23852644.244    -5292790.12849  -4116729.80045  23852643.998    23852651.642
  24353673.850    -6121044.32249  -4753454.38145  24353673.574    24353684.678
  22432094.568   -16027928.30249 -12262745.36646  22432094.124    22432101.615
  22444738.074   -11555259.23649  -8990005.09346  22444737.552    22444744.445
  22831331.952   -11998591.19749  -9334289.70346  22831331.318    22831338.473
  21412506.821   -22293585.03949 -17188025.16747  21412506.070    21412513.290
  22448789.760   -16081234.26849 -12508533.87546  22448789.236    22448794.980
 03  4 13  1  0  0.0000000  0  9G21G14G 9G25G 3G31G23G15G18
  24053328.634    -8929746.77549  -6557754.76445  24053327.887    24053336.291
  20210434.004   -26774032.75449 -20843655.35548  20210433.488    20210438.199
  23862329.163    -5241895.59249  -4077071.73745  23862328.824    23862336.632
  24334914.992    -6219621.62849  -4830267.63945  24334914.760    24334925.880
  22443308.686   -15968997.72949 -12216825.47046  22443308.261    22443315.757
  22447992.466   -11538157.63749  -8976679.18746  22447991.928    22447998.819
  22841472.416   -11945302.87149  -9292766.36646  22841471.748    22841478.925
  21426141.353   -22221935.33149 -17132194.27047  21426140.611    21426147.843
  22460564.375   -16019358.38749 -12460318.92846  22460563.865    22460569.601
 03  4 13  1  0 30.0000000  0  9G21G14G 9G25G 3G31G23G15G18
  24072626.129    -8828338.10749  -6478735.12545  24072625.458    24072633.793
  20209333.351   -26779816.75949 -20848162.35648  20209332.820    20209337.543
  23872117.732    -5190456.19049  -4036989.10945  23872117.467    23872125.289
  24316150.394    -6318229.74949  -4907104.91945  24316150.350    24316161.084
  22454594.863   -15909688.61149 -12170610.61346  22454594.467    22454601.976
  22451350.327   -11520511.76649  -8962929.16846  22451349.804    22451356.694
  22851623.106   -11891960.67049  -9251201.03546  22851622.451    22851629.607
  21439849.449   -22149898.95749 -17076062.08247  21439848.711    21439855.941
  22472358.297   -15957380.98049 -12412024.87346  22472357.780    22472363.520
 03  4 13  1  1  0.0000000  0  9G21G14G 9G25G 3G31G23G15G18
  24091959.894    -8726738.89249  -6399567.00745  24091959.244    24091967.458
  20208331.475   -26785081.63749 -20852264.84448  20208330.954    20208335.667
  23882009.783    -5138473.53949  -3996483.16645  23882009.459    23882017.227
  24297380.274    -6416866.00049  -4983964.09145  24297380.185    24297391.020
  22465952.618   -15850003.41849 -12124102.70946  22465952.205    22465959.730
  22454811.584   -11502322.86749  -8948756.01746  22454811.048    22454817.943
  22861784.070   -11838564.56649  -9209593.71146  22861783.427    22861790.579
  21453630.930   -22077476.98749 -17019629.42747  21453630.171    21453637.419
  22484171.465   -15895302.31449 -12363651.91646  22484170.942    22484176.766
 03  4 13  1  1 30.0000000  0  9G21G14G 9G25G 3G31G23G15G18
  24111329.626    -8624950.66849  -6320251.71045  24111328.874    24111337.360
  20207428.223   -26789828.15049 -20855963.40748  20207427.709    20207432.393
  23892004.749    -5085949.27349  -3955555.19145  23892004.399    23892012.233
  24278605.391    -6515527.97949  -5060843.33645  24278605.361    24278616.100
  22477381.404   -15789944.98249 -12077303.96846  22477380.983    22477388.511
  22458375.903   -11483592.36949  -8934160.84446  22458375.331    22458382.242
  22871955.293   -11785114.65949  -9167944.47046  22871954.635    22871961.803
  21467485.571   -22004670.56149 -16962897.19647  21467484.819    21467492.073
  22496003.882   -15833122.58149 -12315200.21146  22496003.381    22496009.204
 03  4 13  1  2  0.0000000  0  9G21G14G 9G25G 3G31G23G15G18
  24130734.979    -8522975.38049  -6240790.50945  24130734.350    24130742.713
  20206623.394   -26794057.51749 -20859258.99848  20206622.866    20206627.553
  23902102.551    -5032885.49749  -3914206.81345  23902102.429    23902110.146
  24259825.983    -6614213.54949  -5137740.93845  24259825.823    24259836.728
  22488880.617   -15729516.23249 -12030216.67446  22488880.222    22488887.774
  22462042.953   -11464321.98849  -8919144.98446  22462042.372    22462049.303
  22882136.706   -11731611.26749  -9126253.53646  22882136.027    22882143.201
  21481413.171   -21931480.78449 -16905866.24547  21481412.408    21481419.704
  22507855.369   -15770842.47149 -12266670.28846  22507854.886    22507860.701
 03  4 13  1  2 30.0000000  0  9G21G14G 9G25G 3G31G23G15G18
  24150175.816    -8420813.69649  -6161184.15745  24150175.172    24150183.612
  20205916.972   -26797769.66449 -20862151.55848  20205916.455    20205921.136
  23912302.689    -4979282.84349  -3872438.53145  23912302.488    23912310.341
  24241042.788    -6712919.20349  -5214654.18245  24241042.665    24241053.549
  22500449.968   -15668719.15949 -11982842.37146  22500449.573    22500457.109
  22465812.549   -11444512.28349  -8903708.87346  22465812.032    22465818.996
  22892328.426   -11678053.46749  -9084520.21346  22892327.741    22892334.962
  21495413.651   -21857907.90449 -16848536.78447  21495412.885    21495420.193
  22519726.182   -15708461.32449 -12218061.63446  22519725.658    22519731.497
 03  4 13  1  3  0.0000000  0  9G21G14G 9G25G 3G31G23G15G18
  24169651.615    -8318468.13149  -6081434.47045  24169651.048    24169659.417
  20205308.653   -26800966.36349 -20864642.46748  20205308.146    20205312.823
  23922605.034    -4925143.96749  -3830252.39345  23922604.835    23922612.647
  24222256.093    -6811642.95949  -5291581.55745  24222255.853    24222266.752
  22512088.743   -15607557.14849 -11935183.70846  22512088.335    22512095.871
  22469684.436   -11424165.42649  -8887854.19946  22469683.932    22469690.892
  22902530.311   -11624442.14849  -9042745.19046  22902529.638    22902536.858
  21509486.715   -21783953.74249 -16790910.21347  21509485.932    21509493.271
  22531615.963   -15645980.23849 -12169375.09746  22531615.417    22531621.274
 03  4 13  1  3 30.0000000  0 10G21G14G 9G25G 3G11G31G23G15G18
  24189161.754    -8215942.21849  -6001544.32845  24189161.162    24189169.636
  20204797.828   -26803650.70349 -20866734.13548  20204797.310    20204801.983
  23933008.650    -4870472.36349  -3787651.17845  23933008.263    23933016.345
  24203465.964    -6910384.41449  -5368522.70045  24203465.809    24203476.565
  22523796.021   -15546035.16149 -11887244.53846  22523795.611    22523803.137
  24671970.921    -4215941.16849  -2676024.40345  24671970.750    24671977.731
  22473657.889   -11403285.05949  -8871583.81046  22473657.341    22473664.314
  22912742.043   -11570779.35549  -9000930.05846  22912741.359    22912748.593
  21523631.698   -21709621.51449 -16732989.04047  21523630.930    21523638.260
  22543524.318   -15583401.62849 -12120612.58646  22543523.803    22543529.638
 03  4 13  1  4  0.0000000  0 10G21G14G 9G25G 3G11G31G23G15G18
  24208706.167    -8113236.63649  -5921514.10145  24208705.533    24208714.066
  20204384.534   -26805822.52349 -20868426.44048  20204384.006    20204388.686
  23943513.556    -4815269.09949  -3744635.65445  23943513.141    23943521.135
  24184673.227    -7009140.23749  -5445475.03245  24184673.010    24184683.704
  22535571.538   -15484154.59449 -11839025.96046  22535571.119    22535578.651
  24652875.149    -4316290.08949  -2754218.29745  24652874.940    24652881.851
  22477732.785   -11381871.52149  -8854897.95246  22477732.220    22477739.187
  22922963.717   -11517064.09549  -8959074.03746  22922963.043    22922970.261
  21537848.590   -21634911.38749 -16674773.41047  21537847.798    21537855.145
  22555451.379   -15520724.76349 -12071773.50746  22555450.826    22555456.684
 03  4 13  1  4 30.0000000  0 10G21G14G 9G25G 3G11G31G23G15G18
  24228285.010    -8010349.50749  -5841342.46145  24228284.537    24228292.879
  20204069.231   -26807479.30349 -20869717.41548  20204068.704    20204073.389
  23954119.965    -4759532.06549  -3701204.20745  23954119.687    23954127.605
  24165878.852    -7107904.23949  -5522433.74745  24165878.621    24165889.310
  22547415.409   -15421914.90549 -11790527.55346  22547414.989    22547422.519
  24633791.032    -4416578.05549  -2832364.70345  24633790.881    24633797.590
  22481909.544   -11359922.78549  -8837795.06646  22481908.928    22481915.914
  22933196.080   -11463292.77349  -8917174.34446  22933195.419    22933202.668
  21552137.873   -21559820.88149 -16616261.37847  21552137.106    21552144.434
  22567397.726   -15457946.32049 -12022855.26746  22567397.186    22567403.052
 03  4 13  1  5  0.0000000  0 10G21G14G 9G25G 3G11G31G23G15G18
  24247897.898    -7907283.24749  -5761031.28545  24247897.409    24247905.924
  20203851.567   -26808622.98749 -20870608.57848  20203851.045    20203855.724
  23964827.314    -4703264.16449  -3657359.10645  23964827.076    23964835.070
  24147083.225    -7206675.00549  -5599397.72445  24147082.942    24147093.532
  22559326.920   -15359319.59949 -11741752.03646  22559326.523    22559334.059
  24614718.648    -4516803.93149  -2910462.69645  24614718.464    24614725.300
  22486187.600   -11337441.46849  -8820277.18046  22486187.006    22486193.994
  22943438.908   -11409466.36649  -8875231.72346  22943438.228    22943445.528
  21566499.096   -21484352.30349 -16557454.74647  21566498.314    21566505.679
  22579363.162   -15395067.68149 -11973858.96046  22579362.612    22579368.498
 03  4 13  1  5 30.0000000  0 10G21G14G 9G25G 3G11G31G23G15G18
  24267544.697    -7804039.74549  -5680581.88645  24267544.089    24267552.556
  20203731.352   -26809254.77349 -20871100.86048  20203730.828    20203735.509
  23975635.387    -4646467.58749  -3613102.02745  23975635.272    23975643.101
  24128286.680    -7305450.49549  -5676365.40745  24128286.355    24128296.977
  22571305.515   -15296371.92049 -11692701.95346  22571305.120    22571312.674
  24595658.382    -4616966.04449  -2988510.98345  24595658.270    24595665.028
  22490566.699   -11314429.31749  -8802345.65446  22490566.105    22490573.090
  22953692.197   -11355585.15049  -8833246.38846  22953691.520    22953698.866
  21580932.034   -21408506.95649 -16498354.51947  21580931.272    21580938.635
  22591347.564   -15332089.39449 -11924785.00846  22591346.966    22591352.857
 03  4 13  1  6  0.0000000  0 10G21G14G 9G25G 3G11G31G23G15G18
  24287224.827    -7700620.63349  -5599995.71245  24287224.373    24287232.753
  20203708.331   -26809375.57249 -20871194.97248  20203707.814    20203712.486
  23986543.725    -4589144.12049  -3568434.41345  23986543.392    23986551.416
  24109489.890    -7404227.68049  -5753334.41945  24109489.548    24109500.243
  22583350.637   -15233074.48149 -11643379.31146  22583350.242    22583357.836
  24576610.600    -4717062.37249  -3066508.01345  24576610.567    24576617.260
  22495046.548   -11290887.71849  -8784001.57146  22495045.954    22495052.918
  22963955.901   -11301649.04449  -8791218.29246  22963955.235    22963962.567
  21595436.455   -21332285.86349 -16438961.51247  21595435.681    21595443.089
  22603350.932   -15269011.45949 -11875633.39746  22603350.376    22603356.267
 03  4 13  1  6 30.0000000  0 10G21G14G 9G25G 3G11G31G23G15G18
  24306937.919    -7597027.79649  -5519274.19145  24306937.338    24306945.818
  20203782.327   -26808986.62549 -20870891.88648  20203781.803    20203786.478
  23997551.903    -4531295.65049  -3523357.70045  23997551.620    23997559.558
  24090693.127    -7503004.27149  -5830302.98345  24090692.782    24090703.352
  22595461.728   -15169430.33749 -11593786.52046  22595461.367    22595468.970
  24557575.599    -4817091.47549  -3144452.64845  24557575.455    24557582.292
  22499626.815   -11266818.65049  -8765246.47746  22499626.183    22499633.143
  22974229.952   -11247658.36049  -8749147.65546  22974229.322    22974236.680
  21610012.128   -21255690.33749 -16379276.73447  21610011.370    21610018.784
  22615373.082   -15205834.52149 -11826404.65346  22615372.583    22615378.443
 03  4 13  1  7  0.0000000  0 10G21G14G 9G25G 3G11G31G23G15G18
  24326683.913    -7493262.70149  -5438418.43245  24326683.248    24326691.930
  20203953.107   -26808089.20049 -20870192.58148  20203952.575    20203957.250
  24008659.647    -4472924.33149  -3477873.57345  24008659.321    24008667.433
  24071897.027    -7601777.68549  -5907269.07045  24071896.743    24071907.175
  22607638.312   -15105442.19849 -11543925.68546  22607637.938    22607645.538
  24538553.806    -4917051.16549  -3222343.20045  24538553.564    24538560.465
  22504307.075   -11242223.83149  -8746081.69746  22504306.433    22504313.391
  22984514.435   -11193613.04549  -8707034.45446  22984513.862    22984521.224
  21624658.856   -21178721.51949 -16319301.08047  21624658.091    21624665.527
  22627413.993   -15142559.15149 -11777099.20546  22627413.507    22627419.402
 03  4 13  1  7 30.0000000  0 10G21G14G 9G25G 3G11G31G23G15G18
  24346462.263    -7389327.10049  -5357429.76745  24346461.635    24346470.312
  20204220.505   -26806683.94849 -20869097.57148  20204219.990    20204224.652
  24019866.428    -4414031.73649  -3431983.23845  24019866.153    24019874.263
  24053102.048    -7700544.92849  -5984230.33945  24053101.763    24053112.151
  22619879.851   -15041112.68049 -11493798.82846  22619879.493    22619887.079
  24519545.514    -5016940.17149  -3300178.67745  24519545.273    24519552.223
  22509087.116   -11217104.56649  -8726508.27146  22509086.484    22509093.451
  22994809.393   -11139512.80949  -8664878.44946  22994808.795    22994816.181
  21639376.398   -21101380.46949 -16259035.38247  21639375.642    21639383.063
  22639473.793   -15079184.79549 -11727716.62146  22639473.278    22639479.162
 03  4 13  1  8  0.0000000  0 10G21G14G 9G25G 3G11G31G23G15G18
  24366272.816    -7285222.57649  -5276309.52945  24366272.230    24366280.918
  20204584.321   -26804772.06549 -20867607.78648  20204583.808    20204588.457
  24031172.210    -4354619.89649  -3385688.33445  24031171.796    24031180.065
  24034308.699    -7799303.68749  -6061184.98245  24034308.456    24034318.850
  22632185.768   -14976444.76049 -11443408.30046  22632185.394    22632193.008
  24500551.156    -5116756.00449  -3377957.17245  24500550.823    24500557.642
  22513966.589   -11191462.57349  -8706527.52646  22513965.996    22513972.992
  23005114.800   -11085357.66649  -8622679.66946  23005114.210    23005121.559
  21654164.525   -21023668.65249 -16198480.77347  21654163.744    21654171.192
  22651552.296   -15015711.99849 -11678257.31946  22651551.787    22651557.648
 03  4 13  1  8 30.0000000  0 10G21G14G 9G25G 3G11G31G23G15G18
  24386115.083    -7180950.78249  -5195058.93045  24386114.512    24386123.273
  20205044.323   -26802354.69349 -20865724.11548  20205043.809    20205048.448
  24042576.341    -4294690.70649  -3338990.25245  24042576.111    24042583.900
  24015517.420    -7898051.39449  -6138131.07145  24015517.343    24015527.476
  22644555.627   -14911440.98449 -11392756.07246  22644555.231    22644562.865
  24481571.038    -5216496.90949  -3455677.29545  24481570.732    24481577.403
  22518945.188   -11165299.71949  -8686140.91346  22518944.649    22518951.614
  23015430.665   -11031147.58449  -8580438.06846  23015430.059    23015437.443
  21669022.920   -20945587.32149 -16137638.22847  21669022.148    21669029.601
  22663649.424   -14952141.13249 -11628721.62846  22663648.962    22663654.844
 03  4 13  1  9  0.0000000  0 10G21G14G 9G25G 3G11G31G23G15G18
  24405989.156    -7076513.19749  -5113679.11845  24405988.616    24405997.343
  20205600.281   -26799432.92849 -20863447.40948  20205599.764    20205604.410
  24054078.578    -4234246.03749  -3291890.53645  24054078.318    24054086.330
  23996728.817    -7996785.30849  -6215066.38945  23996728.650    23996738.758
  22656988.856   -14846104.11749 -11341844.27546  22656988.453    22656996.117
  24462605.541    -5316161.04149  -3533337.59345  24462605.341    24462611.702
  22524022.716   -11138617.30449  -8665349.44346  22524022.184    22524029.130
  23025756.987   -10976882.37349  -8538153.52246  23025756.400    23025763.770
  21683951.462   -20867137.50549 -16076508.55047  21683950.703    21683958.155
  22675765.268   -14888472.15749 -11579109.46046  22675764.775    22675770.668
 03  4 13  1  9 30.0000000  0 10G21G14G 9G25G 3G11G31G23G15G18
  24425894.165    -6971911.69049  -5032171.56945  24425893.794    24425902.238
  20206252.057   -26796007.90449 -20860778.54748  20206251.533    20206256.185
  24065678.567    -4173287.96149  -3244390.75745  24065678.288    24065686.246
  23977943.363    -8095502.91949  -6291989.01245  23977943.208    23977953.209
  22669484.933   -14780436.96049 -11290675.11846  22669484.543    22669492.223
  24443654.978    -5415746.43549  -3610936.52845  24443654.660    24443661.127
  22529198.732   -11111417.30149  -8644154.66046  22529198.201    22529205.145
  23036093.826   -10922562.12949  -8495826.08646  23036093.245    23036100.644
  21698949.879   -20788320.49649 -16015092.74447  21698949.120    21698956.583
  22687899.660   -14824705.42749 -11529421.13446  22687899.204    22687905.094
 03  4 13  1 10  0.0000000  0 10G21G14G 9G25G 3G11G31G23G15G18
  24445830.177    -6867147.40949  -4950537.34545  24445829.465    24445838.741
  20206999.415   -26792080.39349 -20857718.14348  20206998.896    20207003.531
  24077375.927    -4111818.03149  -3196492.12645  24077375.649    24077383.549
  23959161.470    -8194201.28549  -6368896.61345  23959161.456    23959171.437
  22682043.280   -14714442.48049 -11239250.90146  22682042.898    22682050.581
  24424719.892    -5515250.74749  -3688472.30145  24424719.618    24424725.928
  22534472.944   -11083701.12349  -8622557.66146  22534472.429    22534479.386
  23046441.193   -10868186.46849  -8453455.47746  23046440.611    23046447.996
  21714018.031   -20709137.11149 -15953391.45347  21714017.259    21714024.738
  22700052.683   -14760841.01449 -11479656.69146  22700052.191    22700058.099
 03  4 13  1 10 30.0000000  0 10G21G14G 9G25G 3G11G31G23G15G18
  24465796.975    -6762222.19449  -4868777.39645  24465796.551    24465804.941
  20207842.224   -26787651.32649 -20854266.90948  20207841.702    20207846.346
  24089170.285    -4049838.12049  -3148196.12245  24089170.004    24089178.031
  23940383.819    -8292877.85649  -6445787.23545  23940383.739    23940393.655
  22694663.403   -14648123.50449 -11187573.83446  22694663.002    22694670.704
  24405800.599    -5614671.69149  -3765943.09045  24405800.376    24405806.783
  22539845.035   -11055470.43049  -8600559.73646  22539844.520    22539851.545
  23056799.148   -10813755.31549  -8411041.61446  23056798.561    23056805.893
  21729155.650   -20629588.56249 -15891405.62047  21729154.859    21729162.380
  22712224.246   -14696879.03849 -11429816.22046  22712223.734    22712229.672
 03  4 13  1 11  0.0000000  0 10G21G14G 9G25G 3G11G31G23G15G18
  24485793.823    -6657137.18849  -4786893.34245  24485793.327    24485802.480
  20208780.267   -26782721.89149 -20850425.77848  20208779.743    20208784.383
  24101061.464    -3987350.04249  -3099504.10345  24101061.262    24101069.193
  23921610.815    -8391529.60249  -6522658.54545  23921610.823    23921620.597
  22707344.831   -14581482.34249 -11135645.71046  22707344.423    22707352.161
  24386897.486    -5714007.78349  -3843347.74845  24386897.253    24386903.723
  22545314.834   -11026726.66949  -8578162.01946  22545314.324    22545321.326
  23067167.722   -10759268.18849  -8368584.13046  23067167.102    23067174.475
  21744362.537   -20549675.89549 -15829136.05247  21744361.771    21744369.287
  22724414.418   -14632819.44449 -11379899.68146  22724413.945    22724419.827
 03  4 13  1 11 30.0000000  0 10G21G14G 9G25G 3G11G31G23G15G18
  24505821.141    -6551895.14949  -4704886.47544  24505820.514    24505829.049
  20209813.209   -26777293.72449 -20846196.02648  20209812.688    20209817.339
  24113048.748    -3924356.43449  -3050418.20445  24113048.514    24113056.498
  23902843.018    -8490154.36949  -6599508.78945  23902842.867    23902852.776
  22720086.949   -14514522.39049 -11083469.18746  22720086.531    22720094.299
  24368010.907    -5813257.19449  -3920684.86645  24368010.658    24368017.159
  22550881.836   -10997472.29649  -8555366.42046  22550881.260    22550888.276
  23077546.835   -10704725.62749  -8326083.45846  23077546.228    23077553.644
  21759638.354   -20469401.11549 -15766584.33347  21759637.606    21759645.149
  22736623.041   -14568662.95849 -11329907.63746  22736622.524    22736628.408
 03  4 13  1 12  0.0000000  0 10G21G14G 9G25G 3G11G31G23G15G18
  24525877.641    -6446496.55249  -4622758.03545  24525877.278    24525886.517
  20210940.889   -26771367.57049 -20841578.22848  20210940.387    20210945.018
  24125131.977    -3860858.83949  -3000939.56945  24125131.859    24125139.690
  23884080.960    -8588749.16449  -6676335.76145  23884080.856    23884090.432
  22732889.255   -14447245.97949 -11031046.05946  22732888.858    22732896.635
  24349141.255    -5912417.60449  -3997952.65645  24349140.981    24349147.371
  22556545.662   -10967708.65549  -8532173.98946  22556545.079    22556552.092
  23087936.639   -10650127.09549  -8283539.18546  23087936.014    23087943.413
  21774982.945   -20388764.91849 -15703750.98647  21774982.213    21774989.744
  22748850.083   -14504409.29449 -11279839.88046  22748849.619    22748855.511
 03  4 13  1 12 30.0000000  0 10G21G14G 9G25G 3G11G31G23G15G18
  24545964.192    -6340943.28648  -4540508.84644  24545963.810    24545972.931
  20212163.205   -26764944.23349 -20836573.01648  20212162.691    20212167.331
  24137310.726    -3796858.95749  -2951069.56545  24137310.498    24137318.534
  23865325.078    -8687311.20349  -6753137.16445  23865324.999    23865334.593
  22745751.319   -14379655.53749 -10978378.24246  22745750.914    22745758.691
  24330289.014    -6011486.51749  -4075149.14945  24330288.782    24330295.219
  22562306.149   -10937437.18749  -8508585.85246  22562305.601    22562312.603
  23098337.177   -10595472.08749  -8240950.89246  23098336.564    23098343.949
  21790396.095   -20307768.30749 -15640636.79847  21790395.363    21790402.910
  22761095.707   -14440058.26049 -11229696.24946  22761095.192    22761101.109
 03  4 13  1 13  0.0000000  0 10G21G14G 9G25G 3G11G31G23G15G18
  24566079.248    -6235237.35149  -4458140.69845  24566079.396    24566088.505
  20213479.803   -26758025.53549 -20831181.80648  20213479.270    20213483.919
  24149584.637    -3732359.28749  -2900810.07745  24149584.460    24149592.428
  23846575.921    -8785838.08149  -6829911.19745  23846575.729    23846585.414
  22758672.477   -14311754.61949 -10925468.50146  22758672.079    22758679.873
  24311454.484    -6110462.33549  -4152273.11545  24311454.071    24311460.488
  22568162.860   -10906660.13849  -8484603.75346  22568162.276    22568169.281
  23108748.415   -10540760.86849  -8198318.80746  23108747.777    23108755.117
  21805877.548   -20226413.01249 -15577243.11447  21805876.806    21805884.357
  22773359.706   -14375610.57349 -11179477.29846  22773359.241    22773365.152
 03  4 13  1 13 30.0000000  0  9G14G 9G25G 3G11G31G23G15G18
  20214890.525   -26750612.13749 -20825405.11648  20214890.003    20214894.631
  24161953.252    -3667361.55149  -2850162.52545  24161952.998    24161961.078
  23827834.054    -8884326.54449  -6906655.28345  23827833.854    23827843.663
  22771652.290   -14243545.51749 -10872318.60146  22771651.904    22771659.733
  24292638.056    -6209342.92749  -4229322.83245  24292637.647    24292644.035
  22574115.456   -10875379.08449  -8460228.91646  22574114.865    22574121.864
  23119170.397   -10485993.06649  -8155642.62746  23119169.792    23119177.152
  21821427.055   -20144699.99449 -15513570.68047  21821426.301    21821433.894
  22785642.128   -14311066.06849 -11129182.92246  22785641.659    22785647.553
 03  4 13  1 14  0.0000000  0  9G14G 9G25G 3G11G31G23G15G18
  20216395.151   -26742705.09949 -20819243.77048  20216394.631    20216399.256
  24174416.310    -3601867.57749  -2799128.27645  24174416.149    24174424.171
  23809100.002    -8982773.69649  -6983367.22745  23809099.884    23809109.534
  22784690.251   -14175030.77049 -10818930.55046  22784689.867    22784697.685
  24273840.180    -6308125.78349  -4306296.39845  24273839.841    24273846.207
  22580163.627   -10843595.51449  -8435462.51546  22580163.108    22580170.098
  23129603.251   -10431168.09149  -8112921.90146  23129602.649    23129610.000
  21837044.487   -20062630.18949 -15449620.24747  21837043.719    21837051.315
  22797943.063   -14246424.58749 -11078812.96546  22797942.563    22797948.478
 03  4 13  1 14 30.0000000  0  9G14G 9G25G 3G11G31G23G15G18
  20217993.358   -26734306.40449 -20812699.31648  20217992.845    20217997.470
  24186973.379    -3535880.36249  -2747709.66545  24186973.156    24186981.053
  23790374.200    -9081177.79649  -7060045.58745  23790373.987    23790383.654
  22797785.690   -14106214.19349 -10765307.29546  22797785.301    22797793.116
  24255061.178    -6406809.70549  -4383192.86945  24255060.791    24255067.259
  22586306.979   -10811312.16849  -8410306.67446  22586306.415    22586313.457
  23140046.871   -10376286.74449  -8070157.22646  23140046.250    23140053.582
  21852729.372   -19980205.74549 -15385393.46647  21852728.620    21852736.227
  22810262.216   -14181687.10349 -11028368.19346  22810261.694    22810267.627
 03  4 13  1 15  0.0000000  0  9G14G 9G25G 3G11G31G23G15G18
  20219685.005   -26725416.60449 -20805772.18348  20219684.484    20219689.112
  24199623.909    -3469401.07749  -2695907.66945  24199623.609    24199631.887
  23771657.265    -9179535.26549  -7136687.62745  23771657.084    23771666.707
  22810938.130   -14037097.79649 -10711450.41546  22810937.777    22810945.570
  24236301.465    -6505392.10449  -4460010.22745  24236301.108    24236307.546
  22592545.214   -10778530.14549  -8384762.25246  22592544.627    22592551.697
  23150501.349   -10321348.11649  -8027347.94046  23150500.741    23150508.069
  21868481.691   -19897427.01649 -15320890.61647  21868480.946    21868488.550
  22822599.785   -14116852.81549 -10977848.01546  22822599.263    22822605.213
 03  4 13  1 15 30.0000000  0  9G14G 9G25G 3G11G31G23G15G18
  20221469.724   -26716037.77249 -20798463.99048  20221469.218    20221473.850
  24212367.594    -3402432.62249  -2643724.45445  24212367.506    24212375.462
  23752949.611    -9277844.33049  -7213291.95245  23752949.366    23752958.960
  22824146.977   -13967685.09949 -10657362.66246  22824146.583    22824154.430
  24217561.453    -6603871.33849  -4536747.19845  24217561.111    24217567.612
  22598877.815   -10745252.17949  -8358831.38446  22598877.223    22598884.310
  23160966.635   -10266352.79349  -7984494.47946  23160966.047    23160973.334
  21884300.965   -19814296.32249 -15256113.50647  21884300.204    21884307.819
  22834955.583   -14051922.70649 -10927253.17446  22834955.099    22834961.025
 03  4 13  1 16  0.0000000  0  9G14G 9G25G 3G11G31G23G15G18
  20223347.406   -26706170.41749 -20790775.12848  20223346.898    20223351.527
  24225204.148    -3334976.33349  -2591161.12745  24225203.931    24225211.953
  23734251.720    -9376101.60349  -7289855.90445  23734251.499    23734261.062
  22837411.745   -13897978.41749 -10603045.81046  22837411.349    22837419.229
  24198841.535    -6702244.97749  -4613401.87245  24198841.091    24198847.648
  22605304.566   -10711479.50149  -8332515.01846  22605303.983    22605311.024
  23171442.873   -10211299.91749  -7941596.17646  23171442.274    23171449.580
  21900187.082   -19730814.49149 -15191062.78247  21900186.326    21900193.954
  22847329.710   -13986896.35149 -10876583.32746  22847329.213    22847335.161
 03  4 13  1 16 30.0000000  0  9G14G 9G25G 3G11G31G23G15G18
  20225317.733   -26695816.13549 -20782706.85048  20225317.224    20225321.855
  24238133.042    -3267034.76949  -2538219.67045  24238132.919    24238140.839
  23715564.230    -9474304.21949  -7366377.26445  23715563.977    23715573.492
  22850731.858   -13827980.80849 -10548502.28146  22850731.478    22850739.343
  24180142.086    -6800510.89049  -4689972.62645  24180141.597    24180148.198
  22611824.978   -10677214.19349  -8305814.79546  22611824.450    22611831.508
  23181930.055   -10156189.44249  -7898652.97246  23181929.474    23181936.765
  21916139.755   -19646982.76749 -15125739.40847  21916138.983    21916146.626
  22859722.135   -13921773.80249 -10825838.51046  22859721.634    22859727.592
 03  4 13  1 17  0.0000000  0  9G14G 9G25G 3G11G31G23G15G18
  20227380.566   -26684975.96349 -20774259.95548  20227380.066    20227384.672
  24251153.875    -3198610.02349  -2484901.70745  24251153.597    24251161.702
  23696887.690    -9572449.71249  -7442854.13145  23696887.467    23696896.878
  22864106.844   -13757695.11849 -10493734.27046  22864106.438    22864114.353
  24161463.515    -6898667.02849  -4766457.82545  24161463.087    24161469.651
  22618438.908   -10642458.04949  -8278732.10046  22618438.361    22618445.412
  23192428.274   -10101021.08649  -7855664.68546  23192427.676    23192435.039
  21932158.830   -19562802.22149 -15060144.22547  21932158.063    21932165.705
  22872132.819   -13856555.36249 -10775018.99246  22872132.322    22872138.276
 03  4 13  1 17 30.0000000  0  9G14G 9G25G 3G11G31G23G15G18
  20229535.545   -26673651.42249 -20765435.63048  20229535.044    20229539.663
  24264266.153    -3129704.37149  -2431208.97345  24264265.957    24264273.969
  23678222.428    -9670535.59349  -7519284.52845  23678222.178    23678231.693
  22877536.065   -13687124.24349 -10438744.02846  22877535.672    22877543.588
  24142806.207    -6996711.48349  -4842855.99645  24142805.803    24142812.344
  22625145.795   -10607213.33849  -8251268.70746  22625145.188    22625152.253
  23202937.492   -10045794.84649  -7812631.28246  23202936.881    23202944.251
  21948243.924   -19478274.56449 -14994278.56346  21948243.158    21948250.824
  22884561.775   -13791241.04249 -10724124.75446  22884561.278    22884567.240
 03  4 13  1 18  0.0000000  0  9G14G 9G25G 3G11G31G23G15G18
  20231782.478   -26661843.68149 -20756234.78748  20231781.979    20231786.569
  24277469.661    -3060319.70849  -2377143.04945  24277469.298    24277477.550
  23659569.072    -9768558.67349  -7595665.94445  23659568.840    23659578.395
  22891019.050   -13616270.86249 -10383533.65646  22891018.707    22891026.597
  24124170.588    -7094641.86749  -4919165.29545  24124170.235    24124176.751
  22631945.222   -10571481.80249  -8223425.96846  22631944.691    22631951.776
  23213457.809    -9990510.16749  -7769552.35146  23213457.218    23213464.625
  21964394.859   -19393401.02949 -14928143.38846  21964394.097    21964401.777
  22897008.993   -13725830.59949 -10673155.61346  22897008.511    22897014.458
 03  4 13  1 18 30.0000000  0  9G14G 9G25G 3G11G31G23G15G18
  20234121.090   -26649554.15549 -20746658.52648  20234120.570    20234125.177
  24290763.899    -2990458.28149  -2322705.57245  24290763.614    24290771.603
  23640928.280    -9866516.37249  -7671996.45345  23640928.048    23640937.381
  22904555.234   -13545137.83249 -10328105.37346  22904554.896    22904562.771
  24105557.075    -7192456.17749  -4995384.14745  24105556.840    24105563.171
  22638836.990   -10535265.42449  -8195205.42346  22638836.440    22638843.496
  23223989.352    -9935166.82149  -7726427.69746  23223988.727    23223996.185
  21980611.331   -19308183.08349 -14861739.84046  21980610.560    21980618.266
  22909474.463   -13660324.46649 -10622111.92546  22909473.971    22909479.931
 03  4 13  1 19  0.0000000  0  9G14G 9G25G 3G11G31G23G15G18
  20236551.157   -26636784.07349 -20736707.80948  20236550.638    20236555.244
  24304148.344    -2920122.33649  -2267898.36545  24304148.058    24304156.094
  23622300.447    -9964405.69349  -7748273.71745  23622300.312    23622309.484
  22918144.126   -13473727.90449 -10272461.32046  22918143.749    22918151.658
  24086966.117    -7290152.01349  -5071510.66845  24086965.871    24086972.262
  22645820.626   -10498566.23649  -8166608.67246  22645820.075    22645827.133
  23234532.035    -9879764.67049  -7683257.22046  23234531.439    23234538.882
  21996893.103   -19222622.06049 -14795068.95946  21996892.328    21996900.065
  22921958.068   -13594722.82749 -10570993.79546  22921957.569    22921963.548
 03  4 13  1 19 30.0000000  0  9G14G 9G25G 3G11G31G23G15G18
  20239072.367   -26623535.02049 -20726383.86348  20239071.852    20239076.436
  24317622.711    -2849314.48349  -2212723.44545  24317622.489    24317630.361
  23603686.018   -10062224.34249  -7824495.83145  23603685.779    23603695.180
  22931785.090   -13402044.30349 -10216604.02946  22931784.735    22931792.661
  24068398.049    -7387727.73549  -5147543.61145  24068397.775    24068404.230
  22652895.714   -10461386.48749  -8137637.46146  22652895.167    22652902.249
  23245085.923    -9824303.76249  -7640040.97546  23245085.242    23245092.778
  22013239.879   -19136719.37349 -14728131.84146  22013239.112    22013246.815
  22934459.807   -13529025.90849 -10519801.43446  22934459.284    22934465.301
 03  4 13  1 20  0.0000000  0  9G14G 9G25G 3G11G31G23G15G18
  20241684.465   -26609808.34549 -20715687.74548  20241683.934    20241688.545
  24331186.374    -2778036.67649  -2157182.28645  24331186.160    24331193.838
  23585085.641   -10159969.38649  -7900660.63845  23585085.427    23585094.669
  22945477.605   -13330089.90749 -10160535.73246  22945477.216    22945485.167
  24049853.238    -7485181.12949  -5223481.21645  24049852.944    24049859.355
  22660061.884   -10423728.15749  -8108293.32946  22660061.335    22660068.400
  23255651.068    -9768783.81049  -7596778.70246  23255650.408    23255657.923
  22029651.387   -19050476.46749 -14660929.62346  22029650.640    22029658.331
  22946979.731   -13463233.51649 -10468534.66946  22946979.186    22946985.187
 03  4 13  1 20 30.0000000  0  9G14G 9G25G 3G11G31G23G15G18
  20244387.234   -26595605.09449 -20704620.27048  20244386.723    20244391.311
  24344839.135    -2706290.93849  -2101276.57445  24344839.028    24344846.934
  23566499.887   -10257637.74549  -7976765.71845  23566499.682    23566508.827
  22959221.174   -13257867.15649 -10104258.31446  22959220.773    22959228.785
  24031332.190    -7582509.59549  -5299321.48845  24031331.935    24031338.259
  22667318.760   -10385593.00849  -8078577.64546  22667318.232    22667325.285
  23266227.509    -9713204.38149  -7553470.09646  23266226.836    23266234.375
  22046127.379   -18963894.66149 -14593463.32546  22046126.644    22046134.384
  22959517.866   -13397345.20849 -10417193.17246  22959517.337    22959523.358
 03  4 13  1 21  0.0000000  0  9G14G 9G25G 3G11G31G23G15G18
  20247180.370   -26580927.12949 -20693182.88748  20247179.849    20247184.447
  24358580.431    -2634079.83149  -2045008.16245  24358580.386    24358588.042
  23547929.104   -10355227.17449  -8052809.24645  23547928.918    23547937.974
  22973015.180   -13185379.48849 -10047774.47246  22973014.792    22973022.755
  24012835.215    -7679711.36349  -5375063.03945  24012834.921    24012841.269
  22674665.935   -10346983.49149  -8048492.33146  22674665.396    22674672.469
  23276815.265    -9657565.50849  -7510115.16146  23276814.517    23276822.118
  22062667.574   -18876975.50749 -14525734.16146  22062666.834    22062674.583
  22972074.100   -13331361.92149 -10365777.66346  22972073.594    22972079.572
 03  4 13  1 21 30.0000000  0  8G14G25G 3G11G31G23G15G18
  20250063.822   -26565774.45049 -20681375.59448  20250063.293    20250067.885
  23529374.121   -10452733.65049  -8128788.15045  23529373.914    23529382.997
  22986859.267   -13112628.49449  -9991085.43646  22986858.889    22986866.868
  23994363.055    -7776782.89849  -5450703.10645  23994362.789    23994369.037
  22682103.198   -10307900.49049  -8018038.07146  22682102.657    22682109.730
  23287414.630    -9601865.57749  -7466712.64646  23287413.929    23287421.499
  22079271.977   -18789719.04949 -14457742.16346  22079271.238    22079278.992
  22984648.688   -13265282.19549 -10314286.99046  22984648.140    22984654.201
 03  4 13  1 22  0.0000000  0  8G14G25G 3G11G31G23G15G18
  20253037.103   -26550149.65849 -20669200.41948  20253036.595    20253041.176
  23510835.307   -10550154.97149  -8204700.72045  23510835.097    23510844.126
  23000752.749   -13039618.03449  -9934194.22246  23000752.370    23000760.365
  23975915.837    -7873723.19349  -5526240.91645  23975915.549    23975921.848
  22689629.974   -10268347.13649  -7987217.29446  22689629.426    22689636.522
  23298025.442    -9546105.45549  -7423263.23946  23298024.723    23298032.306
  22095940.035   -18702127.91949 -14389489.37846  22095939.349    22095947.072
  22997241.390   -13199107.31349 -10262722.18646  22997240.831    22997246.916
 03  4 13  1 22 30.0000000  0  8G14G25G 3G11G31G23G15G18
  20256099.828   -26534054.90749 -20656659.04848  20256099.314    20256103.901
  23492313.031   -10647489.50849  -8280545.64645  23492312.800    23492321.795
  23014694.947   -12966351.54249  -9877103.50546  23014694.529    23014702.555
  23957493.911    -7970530.86749  -5601675.39145  23957493.652    23957499.840
  22697245.724   -10228326.16949  -7956032.16146  22697245.164    22697252.233
  23308647.665    -9490285.50349  -7379767.19546  23308646.959    23308654.513
  22112671.355   -18614204.33449 -14320977.54646  22112670.667    22112678.402
  23009852.119   -13132837.67249 -10211083.54446  23009851.571    23009857.663
 03  4 13  1 23  0.0000000  0  8G14G25G 3G11G31G23G15G18
  20259251.841   -26517490.93149 -20643752.04448  20259251.332    20259255.910
  23473807.953   -10744733.87449  -8356320.31345  23473807.652    23473816.673
  23028685.402   -12892831.52149  -9819815.22746  23028685.003    23028693.001
  23939097.724    -8067203.14749  -5677004.37345  23939097.428    23939103.664
  22704950.166   -10187839.28249  -7924483.96246  22704949.610    22704956.662
  23319281.420    -9434404.98049  -7336223.97346  23319280.718    23319288.331
  22129465.831   -18525949.15849 -14252207.33446  22129465.070    22129472.853
  23022480.856   -13066473.24649 -10159371.03646  23022480.289    23022486.414
 03  4 13  1 23 30.0000000  0  8G14G25G 3G11G31G23G15G18
  20262492.786   -26500459.57349 -20630480.85148  20262492.278    20262496.850
  23455320.532   -10841885.13549  -8432022.43845  23455320.210    23455329.163
  23042723.459   -12819061.31749  -9762332.01446  23042723.084    23042731.050
  23920727.705    -8163738.10649  -5752226.34845  23920727.325    23920733.478
  22712742.778   -10146888.85749  -7892574.56546  22712742.246    22712749.273
  23329926.706    -9378463.77149  -7292633.44746  23329926.028    23329933.565
  22146323.062   -18437364.12349 -14183180.08746  22146322.300    22146330.081
  23035127.639   -13000013.99649 -10107584.64346  23035127.133    23035133.220
 03  4 13  1 24  0.0000000  0  8G14G25G 3G11G31G23G15G18
  20265822.496   -26482961.79549 -20616846.20948  20265821.973    20265826.546
  23436851.397   -10938940.38449  -8507649.75345  23436851.076    23436860.084
  23056808.695   -12745043.14449  -9704655.56446  23056808.334    23056816.280
  23902384.284    -8260133.02149  -5827339.19345  23902383.854    23902390.028
  22720623.240   -10105476.75049  -7860305.41446  22720622.710    22720629.758
  23340583.665    -9322461.33649  -7248995.21846  23340583.020    23340590.544
  22163242.833   -18348450.31349 -14113896.64946  22163242.057    22163249.860
  23047792.551   -12933459.57749 -10055724.10546  23047792.086    23047798.136
 03  4 13  1 24 30.0000000  0  8G14G25G 3G11G31G23G15G18
  20269240.601   -26464999.44649 -20602849.56248  20269240.077    20269244.664
  23418401.017   -11035897.11449  -8583200.30945  23418400.728    23418409.613
  23070940.538   -12670779.97749  -9646788.21646  23070940.140    23070948.175
  23884067.870    -8356386.05549  -5902341.47745  23884067.404    23884073.529
  22728591.125   -10063605.28149  -7827678.32946  22728590.614    22728597.671
  23351252.287    -9266397.51249  -7205309.15646  23351251.635    23351259.179
  22180224.829   -18259209.56949 -14044358.46346  22180224.031    22180231.882
  23060475.519   -12866810.27849 -10003789.61246  23060474.996    23060481.140
 03  4 13  1 25  0.0000000  0  8G14G25G 3G11G31G23G15G18
  20272746.817   -26446574.16749 -20588492.19848  20272746.310    20272750.891
  23399969.843   -11132752.83849  -8658672.16546  23399969.578    23399978.470
  23085118.435   -12596274.97249  -9588732.43046  23085118.005    23085126.055
  23865778.890    -8452494.92049  -5977231.42945  23865778.426    23865784.612
  22736645.964   -10021276.88949  -7794695.19546  22736645.428    22736652.538
  23361932.585    -9210272.19449  -7161575.16346  23361931.971    23361939.490
  22197268.752   -18169643.29649 -13974566.61646  22197267.961    22197275.818
  23073176.489   -12800066.35149  -9951781.39446  23073175.943    23073182.104
 03  4 13  1 25 30.0000000  0  8G14G25G 3G11G31G23G15G18
  20276340.902   -26427687.05749 -20573774.96248  20276340.382    20276344.972
  23381558.550   -11229504.31349  -8734062.78446  23381558.274    23381567.122
  23099341.837   -12521530.72149  -9530490.20746  23099341.438    23099349.445
  23847517.801    -8548457.22549  -6052007.16745  23847517.388    23847523.600
  22744787.457    -9978493.28949  -7761357.35846  22744786.882    22744794.005
  23372624.752    -9154084.67249  -7117792.71346  23372624.159    23372631.637
  22214374.372   -18079752.71049 -13904522.05346  22214373.589    22214381.461
  23085895.561   -12733227.27749  -9899699.04346  23085895.047    23085901.174
 03  4 13  1 26  0.0000000  0  8G14G25G 3G11G31G23G15G18
  20280022.522   -26408339.99049 -20558699.32048  20280022.003    20280026.595
  23363167.542   -11326149.23749  -8809370.38446  23363167.247    23363175.979
  23113610.049   -12446550.81749  -9472064.36546  23113609.641    23113617.749
  23829284.988    -8644270.93149  -6126667.13945  23829284.579    23829290.656
  22753015.010    -9935257.25149  -7727666.97946  22753014.446    22753021.589
  23383328.661    -9097835.25749  -7073962.04646  23383328.129    23383335.593
  22231541.375   -17989539.89049 -13834226.40346  22231540.605    22231548.464
  23098632.626   -12666293.70049  -9847543.05746  23098632.100    23098638.254
 03  4 13  1 26 30.0000000  0  8G14G25G 3G11G31G23G15G18
  20283791.439   -26388534.21149 -20543266.24148  20283790.924    20283795.509
  23344797.473   -11422684.15249  -8884592.27446  23344797.173    23344805.898
  23127922.669   -12371337.81949  -9413456.90046  23127922.272    23127930.347
  23811080.953    -8739933.43549  -6201209.26545  23811080.592    23811086.596
  22761328.277    -9891570.54949  -7693625.42446  22761327.751    22761334.878
  23394044.565    -9041522.98649  -7030082.39146  23394044.000    23394051.513
  22248769.463   -17899005.75449 -13763680.38146  22248768.708    22248776.581
  23111387.802   -12599264.95149  -9795312.90546  23111387.310    23111393.479
 03  4 13  1 27  0.0000000  0  8G14G25G 3G11G31G23G15G18
  20287647.302   -26368271.44149 -20527477.06748  20287646.794    20287651.366
  23326448.694   -11519106.96349  -8959726.81546  23326448.436    23326457.019
  23142279.053   -12295894.78849  -9354670.18246  23142278.624    23142286.722
  23792905.976    -8835443.15249  -6275632.34645  23792905.585    23792911.614
  22769726.850    -9847435.95549  -7659234.87246  22769726.327    22769733.456
  23404772.381    -8985148.08949  -6986153.92246  23404771.814    23404779.309
  22266058.368   -17808152.07149 -13692885.36446  22266057.629    22266065.494
  23124160.961   -12532141.58749  -9743009.04046  23124160.476    23124166.680
 03  4 13  1 27 30.0000000  0  8G14G25G 3G11G31G23G15G18
  20291589.889   -26347553.03949 -20511332.85348  20291589.365    20291593.950
  23308121.862   -11615414.48649  -9034771.51846  23308121.603    23308130.213
  23156678.740   -12220224.11149  -9295706.07846  23156678.295    23156686.420
  23774760.581    -8930797.35549  -6349934.23545  23774760.196    23774766.273
  22778210.303    -9802855.37749  -7624496.79446  22778209.764    22778216.912
  23415512.229    -8928709.85949  -6942176.13546  23415511.648    23415519.164
  22283407.818   -17716980.23649 -13621842.43046  22283407.079    22283414.973
  23136952.228   -12464923.34549  -9690631.23246  23136951.692    23136957.937
 03  4 13  1 28  0.0000000  0  8G14G25G 3G11G31G23G15G18
  20295618.802   -26326380.88649 -20494835.07048  20295618.286    20295622.879
  23289817.554   -11711603.94249  -9109724.20846  23289817.275    23289825.887
  23171121.031   -12144329.44749  -9236567.44246  23171120.647    23171128.777
  23756645.144    -9025994.21549  -6424113.54245  23756644.747    23756650.852
  22786778.076    -9757831.54949  -7589413.32946  22786777.522    22786784.695
  23426264.130    -8872208.39849  -6898149.06546  23426263.536    23426271.072
  22300817.413   -17625492.20349 -13550553.11346  22300816.716    22300824.605
  23149761.465   -12397610.53149  -9638179.73646  23149760.954    23149767.170
 03  4 13  1 28 30.0000000  0  8G14G25G 3G11G31G23G15G18
  20299733.821   -26304756.42149 -20477984.83448  20299733.307    20299737.883
  23271536.249   -11807672.37749  -9184582.60746  23271535.962    23271544.502
  23185605.459   -12068213.43249  -9177256.33246  23185605.109    23185613.259
  23738560.163    -9121031.11949  -6498168.19245  23738559.857    23738565.925
  22795429.825    -9712366.40149  -7553985.97846  22795429.253    22795436.434
  23437028.153    -8815643.12049  -6854072.26946  23437027.553    23437035.141
  22318287.050   -17533689.09749 -13479018.28846  22318286.352    22318294.216
  23162588.743   -12330202.95949  -9585654.40446  23162588.214    23162594.420
 03  4 13  1 29  0.0000000  0  8G14G25G 3G11G31G23G15G18
  20303934.527   -26282681.41449 -20460783.52848  20303934.009    20303938.600
  23253278.464   -11903617.13949  -9259344.63446  23253278.241    23253286.708
  23200131.409   -11991879.09649  -9117775.10546  23200131.063    23200139.224
  23720505.983    -9215906.28449  -6572096.82345  23720505.646    23720511.679
  22804165.044    -9666462.65949  -7518216.86846  22804164.476    22804171.653
  23447804.301    -8759014.23749  -6809945.90846  23447803.703    23447811.313
  22335816.218   -17441572.90449 -13407239.49046  22335815.477    22335823.415
  23175433.986   -12262700.94849  -9533055.47646  23175433.431    23175439.685
 03  4 13  1 29 30.0000000  0  8G14G25G 3G11G31G23G15G18
  20308220.758   -26260157.00449 -20443232.03748  20308220.232    20308224.841
  23235044.716   -11999435.44149  -9334008.13446  23235044.514    23235052.908
  23214698.500   -11915328.76049  -9058125.56046  23214698.149    23214706.311
  23702483.147    -9310616.64249  -6645897.02645  23702482.832    23702488.803
  22812983.398    -9620122.01549  -7482107.31446  22812982.860    22812989.994
  23458592.770    -8702320.71549  -6765769.18946  23458592.125    23458599.773
  22353404.768   -17349144.68749 -13335217.55746  22353404.040    22353411.971
  23188297.306   -12195103.93649  -9480382.52046  23188296.776    23188302.996
 03  4 13  1 30  0.0000000  0  8G14G25G 3G11G31G23G15G18
  20312592.030   -26237185.78349 -20425332.38148  20312591.516    20312596.137
  23216835.494   -12095125.08149  -9408571.36046  23216835.230    23216843.649
  23229305.889   -11838566.66949  -8998311.00346  23229305.506    23229313.678
  23684491.906    -9405161.06649  -6719567.95745  23684491.557    23684497.531
  22821884.260    -9573347.97849  -7445660.05846  22821883.669    22821890.842
  23469393.340    -8645563.35049  -6721542.72446  23469392.718    23469400.378
  22371052.183   -17256407.05849 -13262954.53146  22371051.474    22371059.415
  23201178.469   -12127413.06249  -9427636.45246  23201177.948    23201184.152
 03  4 13  1 30 30.0000000  0  8G14G25G 3G11G31G23G15G18
  20317048.228   -26213768.24249 -20407084.94548  20317047.721    20317052.333
  23198651.510   -12190682.09149  -9483031.23646  23198651.218    23198659.584
  23243953.249   -11761594.59249  -8938332.82246  23243952.836    23243961.049
  23666532.840    -9499536.32949  -6793107.05745  23666532.490    23666538.457
  22830867.316    -9526141.78849  -7408876.04946  22830866.750    22830873.932
  23480206.372    -8588740.62949  -6677265.33246  23480205.772    23480213.399
  22388758.390   -17163360.50149 -13190450.78046  22388757.656    22388765.667
  23214077.744   -12059627.13049  -9374816.30046  23214077.208    23214083.449
 03  4 13  1 31  0.0000000  0  8G14G25G 3G11G31G23G15G18
  20321588.984   -26189906.36849 -20388491.27248  20321588.467    20321593.093
  23180493.202   -12286104.16749  -9557385.98046  23180492.929    23180501.263
  23258639.969   -11684415.74749  -8878193.52846  23258639.569    23258647.801
  23648606.391    -9593740.35249  -6866512.73445  23648606.080    23648612.019
  22839932.080    -9478506.16449  -7371757.42146  22839931.494    22839938.755
  23491031.837    -8531852.70149  -6632937.12146  23491031.198    23491038.868
  22406523.042   -17070006.95549 -13117707.80746  22406522.307    22406530.289
  23226995.012   -11991746.37249  -9321922.24646  23226994.507    23227000.736
 03  4 13  1 31 30.0000000  0  8G14G25G 3G11G31G23G15G18
  20326213.909   -26165602.15549 -20369552.91948  20326213.395    20326218.024
  23162360.986   -12381389.03849  -9631633.80646  23162360.701    23162369.051
  23273365.356   -11607033.45749  -8817895.70946  23273364.945    23273373.225
  23630712.902    -9687771.13949  -6939783.42645  23630712.608    23630718.520
  22849078.054    -9430443.90949  -7334306.34946  22849077.483    22849084.716
  23501869.740    -8474899.29949  -6588557.90546  23501869.124    23501876.779
  22424345.709   -16976348.46249 -13044727.22046  22424344.959    22424352.956
  23239930.319   -11923771.12949  -9268954.56946  23239929.831    23239936.055
 03  4 13  1 32  0.0000000  0  8G14G25G 3G11G31G23G15G18
  20330922.714   -26140857.23849 -20350271.16148  20330922.205    20330926.834
  23144255.486   -12476533.61449  -9705772.32346  23144255.226    23144263.513
  23288128.927   -11529450.72149  -8757441.70646  23288128.494    23288136.814
  23612852.798    -9781626.41749  -7012917.36846  23612852.483    23612858.371
  22858304.791    -9381957.37649  -7296524.67846  22858304.205    22858311.443
  23512720.148    -8417880.19349  -6544127.47746  23512719.513    23512727.232
  22442226.151   -16882386.41149 -12971510.09246  22442225.391    22442233.434
  23252883.571   -11855701.48949  -9215913.35346  23252883.023    23252889.343
 03  4 13  1 32 30.0000000  0  8G14G25G 3G11G31G23G15G18
  20335715.123   -26115672.97649 -20330647.05548  20335714.598    20335719.233
  23126177.331   -12571534.65549  -9779798.98346  23126177.051    23126185.354
  23302930.213   -11451669.71349  -8696833.19846  23302929.747    23302938.134
  23595026.601    -9875303.52349  -7085912.46746  23595026.283    23595032.177
  22867611.867    -9333048.45149  -7258413.87246  22867611.272    22867618.500
  23523583.229    -8360794.56549  -6499645.21046  23523582.603    23523590.283
  22460164.124   -16788122.04649 -12898057.40046  22460163.362    22460171.384
  23265854.909   -11787537.00749  -9162798.20446  23265854.365    23265860.662
 03  4 13  1 33  0.0000000  0  8G14G25G 3G11G31G23G15G18
  20340590.633   -26090051.90949 -20310682.58248  20340590.122    20340594.753
  23108126.769   -12666390.42649  -9853712.45146  23108126.498    23108134.734
  23317768.454   -11373694.41949  -8636073.29246  23317768.035    23317776.433
  23577234.561    -9968801.09049  -7158767.66846  23577234.230    23577240.139
  22876998.659    -9283720.73349  -7219976.71846  22876998.094    22877005.298
  23534458.822    -8303643.01249  -6455111.58546  23534458.224    23534465.904
  22478159.073   -16693558.15349 -12824371.30246  22478158.315    22478166.371
  23278844.061   -11719278.70949  -9109609.98146  23278843.552    23278849.910
 03  4 13  1 33 30.0000000  0  8G14G25G 3G11G31G23G15G18
  20345549.126   -26063994.78349 -20290378.32048  20345548.600    20345553.232
  23090104.556   -12761097.20749  -9927509.82546  23090104.313    23090112.513
  23332643.306   -11295526.90049  -8575163.60646  23332642.887    23332651.292
  23559477.286   -10062115.90549  -7231480.46446  23559477.024    23559482.898
  22886464.855    -9233975.66349  -7181214.37246  22886464.320    22886471.524
  23545347.246    -8246424.35149  -6410525.65546  23545346.586    23545354.369
  22496210.849   -16598695.55849 -12750452.45346  22496210.077    22496218.166
  23291851.285   -11650925.45549  -9056347.76746  23291850.787    23291857.145
 03  4 13  1 34  0.0000000  0  8G14G25G 3G11G31G23G15G18
  20350590.307   -26037503.26449 -20269735.57448  20350589.790    20350594.431
  23072111.289   -12855652.10049 -10001188.84646  23072111.030    23072119.269
  23347554.140   -11217170.27049  -8514106.56946  23347553.725    23347562.145
  23541755.267   -10155245.59749  -7304049.02146  23541755.002    23541760.886
  22896009.964    -9183815.88149  -7142128.86546  22896009.433    22896016.625
  23556248.424    -8189138.33449  -6365887.25646  23556247.759    23556255.517
  22514319.145   -16503535.96449 -12676302.17446  22514318.371    22514326.492
  23304876.555   -11582477.31049  -9003011.59645  23304876.110    23304882.426
 03  4 13  1 34 30.0000000  0  8G14G25G 3G11G31G23G15G18
  20355713.669   -26010579.65749 -20248756.13448  20355713.153    20355717.801
  23054147.382   -12950052.70549 -10074747.64146  23054147.087    23054155.262
  23362500.361   -11138627.73849  -8452904.65446  23362499.928    23362508.358
  23524068.730   -10248188.61749  -7376472.11246  23524068.437    23524074.382
  22905633.490    -9133244.06549  -7102722.29046  22905632.941    22905640.160
  23567162.449    -8131784.96249  -6321196.34646  23567161.823    23567169.565
  22532483.667   -16408081.16249 -12601921.86846  22532482.877    22532491.034
  23317919.762   -11513934.90549  -8949601.98945  23317919.240    23317925.644
 03  4 13  1 35  0.0000000  0  8G14G25G 3G11G31G23G15G18
  20360919.032   -25983225.29149 -20227441.04048  20360918.509    20360923.163
  23036213.287   -13044296.46349 -10148184.22646  23036213.002    23036221.120
  23377481.401   -11059902.06149  -8391560.03846  23377480.996    23377489.381
  23506418.290   -10340942.21449  -7448747.59946  23506417.955    23506423.889
  22915334.926    -9082262.81049  -7062996.67946  22915334.374    22915341.597
  23578089.338    -8074363.89949  -6276452.70146  23578088.698    23578096.492
  22550703.983   -16312332.92149 -12527312.90746  22550703.203    22550711.353
  23330980.989   -11445297.98349  -8896118.72345  23330980.468    23330986.842
 03  4 13  1 35 30.0000000  0  8G14G25G 3G11G31G23G15G18
  20366205.960   -25955442.31749 -20205791.96248  20366205.439    20366210.078
  23018309.595   -13138380.50249 -10221496.33946  23018309.336    23018317.407
  23392496.625   -10980996.62049  -8330075.35446  23392496.272    23392504.656
  23488804.351   -10433503.89449  -7520873.53546  23488804.060    23488809.932
  22925113.757    -9030874.80549  -7022954.12746  22925113.214    22925120.448
  23589029.133    -8016875.02749  -6231656.22845  23589028.525    23589036.258
  22568979.757   -16216293.24849 -12452476.85346  22568978.990    22568987.135
  23344060.233   -11376566.27749  -8842561.60445  23344059.683    23344066.088
 03  4 13  1 36  0.0000000  0  8G14G25G 3G11G31G23G15G18
  20371574.166   -25927232.19449 -20183810.04548  20371573.643    20371578.279
  23000436.901   -13232301.75649 -10294681.61046  23000436.620    23000444.684
  23407545.630   -10901913.94849  -8268452.55846  23407545.283    23407553.633
  23471227.326   -10525871.45549  -7592848.20546  23471227.048    23471232.920
  22934969.607    -8979082.22649  -6982596.31446  22934969.061    22934976.273
  23599981.959    -7959317.59749  -6186806.33145  23599981.363    23599989.128
  22587310.806   -16119963.26449 -12377414.59446  22587310.031    22587318.232
  23357157.531   -11307739.69349  -8788930.55545  23357156.967    23357163.359
 03  4 13  1 36 30.0000000  0  8G14G25G 3G11G31G23G15G18
  20377023.277   -25898596.84649 -20161496.78148  20377022.761    20377027.404
  22982595.615   -13326057.63649 -10367738.02846  22982595.390    22982603.370
  23422627.695   -10822657.28649  -8206694.20346  23422627.352    23422635.744
  23453687.578   -10618043.17449  -7664670.26746  23453687.260    23453693.185
  22944901.895    -8926887.95949  -6941925.50046  22944901.316    22944908.579
  23610947.883    -7901691.51949  -6141902.93445  23610947.302    23610955.084
  22605696.693   -16023344.82349 -12302127.55446  22605695.942    22605704.143
  23370272.759   -11238818.78449  -8735226.00945  23370272.237    23370278.613
 03  4 13  1 37  0.0000000  0  8G14G25G 3G11G31G23G15G18
  20382552.969   -25869538.16349 -20138853.65448  20382552.453    20382557.092
  22964786.437   -13419645.05249 -10440663.16546  22964786.190    22964794.196
  23437742.297   -10743229.74849  -8144802.66246  23437741.959    23437750.394
  23436185.623   -10710016.37449  -7736337.65546  23436185.327    23436191.194
  22954910.108    -8874294.54049  -6900943.65346  22954909.537    22954916.789
  23621926.900    -7843996.42749  -6096945.78645  23621926.301    23621934.115
  22624137.127   -15926439.92649 -12226617.30946  22624136.396    22624144.605
  23383406.059   -11169803.33749  -8681447.79745  23383405.505    23383411.861
 03  4 13  1 37 30.0000000  0  8G14G25G 3G11G31G23G15G18
  20388162.943   -25840057.50949 -20115881.71548  20388162.419    20388167.070
  22947009.845   -13513061.24449 -10513454.88546  22947009.616    22947017.562
  23452888.904   -10663633.96949  -8082780.06046  23452888.613    23452897.023
  23418721.933   -10801788.58949  -7807848.41646  23418721.626    23418727.483
  22964993.843    -8821304.27649  -6859652.59246  22964993.286    22965000.550
  23632919.189    -7786231.78449  -6051934.41045  23632918.621    23632926.426
  22642631.782   -15829250.00649 -12150884.96946  22642631.112    22642639.275
  23396557.320   -11100693.13649  -8627595.73945  23396556.781    23396563.128
 03  4 13  1 38  0.0000000  0  8G14G25G 3G11G31G23G15G18
  20393852.915   -25810156.37349 -20092582.13448  20393852.390    20393857.055
  22929266.386   -13606303.30049 -10586110.92246  22929266.120    22929274.070
  23468067.077   -10583872.51249  -8020628.32846  23468066.716    23468075.192
  23401296.934   -10893357.38149  -7879200.66546  23401296.630    23401302.459
  22975152.665    -8767919.46049  -6818054.07246  22975152.093    22975159.387
  23643924.812    -7728396.91849  -6006868.34945  23643924.262    23643932.076
  22661180.407   -15731776.63549 -12074931.75946  22661179.702    22661187.938
  23409726.661   -11031487.90749  -8573669.68145  23409726.103    23409732.457
 03  4 13  1 38 30.0000000  0  8G14G25G 3G11G31G23G15G18
  20399622.307   -25779837.96949 -20068957.40348  20399621.806    20399626.443
  22911556.351   -13699369.51849 -10658629.94346  22911556.100    22911564.010
  23483275.935   -10503949.59349  -7958350.83746  23483275.567    23483284.087
  23383910.874   -10984721.53649  -7950393.46246  23383910.536    23383916.434
  22985385.838    -8714143.98549  -6776151.15046  22985385.278    22985392.520
  23654943.664    -7670492.82949  -5961748.31245  23654943.093    23654950.944
  22679782.412   -15634022.76949 -11998759.96546  22679781.694    22679789.952
  23422913.859   -10962188.97449  -8519670.53445  23422913.424    23422919.688
 03  4 13  1 39  0.0000000  0  8G14G25G 3G11G31G23G15G18
  20405471.025   -25749102.81549 -20045007.93348  20405470.517    20405475.175
  22893880.515   -13792256.05449 -10731008.93746  22893880.306    22893888.162
  23498515.189   -10423867.25049  -7895949.05346  23498514.826    23498523.344
  23366564.418   -11075877.61549  -8021424.11946  23366564.064    23366569.956
  22995693.055    -8659979.40749  -6733945.03046  22995692.533    22995699.732
  23665975.897    -7612518.11249  -5916573.25245  23665975.327    23665983.218
  22698437.602   -15535989.14149 -11922370.20246  22698436.919    22698445.196
  23436119.127   -10892795.18049  -8465597.50945  23436118.623    23436124.923
 03  4 13  1 39 30.0000000  0  8G14G25G 3G11G31G23G15G18
  20411398.635   -25717952.90749 -20020735.27848  20411398.133    20411402.776
  22876239.463   -13884959.99349 -10803245.66246  22876239.269    22876247.078
  23513784.221   -10343628.12049  -7833425.14846  23513783.835    23513792.405
  23349257.970   -11166823.36649  -8092290.88746  23349257.565    23349263.462
  23006073.849    -8605428.26549  -6691437.69146  23006073.297    23006080.581
  23677021.670    -7554472.37549  -5871342.87845  23677021.179    23677028.945
  22717145.771   -15437677.29749 -11845763.63446  22717145.047    22717153.355
  23449342.455   -10823306.37349  -8411450.42845  23449342.018    23449348.197
 03  4 13  1 40  0.0000000  0  8G14G25G 3G11G31G23G15G18
  20417404.787   -25686390.38049 -19996141.10548  20417404.285    20417408.946
  22858633.591   -13977479.12749 -10875338.37146  22858633.358    22858641.158
  23529082.407   -10263235.76849  -7770781.82945  23529082.075    23529090.539
  23331992.054   -11257556.36649  -8162991.88146  23331991.668    23331997.450
  23016527.631    -8550493.40249  -6648631.35246  23016527.060    23016534.384
  23688081.031    -7496355.37949  -5826056.93845  23688080.474    23688088.272
  22735906.493   -15339089.43349 -11768941.99546  22735905.760    22735914.063
  23462583.791   -10753722.90449  -8357229.58845  23462583.292    23462589.642
 03  4 13  1 40 30.0000000  0  8G14G25G 3G11G31G23G15G18
  20423489.084   -25654417.14549 -19971226.90148  20423488.573    20423493.238
  22841063.453   -14069810.50249 -10947284.78546  22841063.251    22841070.978
  23544409.224   -10182693.10449  -7708021.37545  23544408.835    23544417.408
  23314766.949   -11348074.62749  -8233525.53446  23314766.603    23314772.318
  23027053.850    -8495177.68749  -6605528.24246  23027053.323    23027060.681
  23699153.892    -7438166.94749  -5780715.37345  23699153.317    23699161.084
  22754719.335   -15240227.38349 -11691906.70046  22754718.576    22754726.927
  23475843.091   -10684044.87249  -8302935.06345  23475842.612    23475849.000
 03  4 13  1 41  0.0000000  0  8G14G25G 3G11G31G23G15G18
  20429651.269   -25622034.55349 -19945993.71548  20429650.757    20429655.424
  22823529.546   -14161951.33849 -11019082.72446  22823529.330    22823537.062
  23559764.074   -10102002.98449  -7645146.04345  23559763.755    23559772.258
  23297583.179   -11438375.66049  -8303889.93046  23297582.769    23297588.508
  23037652.083    -8439483.77349  -6562130.44946  23037651.555    23037658.921
  23710240.523    -7379906.72549  -5735317.84045  23710239.912    23710247.719
  22773584.052   -15141092.89049 -11614659.11546  22773583.307    22773591.705
  23489120.464   -10614272.13849  -8248566.75345  23489119.980    23489126.325
 03  4 13  1 41 30.0000000  0  8G14G25G 3G11G31G23G15G18
  20435891.036   -25589244.44649 -19920442.98148  20435890.507    20435895.204
  22806032.480   -14253898.50249 -11090729.75546  22806032.263    22806039.997
  23575146.526   -10021168.07849  -7582157.87245  23575146.196    23575154.721
  23280441.279   -11528456.83149  -8374082.99946  23280440.897    23280446.574
  23048321.857    -8383413.88149  -6518439.67546  23048321.349    23048328.721
  23721340.912    -7321573.96349  -5689863.78945  23721340.277    23721348.067
  22792500.332   -15041687.43549 -11537200.37646  22792499.610    22792507.982
  23502415.909   -10544404.27049  -8194124.31545  23502415.436    23502421.791
 03  4 13  1 42  0.0000000  0  8G14G25G 3G11G31G23G15G18
  20442207.853   -25556049.21149 -19894576.56848  20442207.324    20442212.040
  22788572.687   -14345650.00049 -11162224.31246  22788572.420    22788580.155
  23590555.870    -9940191.80749  -7519059.54545  23590555.518    23590564.053
  23263341.528   -11618316.41849  -8444103.40346  23263341.144    23263346.816
  23059062.545    -8326971.40749  -6474458.58446  23059061.993    23059069.431
  23732455.075    -7263168.98649  -5644353.46745  23732454.404    23732462.294
  22811467.696   -14942013.44449 -11459532.40446  22811466.980    22811475.325
  23515729.336   -10474441.91449  -8139608.21445  23515728.929    23515735.241
 03  4 13  1 42 30.0000000  0  8G14G25G 3G11G31G23G15G18
  20448601.564   -25522450.16949 -19868395.50148  20448601.048    20448605.753
  22771150.788   -14437202.16549 -11233563.54746  22771150.531    22771158.219
  23605991.633    -9859076.51149  -7455852.90445  23605991.302    23605999.868
  23246284.457   -11707951.71949  -8513949.05046  23246284.063    23246289.764
  23069873.730    -8270158.37749  -6430188.74746  23069873.199    23069880.616
  23743583.164    -7204690.75149  -5598786.05645  23743582.509    23743590.376
  22830485.990   -14842071.99449 -11381656.01146  22830485.273    22830493.629
  23529060.866   -10404384.33749  -8085017.95545  23529060.420    23529066.828
 03  4 13  1 43  0.0000000  0  8G14G25G 3G11G31G23G15G18
  20455071.655   -25488449.55249 -19841901.51648  20455071.139    20455075.836
  22753767.205   -14528553.01249 -11304745.91846  22753766.975    22753774.618
  23621453.163    -9777825.82049  -7392540.76845  23621452.819    23621461.453
  23229270.462   -11797360.56749  -8583618.22046  23229270.091    23229275.768
  23080754.823    -8212977.99149  -6385632.64546  23080754.296    23080761.740
  23754725.147    -7146139.50949  -5553161.75345  23754724.506    23754732.404
  22849554.706   -14741865.52049 -11303573.11246  22849553.963    22849562.343
  23542410.468   -10334231.93449  -8030353.80745  23542409.968    23542416.575
 03  4 13  1 43 30.0000000  0  8G14G25G 3G11G31G23G15G18
  20461617.847   -25454049.11449 -19815095.98248  20461617.327    20461622.051
  22736422.559   -14619699.43449 -11375768.99346  22736422.323    22736429.955
  23636939.966    -9696442.50549  -7329125.27545  23636939.647    23636948.241
  23212300.078   -11886540.54949  -8653109.07646  23212299.690    23212305.357
  23091705.350    -8155432.79749  -6340792.28546  23091704.806    23091712.275
  23765881.146    -7087514.61149  -5507480.06245  23765880.494    23765888.430
  22868673.549   -14641395.61949 -11225284.94146  22868672.817    22868681.204
  23555778.115   -10263984.71749  -7975615.74445  23555777.644    23555784.303
 03  4 13  1 44  0.0000000  0  8G14G25G 3G11G31G23G15G18
  20468239.824   -25419250.43349 -19787980.13248  20468239.293    20468244.032
  22719117.339   -14710638.45349 -11446630.46046  22719117.112    22719124.732
  23652451.501    -9614929.11249  -7265608.40745  23652451.178    23652459.784
  23195373.744   -11975488.90749  -8722419.44146  23195373.367    23195378.973
  23102724.849    -8097525.11349  -6295669.46546  23102724.316    23102731.748
  23777051.245    -7028815.34749  -5461740.40345  23777050.679    23777058.483
  22887842.206   -14540663.80449 -11146792.67946  22887841.487    22887849.869
  23569163.933   -10193642.17749  -7920803.43745  23569163.417    23569170.043
 03  4 13  1 44 30.0000000  0  8G14G25G 3G11G31G23G15G18
  20474937.099   -25384055.87949 -19760555.80948  20474936.586    20474941.302
  22701852.031   -14801367.74549 -11517328.51246  22701851.785    22701859.402
  23667987.161    -9533289.18649  -7201992.95845  23667986.774    23667995.445
  23178491.845   -12064203.71649  -8791547.82646  23178491.474    23178497.072
  23113812.727    -8039258.18549  -6250266.72146  23113812.171    23113819.589
  23788235.536    -6970041.84449  -5415942.90445  23788234.908    23788242.749
  22907060.305   -14439672.46149 -11068098.20146  22907059.543    22907067.927
  23582567.731   -10123204.74549  -7865917.15745  23582567.209    23582573.852
 03  4 13  1 45  0.0000000  0  8G14G25G 3G11G31G23G15G18
  20481709.404   -25348467.27749 -19732824.43448  20481708.898    20481713.612
  22684627.158   -14891884.63349 -11587861.04846  22684626.939    22684634.482
  23683546.342    -9451525.39049  -7138280.99445  23683546.023    23683554.606
  23161654.818   -12152682.68549  -8860492.43146  23161654.451    23161660.082
  23124968.445    -7980634.73249  -6204586.16246  23124967.848    23124975.352
  23799433.973    -6911193.67349  -5370087.24145  23799433.354    23799441.215
  22926327.383   -14338423.42149 -10989202.91746  22926326.614    22926335.049
  23595989.607   -10052672.45649  -7810956.99445  23595989.076    23595995.760
 03  4 13  1 45 30.0000000  0  8G14G25G 3G11G31G23G15G18
  20488556.372   -25312486.28149 -19704787.30148  20488555.868    20488560.572
  22667443.283   -14982186.08149 -11658225.72846  22667443.046    22667450.579
  23699128.501    -9369640.82749  -7074474.93745  23699128.215    23699136.814
  23144863.166   -12240923.17249  -8929251.21046  23144862.805    23144868.461
  23136191.494    -7921657.42249  -6158629.88146  23136190.888    23136198.398
  23810646.733    -6852270.43249  -5324173.05945  23810646.132    23810653.955
  22945643.200   -14236918.54749 -10910108.28446  22945642.393    22945650.843
  23609429.536    -9982045.10349  -7755922.73045  23609429.071    23609435.707
 03  4 13  1 46  0.0000000  0  8G14G25G 3G11G31G23G15G18
  20495477.611   -25276114.88449 -19676445.96048  20495477.076    20495481.821
  22650300.991   -15072269.18449 -11728420.25746  22650300.733    22650308.244
  23714733.077    -9287638.44549  -7010577.06045  23714732.822    23714741.422
  23128117.316   -12328923.02249  -8997822.48446  23128116.928    23128122.606
  23147481.339    -7862329.00349  -6112399.99346  23147480.782    23147488.264
  23821873.848    -6793271.68149  -5278200.04545  23821873.230    23821881.090
  22965007.347   -14135159.41649 -10830815.53446  22965006.526    22965015.013
  23622887.655    -9911322.71049  -7700814.41045  23622887.206    23622893.732
 03  4 13  1 46 30.0000000  0  8G14G25G 3G11G31G23G15G18
  20502472.889   -25239354.53949 -19647801.53948  20502472.364    20502477.099
  22633200.733   -15162131.13749 -11798442.47346  22633200.482    22633207.975
  23730359.654    -9205520.47749  -6946589.12645  23730359.414    23730368.069
  23111417.782   -12416679.54749  -9066204.14646  23111417.399    23111423.091
  23158837.594    -7802651.82449  -6065898.34546  23158837.031    23158844.502
  23833115.479    -6734196.63749  -5232167.60345  23833114.788    23833122.850
  22984419.593   -14033147.63549 -10751325.91946  22984418.778    22984427.299
  23636363.805    -9840504.91449  -7645631.78945  23636363.425    23636370.056
 03  4 13  1 47  0.0000000  0  8G14G25G 3G11G31G23G15G18
  20509541.699   -25202207.77049 -19618856.01148  20509541.180    20509545.913
  22616143.037   -15251769.54849 -11868290.50246  22616142.811    22616150.268
  23746007.562    -9123290.59649  -6882513.98045  23746007.271    23746016.016
  23094764.921   -12504190.65049  -9134394.58046  23094764.537    23094770.195
  23170259.551    -7742629.17049  -6019127.50146  23170259.003    23170266.493
  23844371.577    -6675045.52749  -5186075.84945  23844370.945    23844378.995
  23003879.501   -13930885.59949 -10671641.29046  23003878.666    23003887.204
  23649858.185    -9769592.05649  -7590375.07945  23649857.775    23649864.380
 03  4 13  1 47 30.0000000  0  8G14G25G 3G11G31G23G15G18
  20516683.706   -25164676.27649 -19589610.69648  20516683.186    20516687.923
  22599128.550   -15341180.96449 -11937961.65246  22599128.339    22599135.750
  23761676.270    -9040951.35449  -6818353.61945  23761675.954    23761684.787
  23078159.264   -12591453.77449  -9202391.78546  23078158.873    23078164.572
  23181746.763    -7682263.55049  -5972089.40946  23181746.201    23181753.731
  23855642.277    -6615817.78949  -5139924.40545  23855641.602    23855649.696
  23023386.707   -13828374.84149 -10591762.84946  23023385.851    23023394.401
  23663370.583    -9698583.80149  -7535044.03545  23663370.179    23663376.782
 03  4 13  1 48  0.0000000  0  8G14G25G 3G11G31G23G15G18
  20523898.505   -25126762.16649 -19560067.24048  20523897.991    20523902.719
  22582157.679   -15430363.20449 -12007454.21246  22582157.438    22582164.813
  23777365.201    -8958505.75049  -6754110.38145  23777364.913    23777373.730
  23061601.163   -12678466.92549  -9270194.20646  23061600.776    23061606.495
  23193298.672    -7621558.06249  -5924786.49146  23193298.114    23193305.691
  23866927.593    -6556513.13549  -5093713.04745  23866927.021    23866935.123
  23042940.810   -13725617.60549 -10511692.36146  23042939.985    23042948.514
  23676901.164    -9627480.50449  -7479638.89645  23676900.673    23676907.371
 03  4 13  1 48 30.0000000  0  8G14G25G 3G11G31G23G15G18
  20531185.788   -25088467.22149 -19530227.03148  20531185.276    20531190.004
  22565230.887   -15519313.67349 -12076766.19346  22565230.666    22565238.011
  23793073.781    -8875956.89849  -6689786.68745  23793073.578    23793082.364
  23045091.148   -12765227.61749  -9337799.90346  23045090.736    23045096.449
  23204914.739    -7560515.46949  -5877220.88146  23204914.172    23204921.785
  23878227.611    -6497131.18449  -5047441.45945  23878227.066    23878235.247
  23062541.506   -13622615.61049 -10431431.15146  23062540.665    23062549.261
  23690449.807    -9556281.97449  -7424159.59245  23690449.333    23690456.065
 03  4 13  1 49  0.0000000  0  8G14G25G 3G11G31G23G15G18
  20538545.160   -25049793.45049 -19500091.62948  20538544.651    20538549.380
  22548348.785   -15608029.47049 -12145895.30546  22548348.543    22548355.886
  23808801.469    -8793307.61149  -6625384.73445  23808801.219    23808810.060
  23028629.645   -12851733.19749  -9405206.81346  23028629.241    23028634.949
  23216594.452    -7499138.40449  -5829394.66346  23216593.856    23216601.485
  23889542.445    -6437671.36249  -5001109.15645  23889541.895    23889550.065
  23082188.395   -13519370.76349 -10350980.70346  23082187.584    23082196.209
  23704016.636    -9484988.06049  -7368605.96345  23704016.210    23704022.961
 03  4 13  1 49 30.0000000  0  8G14G25G 3G11G31G23G15G18
  20545976.176   -25010743.23449 -19469662.89448  20545975.667    20545980.413
  22531511.778   -15696508.23149 -12214839.71746  22531511.529    22531518.848
  23824547.601    -8710561.43349  -6560907.28145  23824547.280    23824556.203
  23012217.039   -12937981.87749  -9472413.53646  23012216.674    23012222.351
  23228337.167    -7437430.24449  -5781310.45246  23228336.607    23228344.241
  23900872.080    -6378134.00649  -4954716.48045  23900871.441    23900879.709
  23101881.050   -13415885.48349 -10270342.89346  23101880.281    23101888.913
  23717601.538    -9413599.41949  -7312978.48945  23717601.017    23717607.776
 03  4 13  1 50  0.0000000  0  8G14G25G 3G11G31G23G15G18
  20553478.636   -24971317.56249 -19438941.59448  20553478.123    20553482.859
  22514720.545   -15784746.37849 -12283596.63946  22514720.264    22514727.588
  23840311.801    -8627720.29149  -6496355.82645  23840311.466    23840320.403
  22995853.915   -13023970.50449  -9539417.62946  22995853.552    22995859.195
  23240142.515    -7375393.02749  -5732969.81146  23240141.954    23240149.622
  23912216.709    -6318517.71049  -4908262.27845  23912216.137    23912224.346
  23121619.230   -13312160.83049 -10189518.57946  23121618.526    23121627.138
  23731204.612    -9342114.73549  -7257276.21245  23731204.058    23731210.828
 03  4 13  1 50 30.0000000  0  8G14G25G 3G11G31G23G15G18
  20561052.114   -24931518.71049 -19407929.50448  20561051.600    20561056.337
  22497975.573   -15872741.52449 -12352164.20246  22497975.296    22497982.580
  23856093.503    -8544787.41049  -6431732.89145  23856093.120    23856102.042
  22979540.658   -13109697.11549  -9606217.55046  22979540.295    22979545.938
  23252009.893    -7313029.77749  -5684375.12446  23252009.319    23252017.007
  23923576.471    -6258822.34949  -4861746.45345  23923575.884    23923584.023
  23141402.526   -13208199.22249 -10108509.61146  23141401.800    23141410.460
  23744825.935    -9270534.40349  -7201499.36645  23744825.450    23744832.149
 03  4 13  1 51  0.0000000  0  8G14G25G 3G11G31G23G15G18
  20568696.208   -24891348.75349 -19376628.24248  20568695.698    20568700.421
  22481277.320   -15960491.14549 -12420540.45346  22481277.056    22481284.322
  23871891.977    -8461766.18949  -6367041.12445  23871891.583    23871900.519
  22963277.735   -13195159.27049  -9672811.40246  22963277.364    22963282.955
  23263938.707    -7250343.58449  -5635528.79746  23263938.130    23263945.885
  23934951.161    -6199047.96649  -4815169.11245  23934950.588    23934958.815
  23161230.522   -13104002.69149 -10027317.59846  23161229.804    23161238.453
  23758465.422    -9198858.66649  -7145648.17945  23758464.916    23758471.723
 03  4 13  1 51 30.0000000  0  8G14G25G 3G11G31G23G15G18
  20576410.523   -24850809.84949 -19345039.48848  20576410.018    20576414.756
  22464626.316   -16047992.30049 -12488723.08146  22464626.063    22464633.295
  23887706.764    -8378659.37049  -6302282.65445  23887706.385    23887715.352
  22947065.586   -13280354.55549  -9739197.30246  22947065.207    22947070.756
  23275928.447    -7187337.24249  -5586433.00646  23275927.851    23275935.645
  23946341.061    -6139194.01849  -4768529.69645  23946340.603    23946348.773
  23181102.916   -12999572.93249  -9945943.83946  23181102.186    23181110.888
  23772123.066    -9127087.34649  -7089722.54645  23772122.503    23772129.387
 03  4 13  1 52  0.0000000  0  8G14G25G 3G11G31G23G15G18
  20584194.684   -24809903.78149 -19313164.63548  20584194.189    20584198.925
  22448023.093   -16135242.56149 -12556710.22446  22448022.857    22448030.034
  23903537.350    -8295469.60549  -6237459.55245  23903536.985    23903545.965
  22930904.707   -13365280.63349  -9805373.43846  22930904.345    22930909.856
  23287978.598    -7124013.58249  -5537089.95546  23287978.019    23287985.792
  23957746.129    -6079260.04349  -4721827.98945  23957745.637    23957753.886
  23201019.271   -12894912.03449  -9864389.99346  23201018.579    23201027.294
  23785798.891    -9055220.56349  -7033722.50645  23785798.443    23785805.169
 03  4 13  1 52 30.0000000  0  8G14G25G 3G11G31G23G15G18
  20592048.313   -24768632.57049 -19281005.25648  20592047.812    20592052.546
  22431468.078   -16222239.35849 -12624499.85046  22431467.838    22431475.023
  23919383.086    -8212200.14349  -6172574.35945  23919382.715    23919391.710
  22914795.417   -13449935.44749  -9871338.19146  22914795.048    22914800.546
  23300088.506    -7060375.60849  -5487501.98046  23300087.955    23300095.740
  23969166.495    -6019245.81449  -4675063.67945  23969166.021    23969174.155
  23220979.277   -12790021.88249  -9782657.49546  23220978.511    23220987.251
  23799492.925    -8983258.28549  -6977648.03045  23799492.455    23799499.104
 03  4 13  1 53  0.0000000  0  8G14G25G 3G11G31G23G15G18
  20599971.150   -24726997.88949 -19248562.65548  20599970.647    20599975.394
  22414961.920   -16308979.48549 -12692089.47346  22414961.675    22414968.844
  23935243.540    -8128853.30649  -6107628.86945  23935243.166    23935252.165
  22898738.279   -13534316.08049  -9937089.29846  22898737.914    22898743.350
  23312257.851    -6996425.66649  -5437670.91846  23312257.290    23312265.053
  23980602.302    -5959150.49749  -4628236.20745  23980601.755    23980609.934
  23240982.598   -12684904.07349  -9700747.57346  23240981.794    23240990.524
  23813205.171    -8911200.11849  -6921498.88745  23813204.732    23813211.381
 03  4 13  1 53 30.0000000  0  8G14G25G 3G11G31G23G15G18
  20607962.756   -24685001.76949 -19215838.41348  20607962.235    20607966.986
  22398505.084   -16395460.43849 -12759477.13746  22398504.838    22398511.980
  23951118.120    -8045432.25649  -6042625.54745  23951117.756    23951126.851
  22882733.771   -13618420.20649 -10002624.94446  22882733.423    22882738.859
  23324485.894    -6932167.06149  -5387599.32246  23324485.295    23324493.183
  23992053.545    -5898974.15549  -4581345.60245  23992052.918    23992061.130
  23261028.787   -12579560.99549  -9618662.15146  23261028.036    23261036.807
  23826935.610    -8839046.39949  -6865275.23845  23826935.205    23826941.834
 03  4 13  1 54  0.0000000  0  8G14G25G 3G11G31G23G15G18
  20616022.667   -24642646.62949 -19182834.41348  20616022.165    20616026.905
  22382097.986   -16481679.98749 -12826661.12446  22382097.746    22382104.871
  23967006.185    -7961940.30349  -5977566.99345  23967005.806    23967014.892
  22866782.201   -13702246.16049 -10067943.83746  22866781.877    22866787.271
  23336772.023    -6867603.01149  -5337289.74146  23336771.439    23336779.299
  24003520.174    -5838716.64549  -4534391.77345  24003519.549    24003527.815
  23281117.382   -12473995.01549  -9536403.03546  23281116.609    23281125.500
  23840684.234    -8766797.12549  -6808977.15345  23840683.878    23840690.396
 03  4 13  1 54 30.0000000  0  8G14G25G 3G11G31G23G15G18
  20624150.589   -24599934.15749 -19149551.97348  20624150.068    20624154.815
  22365741.300   -16567634.58049 -12893638.64446  22365741.050    22365748.171
  23982907.292    -7878379.93149  -5912455.10745  23982906.859    23982915.922
  22850884.162   -13785790.78349 -10133043.50946  22850883.822    22850889.237
  23349115.879    -6802735.71049  -5286743.86246  23349115.314    23349123.202
  24015002.550    -5778376.79049  -4487373.73045  24015001.909    24015010.195
  23301248.191   -12368207.40749  -9453971.17946  23301247.521    23301256.189
  23854451.122    -8694451.78249  -6752604.21245  23854450.758    23854457.325
 03  4 13  1 55  0.0000000  0  8G14G25G 3G11G31G23G15G18
  20632346.180   -24556866.05349 -19115992.42248  20632345.664    20632350.424
  22349435.446   -16653322.04149 -12960408.00246  22349435.158    22349442.286
  23998820.842    -7794753.92749  -5847292.08545  23998820.472    23998829.601
  22835040.075   -13869051.77149 -10197922.17546  22835039.741    22835045.151
  23361516.867    -6737568.26349  -5235964.06446  23361516.329    23361524.216
  24026500.577    -5717954.52149  -4440291.48945  24026499.900    24026508.188
  23321420.702   -12262200.31349  -9371368.33545  23321420.106    23321428.775
  23868236.307    -8622010.38849  -6696156.42945  23868235.774    23868242.532
 03  4 13  1 55 30.0000000  0  8G14G25G 3G11G31G23G15G18
  20640609.019   -24513444.52849 -19082157.47648  20640608.514    20640613.267
  22333181.047   -16738739.29649 -13026966.82046  22333180.761    22333187.885
  24014746.366    -7711065.24649  -5782080.24045  24014745.998    24014755.128
  22819250.447   -13952026.73849 -10262577.96346  22819250.112    22819255.502
  23373974.454    -6672103.55849  -5184952.68746  23373973.894    23373981.801
  24038014.323    -5657449.52649  -4393144.78845  24038013.670    24038021.968
  23341634.616   -12155975.63349  -9288595.95946  23341634.022    23341642.877
  23882039.697    -8549473.17949  -6639633.97445  23882039.188    23882045.920
 03  4 13  1 56  0.0000000  0  8G14G25G 3G11G31G23G15G18
  20648938.691   -24469671.81049 -19048048.87648  20648938.187    20648942.932
  22316978.426   -16823884.22849 -13093313.43246  22316978.148    22316985.246
  24030683.172    -7627317.02149  -5716821.99045  24030682.794    24030691.911
  22803515.617   -14034713.53849 -10327009.21446  22803515.265    22803520.647
  23386487.991    -6606344.75749  -5133712.11446  23386487.402    23386495.298
  24049543.780    -5596861.73649  -4345933.59245  24049543.137    24049551.357
  23361889.505   -12049535.54749  -9205655.71545  23361888.870    23361897.666
  23895861.412    -8476839.93449  -6583036.70245  23895860.880    23895867.753
 03  4 13  1 56 30.0000000  0  8G14G25G 3G11G31G23G15G18
  20657334.843   -24425549.84549 -19013668.13548  20657334.325    20657339.085
  22300828.186   -16908754.05549 -13159445.68646  22300827.908    22300834.988
  24046630.792    -7543512.14149  -5651519.59145  24046630.424    24046639.550
  22787836.069   -14117110.05849 -10391214.25446  22787835.710    22787841.082
  23399056.923    -6540294.89849  -5082244.74946  23399056.340    23399064.219
  24061089.107    -5536190.70849  -4298657.50945  24061088.584    24061096.764
  23382185.064   -11942882.20449  -9122549.28545  23382184.401    23382193.139
  23909701.285    -8404111.11549  -6526364.95045  23909700.799    23909707.679
 03  4 13  1 57  0.0000000  0  8G14G25G 3G11G31G23G15G18
  20665797.042   -24381080.66049 -18979016.83748  20665796.547    20665801.298
  22284730.770   -16993346.16149 -13225361.53346  22284730.482    22284737.569
  24062588.641    -7459653.49149  -5586175.28145  24062588.207    24062597.376
  22772212.229   -14199213.75349 -10455191.14346  22772211.856    22772217.278
  23411680.704    -6473956.72149  -5030552.72446  23411680.141    23411687.951
  24072650.409    -5475436.03349  -4251316.23645  24072649.851    24072658.037
  23402520.858   -11836017.46649  -9039278.15045  23402520.172    23402528.981
  23923559.466    -8331286.24949  -6469618.35045  23923558.944    23923565.760
 03  4 13  1 57 30.0000000  0  8G14G25G 3G11G31G23G15G18
  20674325.057   -24336265.66649 -18944096.07048  20674324.543    20674329.322
  22268686.838   -17077657.30449 -13291058.45047  22268686.559    22268693.612
  24078556.263    -7375743.36849  -5520790.88045  24078555.902    24078564.956
  22756644.715   -14281021.52349 -10518937.41946  22756644.353    22756649.761
  23424358.929    -6407332.69549  -4978637.94546  23424358.344    23424366.141
  24084227.789    -5414596.73449  -4203909.04645  24084227.107    24084235.433
  23422896.583   -11728942.84749  -8955843.44545  23422895.857    23422904.610
  23937436.003    -8258364.99849  -6412796.65445  23937435.449    23937442.192
 03  4 13  1 58  0.0000000  0  8G14G25G 3G11G31G23G15G18
  20682918.325   -24291107.61749 -18908907.99148  20682917.824    20682922.600
  22252696.715   -17161685.61449 -13356534.98247  22252696.449    22252703.446
  24094532.996    -7291785.33949  -5455369.15145  24094532.552    24094541.796
  22741133.713   -14362532.09649 -10582452.13546  22741133.361    22741138.752
  23437090.779    -6340426.48249  -4926503.31246  23437090.240    23437098.036
  24095821.197    -5353673.15849  -4156436.20045  24095820.511    24095828.835
  23443311.706   -11621661.09649  -8872247.38045  23443310.914    23443319.753
  23951330.723    -8185347.81049  -6355900.22245  23951330.119    23951337.013
 03  4 13  1 58 30.0000000  0  8G14G25G 3G11G31G23G15G18
  20691576.657   -24245607.94149 -18873453.70848  20691576.140    20691580.935
  22236761.046   -17245427.87349 -13421788.61847  22236760.791    22236767.759
  24110518.392    -7207781.75749  -5389911.92245  24110517.955    24110527.239
  22725679.892   -14443742.29349 -10645732.76846  22725679.530    22725684.939
  23449875.868    -6273240.55649  -4874150.70046  23449875.339    23449883.153
  24107430.851    -5292664.34449  -4108896.92545  24107430.213    24107438.484
  23463765.935   -11514173.52549  -8788490.92045  23463765.163    23463774.041
  23965243.783    -8112234.44449  -6298928.81845  23965243.177    23965250.217
 03  4 13  1 59  0.0000000  0  8G14G25G 3G11G31G23G15G18
  20700299.507   -24199768.99449 -18837735.05948  20700299.001    20700303.800
  22220880.215   -17328881.89449 -13486817.65347  22220879.945    22220886.907
  24126511.881    -7123735.77349  -5324421.65945  24126511.483    24126520.763
  22710283.602   -14524650.14849 -10708777.81946  22710283.238    22710288.673
  23462713.654    -6205778.00949  -4821582.53646  23462713.042    23462720.940
  24119056.710    -5231570.21649  -4061291.15745  24119056.094    24119064.386
  23484258.929   -11406482.61549  -8704576.00045  23484258.057    23484267.002
  23979175.128    -8039024.85749  -6241882.44345  23979174.543    23979181.615
 03  4 13  1 59 30.0000000  0  8G14G25G 3G11G31G23G15G18
  20709086.559   -24153592.71449 -18801753.55448  20709086.048    20709090.856
  22205054.726   -17412045.04449 -13551620.03547  22205054.461    22205061.422
  24142512.943    -7039650.20849  -5258900.55245  24142512.566    24142521.824
  22694945.320   -14605253.24349 -10771585.39446  22694944.967    22694950.411
  23475603.438    -6138041.80549  -4768801.13746  23475602.838    23475610.759
  24130698.905    -5170390.42249  -4013618.64545  24130698.305    24130706.548
  23504790.241   -11298590.33549  -8620504.19145  23504789.484    23504798.403
  23993124.785    -7965719.03549  -6184761.08245  23993124.245    23993131.308
 03  4 13  2  0  0.0000000  0  8G14G25G 3G11G31G23G15G18
  20717937.438   -24107081.03649 -18765510.69948  20717936.931    20717941.754
  22189285.177   -17494914.14449 -13616193.29047  22189284.928    22189291.866
  24158520.951    -6955527.82249  -5193350.77745  24158520.574    24158529.918
  22679665.482   -14685549.08549 -10834153.54146  22679665.115    22679670.606
  23488544.754    -6070034.85649  -4715808.75846  23488544.219    23488552.128
  24142357.444    -5109124.62149  -3965879.11545  24142356.675    24142365.149
  23525359.375   -11190498.76449  -8536277.03445  23525358.743    23525367.420
  24007092.766    -7892316.96249  -6127564.71045  24007092.266    24007099.242
 03  4 13  2  0 30.0000000  0  8G14G25G 3G11G31G23G15G18
  20726851.756   -24060235.97049 -18729008.06148  20726851.249    20726856.072
  22173572.048   -17577486.81249 -13680535.57547  22173571.816    22173578.725
  24174535.474    -6871371.46149  -5127774.51245  24174535.187    24174544.448
  22664444.575   -14765535.35649 -10896480.47346  22664444.242    22664449.695
  23501537.038    -6001760.15349  -4662607.74446  23501536.465    23501544.458
  24154032.446    -5047772.24349  -3918072.12145  24154031.672    24154040.110
  23545966.110   -11082209.82349  -8451896.13545  23545965.506    23545974.257
  24021079.062    -7818818.63149  -6070293.33445  24021078.534    24021085.557
 03  4 13  2  1  0.0000000  0  8G14G25G 3G11G31G23G15G18
  20735829.071   -24013059.87649 -18692247.48148  20735828.565    20735833.387
  22157915.769   -17659760.87049 -13744645.16547  22157915.544    22157922.428
  24190555.916    -6787184.15349  -5062174.12045  24190555.586    24190564.806
  22649282.960   -14845209.99649 -10958564.57046  22649282.598    22649288.050
  23514579.672    -5933220.83749  -4609200.55746  23514579.136    23514587.054
  24165723.968    -4986333.19549  -3870197.58645  24165723.268    24165731.578
  23566609.921   -10973725.84549  -8367363.31045  23566609.205    23566618.356
  24035083.624    -7745224.34549  -6012947.21245  24035083.118    24035090.064
 03  4 13  2  1 30.0000000  0  8G14G25G 3G11G31G23G15G18
  20744869.110   -23965554.28049 -18655230.14348  20744868.596    20744873.424
  22142316.876   -17741733.51249 -13808519.88647  22142316.613    22142323.501
  24206581.698    -6702968.37249  -4996551.56145  24206581.353    24206590.656
  22634181.144   -14924570.44949 -11020403.83746  22634180.772    22634186.231
  23527672.141    -5864419.62449  -4555589.26946  23527671.591    23527679.506
  24177432.078    -4924806.78449  -3822254.98745  24177431.392    24177439.849
  23587290.628   -10865048.60949  -8282679.80145  23587289.819    23587298.933
  24049106.548    -7671533.54549  -5955525.87145  24049106.071    24049113.079
 03  4 13  2  2  0.0000000  0  8G14G25G 3G11G31G23G15G18
  20753971.418   -23917721.35449 -18617957.73848  20753970.905    20753975.740
  22126775.840   -17823401.91249 -13872157.53147  22126775.572    22126782.432
  24222612.356    -6618727.24149  -4930909.24445  24222611.915    24222621.386
  22619139.681   -15003613.81149 -11081996.02746  22619139.306    22619144.772
  23540813.882    -5795359.60349  -4501776.32746  23540813.294    23540821.231
  24189156.813    -4863192.81649  -3774244.16245  24189156.136    24189164.589
  23608007.704   -10756180.13449  -8197847.30745  23608006.917    23608016.103
  24063147.884    -7597746.02449  -5898029.14945  24063147.291    24063154.442
 03  4 13  2  2 30.0000000  0  8G14G25G 3G11G31G23G15G18
  20763135.620   -23869563.03149 -18580431.78148  20763135.121    20763139.958
  22111293.243   -17904763.32249 -13935555.96247  22111292.980    22111299.825
  24238647.264    -6534463.58949  -4865249.38445  24238646.793    24238656.235
  22604158.910   -15082338.14149 -11143339.61146  22604158.537    22604163.978
  23554004.318    -5726043.52249  -4447763.85946  23554003.752    23554011.654
  24200898.412    -4801490.64849  -3726164.57545  24200897.747    24200906.151
  23628760.691   -10647122.46149  -8112867.39545  23628759.909    23628769.174
  24077207.598    -7523861.75249  -5840457.05245  24077207.037    24077214.143
 03  4 13  2  3  0.0000000  0  8G14G25G 3G11G31G23G15G18
  20772361.358   -23821081.54049 -18542654.00648  20772360.844    20772365.686
  22095869.442   -17985815.52549 -13998713.45747  22095869.168    22095875.995
  24254685.916    -6450180.23749  -4799574.17745  24254685.491    24254694.882
  22589239.239   -15160741.29949 -11204432.93746  22589238.856    22589244.298
  23567242.930    -5656474.49349  -4393554.27046  23567242.348    23567250.323
  24212656.781    -4739700.21349  -3678016.22245  24212656.057    24212664.450
  23649549.313   -10537877.80149  -8027741.78845  23649548.507    23649557.854
  24091285.675    -7449881.14949  -5782809.88145  24091285.080    24091292.341
 03  4 13  2  3 30.0000000  0  8G14G25G 3G11G31G23G15G18
  20781648.250   -23772278.47649 -18504625.65048  20781647.725    20781652.591
  22080505.044   -18066555.71849 -14061627.83247  22080504.785    22080511.588
  24270727.933    -6365879.66949  -4733885.53845  24270727.445    24270736.984
  22574381.271   -15238820.40949 -11265273.75346  22574380.901    22574386.360
  23580529.124    -5586655.33749  -4339149.78746  23580528.569    23580536.482
  24224432.085    -4677820.73449  -3629798.47845  24224431.395    24224439.791
  23670373.271   -10428447.77949  -7942471.70745  23670372.502    23670381.790
  24105382.189    -7375803.67849  -5725087.22045  24105381.521    24105388.784
 03  4 13  2  4  0.0000000  0  8G14G25G 3G11G31G23G15G18
  20790995.908   -23723156.19949 -18466348.56148  20790995.403    20791000.251
  22065200.458   -18146981.63249 -14124297.31247  22065200.200    22065207.000
  24286772.571    -6281565.09649  -4668186.00445  24286772.228    24286781.623
  22559585.261   -15316573.71949 -11325860.70146  22559584.894    22559590.328
  23593862.235    -5516589.54949  -4284553.14246  23593861.699    23593869.593
  24236224.257    -4615852.44049  -3581511.53445  24236223.581    24236232.022
  23691231.917   -10318835.05649  -7857059.25345  23691231.262    23691240.376
  24119497.050    -7301629.84949  -5667289.48145  24119496.400    24119503.629
 03  4 13  2  4 30.0000000  0  8G14G25G 3G11G31G23G15G18
  20800403.907   -23673716.91349 -18427824.45248  20800403.400    20800408.253
  22049956.135   -18227090.74749 -14186719.93947  22049955.884    22049962.672
  24302819.371    -6197239.23449  -4602477.67745  24302818.999    24302828.397
  22544851.728   -15393998.72949 -11386191.83446  22544851.364    22544856.792
  23607241.790    -5446279.85049  -4229766.42346  23607241.277    23607249.191
  24248033.456    -4553794.75249  -3533154.93345  24248032.826    24248041.289
  23712124.926   -10209041.50249  -7771505.93045  23712124.218    23712133.477
  24133630.296    -7227359.45149  -5609416.50945  24133629.695    24133637.048
 03  4 13  2  5  0.0000000  0  8G14G25G 3G11G31G23G15G18
  20809871.844   -23623962.50749 -18389054.79648  20809871.336    20809876.206
  22034772.638   -18306880.23949 -14248893.50747  22034772.395    22034779.172
  24318867.763    -6112904.93249  -4536762.76545  24318867.408    24318876.840
  22530181.169   -15471093.01849 -11446265.27346  22530180.810    22530186.202
  23620667.170    -5375729.21349  -4174791.96646  23620666.603    23620674.581
  24259859.761    -4491647.24849  -3484728.34845  24259859.080    24259867.719
  23733052.103   -10099069.09049  -7685813.23045  23733051.301    23733060.680
  24147781.917    -7152992.40449  -5551468.20645  24147781.318    24147788.695
 03  4 13  2  5 30.0000000  0  8G14G25G 3G11G31G23G15G18
  20819399.467   -23573894.58249 -18350040.84248  20819398.970    20819403.833
  22019650.529   -18386347.26649 -14310815.80347  22019650.303    22019657.049
  24334917.295    -6028564.53949  -4471043.13345  24334916.917    24334926.443
  22515573.989   -15547854.05349 -11506079.02546  22515573.603    22515579.013
  23634137.925    -5304940.35349  -4119631.86445  23634137.287    23634145.318
  24271703.258    -4429409.22049  -3436231.23345  24271702.550    24271711.180
  23754012.955    -9988919.78949  -7599982.62345  23754012.360    23754021.376
  24161951.985    -7078528.47149  -5493444.40945  24161951.419    24161958.735
 03  4 13  2  6  0.0000000  0  8G14G25G 3G11G31G23G15G18
  20828986.282   -23523515.55549 -18310784.47148  20828985.783    20828990.636
  22004590.146   -18465489.75849 -14372485.21447  22004589.909    22004596.658
  24350967.404    -5944221.13749  -4405321.13045  24350967.015    24350976.674
  22501030.637   -15624279.68749 -11565631.43046  22501030.281    22501035.658
  23647653.343    -5233916.61949  -4064288.77345  23647652.721    23647660.767
  24283564.013    -4367080.75849  -3387663.63945  24283563.299    24283571.972
  23775006.811    -9878595.84149  -7514016.00945  23775006.265    23775015.385
  24176140.412    -7003968.14349  -5435345.50645  24176139.817    24176147.164
 03  4 13  2  6 30.0000000  0  8G14G25G 3G11G31G23G15G18
  20838631.956   -23472827.18249 -18271287.05048  20838631.456    20838636.311
  21989592.059   -18544304.98749 -14433899.61747  21989591.822    21989598.564
  24367017.538    -5859877.71449  -4339599.10745  24367017.144    24367026.795
  22486551.539   -15700367.59749 -11624920.68046  22486551.165    22486556.553
  23661212.897    -5162660.76249  -4008764.79245  23661212.274    23661220.360
  24295442.017    -4304661.38149  -3339025.20845  24295441.225    24295449.956
  23796033.666    -9768099.22349  -7427914.87445  23796033.048    23796042.333
  24190347.241    -6929310.94949  -5377171.11445  24190346.552    24190354.031
 03  4 13  2  7  0.0000000  0  8G14G25G 3G11G31G23G15G18
  20848336.137   -23421831.52349 -18231550.18648  20848335.628    20848340.478
  21974656.742   -18622790.35649 -14495056.98547  21974656.492    21974663.220
  24383067.168    -5775536.77749  -4273879.05245  24383066.814    24383076.461
  22472137.232   -15776115.15149 -11683944.71746  22472136.884    22472142.215
  23674816.029    -5091175.91749  -3953062.38545  23674815.497    23674823.566
  24307337.449    -4242150.62449  -3290315.57945  24307336.731    24307345.458
  23817093.034    -9657432.30149  -7341680.90145  23817092.240    23817101.391
  24204572.603    -6854556.65049  -5318921.04445  24204571.953    24204579.415
 03  4 13  2  7 30.0000000  0  8G14G25G 3G11G31G23G15G18
  20858098.362   -23370530.75949 -18191575.57448  20858097.839    20858102.716
  21959784.639   -18700943.56149 -14555955.52547  21959784.388    21959791.107
  24399115.784    -5691201.17949  -4208163.12945  24399115.494    24399125.088
  22457788.104   -15851520.25849 -11742701.91246  22457787.737    22457793.077
  23688462.238    -5019464.92949  -3897183.75945  23688461.739    23688469.812
  24319250.345    -4179548.12849  -3241534.46145  24319249.753    24319258.258
  23838184.405    -9546596.91449  -7255315.81345  23838183.709    23838193.114
  24218816.266    -6779705.64849  -5260595.62745  24218815.722    24218823.070
 03  4 13  2  8  0.0000000  0  8G14G25G 3G11G31G23G15G18
  20867918.265   -23318926.87149 -18151364.76848  20867917.741    20867922.616
  21944976.256   -18778761.93149 -14616593.15947  21944975.989    21944982.688
  24415162.882    -5606873.56849  -4142453.44045  24415162.614    24415172.218
  22443504.575   -15926580.52149 -11801190.41146  22443504.215    22443509.555
  23702150.840    -4947531.04849  -3841131.44145  23702150.324    23702158.450
  24331180.746    -4116853.51649  -3192681.56445  24331180.214    24331188.693
  23859307.382    -9435595.10349  -7168820.89045  23859306.766    23859315.812
  24233078.427    -6704757.62649  -5202194.61545  24233077.890    24233085.257
 03  4 13  2  8 30.0000000  0  8G14G25G 3G11G31G23G15G18
  20877795.400   -23267022.11649 -18110919.51748  20877794.893    20877799.760
  21930231.961   -18856243.55849 -14676968.39147  21930231.697    21930238.385
  24431207.877    -5522557.15349  -4076752.47745  24431207.587    24431217.327
  22429286.984   -16001294.16049 -11859408.80746  22429286.638    22429291.956
  23715881.252    -4875377.48849  -3784907.95345  23715880.717    23715888.844
  24343128.747    -4054066.75349  -3143756.86845  24343128.193    24343136.621
  23880461.554    -9324429.36049  -7082198.37245  23880460.920    23880470.249
  24247359.025    -6629713.06349  -5143718.37345  24247358.493    24247365.784
 03  4 13  2  9  0.0000000  0  8G14G25G 3G11G31G23G15G18
  20887729.475   -23214818.24849 -18070241.18948  20887728.956    20887733.852
  21915552.207   -18933385.74449 -14737079.12747  21915551.959    21915558.628
  24447250.314    -5438254.26249  -4011062.07345  24447250.051    24447259.797
  22415135.958   -16075658.25349 -11917354.83646  22415135.595    22415140.905
  23729652.932    -4803006.96149  -3728515.41145  23729652.384    23729660.616
  24355094.384    -3991187.09349  -3094759.77145  24355093.859    24355102.293
  23901646.578    -9213101.62049  -6995449.52745  23901645.874    23901655.076
  24261658.017    -6554571.42549  -5085166.48245  24261657.534    24261664.806
 03  4 13  2  9 30.0000000  0  8G14G25G 3G11G31G23G15G18
  20897720.126   -23162316.98749 -18029331.12848  20897719.620    20897724.507
  21900937.695   -19010185.48649 -14796923.02347  21900937.436    21900944.086
  24463289.665    -5353967.46649  -3945384.19945  24463289.327    24463299.048
  22401051.961   -16149670.14949 -11975026.43546  22401051.595    22401056.905
  23743465.457    -4730422.08449  -3671955.83645  23743464.861    23743473.090
  24367077.874    -3928213.84749  -3045689.76045  24367077.343    24367085.821
  23922862.109    -9101613.49949  -6908575.73645  23922861.368    23922870.584
  24275975.556    -6479332.47749  -5026538.78045  24275974.922    24275982.307
 03  4 13  2 10  0.0000000  0  8G14G25G 3G11G31G23G15G18
  20907766.807   -23109521.42549 -17988191.73848  20907766.285    20907771.189
  21886388.587   -19086641.27449 -14856498.90747  21886388.329    21886394.953
  24479325.228    -5269700.46149  -3879721.73045  24479324.905    24479334.691
  22387035.158   -16223328.83249 -12032422.79846  22387034.789    22387040.092
  23757317.938    -4657627.10049  -3615232.53145  23757317.372    23757325.611
  24379078.984    -3865147.90049  -2996547.50645  24379078.395    24379086.943
  23944107.628    -8989968.25249  -6821579.50445  23944106.900    23944116.159
  24290311.336    -6403997.39049  -4967836.13645  24290310.688    24290317.947
 03  4 13  2 10 30.0000000  0  8G14G25G 3G11G31G23G15G18
  20917869.261   -23056432.70549 -17946823.91048  20917868.741    20917873.661
  21871905.595   -19162749.63549 -14915804.07047  21871905.325    21871911.953
  24495356.676    -5185455.17549  -3814076.20245  24495356.348    24495366.307
  22373086.197   -16296631.06949 -12089541.41446  22373085.815    22373091.103
  23771209.993    -4584623.94849  -3558347.02045  23771209.425    23771217.733
  24391097.986    -3801987.85849  -2947331.93945  24391097.454    24391105.900
  23965382.645    -8878167.03749  -6734461.73045  23965381.891    23965391.101
  24304665.614    -6328565.25649  -4909057.90045  24304665.001    24304672.273
 03  4 13  2 11  0.0000000  0  8G14G25G 3G11G31G23G15G18
  20928027.155   -23003052.60249 -17905229.02848  20928026.649    20928031.560
  21857489.156   -19238508.34049 -14974836.77147  21857488.886    21857495.505
  24511383.469    -5101234.45049  -3748449.81045  24511383.143    24511393.057
  22359205.520   -16369574.41049 -12146380.36946  22359205.145    22359210.428
  23785141.074    -4511415.77149  -3501301.76145  23785140.570    23785148.746
  24403134.971    -3738733.42349  -2898042.81545  24403134.422    24403142.875
  23986687.044    -8766211.99049  -6647224.10545  23986686.282    23986695.555
  24319038.376    -6253035.95049  -4850203.94445  24319037.821    24319045.146
 03  4 13  2 11 30.0000000  0  8G14G25G 3G11G31G23G15G18
  20938240.015   -22949383.61349 -17863409.04248  20938239.508    20938244.444
  21843139.572   -19313915.54249 -15033595.57647  21843139.319    21843145.918
  24527405.020    -5017041.32649  -3682844.90645  24527404.812    24527414.597
  22345393.480   -16442157.11749 -12202938.31746  22345393.106    22345398.375
  23799110.536    -4438005.93949  -3444099.37545  23799110.029    23799118.290
  24415189.916    -3675384.67349  -2848680.17245  24415189.317    24415197.848
  24008020.185    -8654105.69149  -6559868.57145  24008019.494    24008028.885
  24333429.596    -6177409.72649  -4791274.46345  24333428.999    24333436.420
 03  4 13  2 12  0.0000000  0  8G14G25G 3G11G31G23G15G18
  20948507.543   -22895427.51149 -17821365.33248  20948507.020    20948511.964
  21828857.483   -19388968.25949 -15092078.15447  21828857.227    21828863.797
  24543420.924    -4932877.73849  -3617263.07445  24543420.673    24543430.633
  22331650.575   -16514376.47749 -12259213.12746  22331650.210    22331655.481
  23813117.865    -4364397.21449  -3386741.99245  23813117.332    23813125.656
  24427262.875    -3611940.94749  -2799243.54845  24427262.308    24427270.766
  24029381.724    -8541849.76349  -6472396.49545  24029381.086    24029390.385
  24347839.272    -6101686.63849  -4732269.48845  24347838.732    24347846.017
 03  4 13  2 12 30.0000000  0  8G14G25G 3G11G31G23G15G18
  20958829.254   -22841186.44349 -17779099.56848  20958828.735    20958833.671
  21814643.284   -19463664.19849 -15150282.73247  21814643.037    21814649.581
  24559430.626    -4848746.78349  -3551706.65945  24559430.320    24559440.492
  22317977.192   -16586230.46849 -12315203.23446  22317976.846    22317982.089
  23827162.442    -4290592.66549  -3329232.03045  23827161.929    23827170.259
  24439353.899    -3548401.99449  -2749732.70645  24439353.329    24439361.861
  24050771.490    -8429446.58149  -6384809.66845  24050770.779    24050780.235
  24362267.407    -6025866.38949  -4673188.81045  24362266.904    24362274.240
 03  4 13  2 13  0.0000000  0  8G14G25G 3G11G31G23G15G18
  20969204.878   -22786662.27649 -17736613.20848  20969204.362    20969209.293
  21800497.452   -19538000.84849 -15208207.34247  21800497.210    21800503.735
  24575433.624    -4764651.20349  -3486177.78645  24575433.253    24575443.507
  22304373.872   -16657716.52549 -12370906.64246  22304373.523    22304378.763
  23841243.756    -4216595.13649  -3271571.68845  23841243.211    23841251.662
  24451463.244    -3484767.29849  -2700147.29745  24451462.625    24451471.276
  24072188.767    -8316898.12649  -6297109.59945  24072188.161    24072197.365
  24376714.042    -5949948.99649  -4614032.46545  24376713.632    24376720.840
 03  4 13  2 13 30.0000000  0  8G14G25G 3G11G31G23G15G18
  20979633.928   -22731857.19149 -17693907.95248  20979633.402    20979638.347
  21786420.347   -19611976.36549 -15265850.55047  21786420.105    21786426.618
  24591429.281    -4680594.01049  -3420678.84045  24591428.878    24591439.180
  22290840.901   -16728832.64249 -12426321.77846  22290840.562    22290845.800
  23855361.185    -4142408.01849  -3213763.61245  23855360.627    23855369.115
  24463590.755    -3421036.77749  -2650487.20545  24463590.089    24463598.738
  24093633.174    -8204206.85149  -6209298.34645  24093632.516    24093642.063
  24391179.127    -5873934.60749  -4554800.51245  24391178.578    24391186.011
 03  4 13  2 14  0.0000000  0  8G14G25G 3G11G31G23G15G18
  20990116.072   -22676773.33249 -17650985.46948  20990115.545    20990120.485
  21772412.539   -19685587.66849 -15323209.95847  21772412.293    21772418.779
  24607417.156    -4596577.67049  -3355211.72845  24607416.851    24607426.968
  22277378.757   -16799576.54249 -12481446.87747  22277378.402    22277383.678
  23869514.156    -4068034.16849  -3155810.03845  23869513.560    23869522.080
  24475736.597    -3357210.14949  -2600752.20045  24475735.881    24475744.585
  24115104.533    -8091374.86549  -6121377.33745  24115103.921    24115113.155
  24405662.695    -5797823.17349  -4495492.91845  24405662.062    24405669.468
 03  4 13  2 14 30.0000000  0  8G14G25G 3G11G31G23G15G18
  21000650.894   -22621412.45049 -17607847.12848  21000650.372    21000655.303
  21758474.439   -19758832.63649 -15380283.90747  21758474.182    21758480.660
  24623396.768    -4512605.00149  -3289778.64845  24623396.317    24623406.571
  22263987.916   -16869945.85649 -12536280.08647  22263987.552    22263992.832
  23883702.035    -3993476.67949  -3097713.37145  23883701.437    23883709.923
  24487900.807    -3293286.87149  -2550941.89345  24487900.060    24487908.791
  24136602.064    -7978404.25549  -6033348.40445  24136601.498    24136611.008
  24420164.687    -5721614.67549  -4436109.72045  24420164.111    24420171.525
 03  4 13  2 15  0.0000000  0  8G14G25G 3G11G31G23G15G18
  21011238.116   -22565776.22949 -17564494.23747  21011237.603    21011242.530
  21744606.602   -19831708.53749 -15437070.27447  21744606.352    21744612.815
  24639367.671    -4428677.95249  -3224381.12245  24639367.230    24639377.510
  22250668.851   -16939937.98849 -12590819.38547  22250668.513    22250673.782
  23897924.396    -3918738.13549  -3039475.62845  23897923.792    23897932.261
  24500083.548    -3229266.25649  -2501055.73945  24500082.886    24500091.557
  24158125.892    -7865296.90749  -5945212.83045  24158125.269    24158134.702
  24434685.302    -5645308.61449  -4376650.52145  24434684.740    24434692.272
 03  4 13  2 15 30.0000000  0  8G14G25G 3G11G31G23G15G18
  21021877.244   -22509867.24949 -17520928.80947  21021876.738    21021881.657
  21730809.295   -19904213.63749 -15493567.70347  21730809.054    21730815.501
  24655329.187    -4344800.18849  -3159022.00045  24655328.881    24655339.281
  22237421.800   -17009551.58249 -12645063.71747  22237421.463    22237426.701
  23912180.488    -3843822.16249  -2981099.60145  23912179.883    23912188.323
  24512284.753    -3165148.58849  -2451093.99445  24512284.079    24512292.793
  24179675.021    -7752055.10749  -5856972.53845  24179674.379    24179683.859
  24449224.226    -5568905.91349  -4317115.97945  24449223.715    24449231.075
 03  4 13  2 16  0.0000000  0  8G14G25G 3G11G31G23G15G18
  21032567.950   -22453687.32849 -17477152.25647  21032567.427    21032572.368
  21717083.030   -19976345.46549 -15549774.27647  21717082.776    21717089.220
  24671280.912    -4260973.84149  -3093702.96145  24671280.677    24671290.902
  22224247.332   -17078783.84549 -12699010.90947  22224246.994    22224252.230
  23926469.782    -3768731.64749  -2922587.59545  23926469.180    23926477.603
  24524504.534    -3100933.21049  -2401056.05145  24524503.950    24524512.525
  24201249.516    -7638680.89449  -5768629.08145  24201248.844    24201258.348
  24463781.673    -5492406.18549  -4257505.83045  24463781.216    24463788.355
 03  4 13  2 16 30.0000000  0  8G14G25G 3G11G31G23G15G18
  21043309.819   -22397238.36149 -17433166.05647  21043309.310    21043314.235
  21703428.334   -20048101.22749 -15605687.80347  21703428.080    21703434.513
  24687222.391    -4177201.50649  -3028425.97845  24687222.190    24687232.344
  22211145.886   -17147632.32549 -12752659.04547  22211145.534    22211150.789
  23940791.757    -3693469.40949  -2863941.75745  23940791.205    23940799.604
  24536743.003    -3036619.68149  -2350941.64045  24536742.257    24536750.984
  24222848.791    -7525176.44949  -5680184.03645  24222848.170    24222857.522
  24478357.535    -5415809.35449  -4197820.04945  24478357.037    24478364.290
 03  4 13  2 17  0.0000000  0  8G14G25G 3G11G31G23G15G18
  21054102.564   -22340522.10849 -17388971.58547  21054102.068    21054106.998
  21689845.543   -20119478.96149 -15661306.76847  21689845.293    21689851.707
  24703153.125    -4093485.69149  -2963193.07245  24703152.934    24703163.137
  22198117.860   -17216094.86349 -12806006.45247  22198117.513    22198122.741
  23955145.810    -3618038.34649  -2805164.37645  23955145.238    23955153.730
  24549000.222    -2972207.61949  -2300750.46345  24548999.631    24549008.244
  24244472.331    -7411543.82149  -5591639.28545  24244471.690    24244481.213
  24492952.064    -5339115.12049  -4138058.32145  24492951.543    24492958.803
 03  4 13  2 17 30.0000000  0  8G14G25G 3G11G31G23G15G18
  21064945.753   -22283540.81649 -17344570.58547  21064945.262    21064950.192
  21676335.063   -20190476.77049 -15716629.68947  21676334.806    21676341.221
  24719072.513    -4009829.55649  -2898006.65345  24719072.241    24719082.762
  22185163.623   -17284169.64149 -12859051.70647  22185163.291    22185168.515
  23969531.418    -3542441.90549  -2746258.12045  23969530.779    23969539.351
  24561276.226    -2907696.96849  -2250482.46245  24561275.643    24561284.281
  24266119.944    -7297785.62249  -5502996.49445  24266119.376    24266128.668
  24507564.957    -5262324.00749  -4078221.12345  24507564.316    24507571.730
 03  4 13  2 18  0.0000000  0  8G14G25G 3G11G31G23G15G18
  21075838.942   -22226296.70549 -17299964.78947  21075838.421    21075843.376
  21662897.385   -20261092.02349 -15771654.50747  21662897.128    21662903.534
  24734980.067    -3926235.53349  -2832868.62245  24734979.830    24734990.212
  22172283.659   -17351854.28849 -12911792.95547  22172283.288    22172288.569
  23983947.870    -3466683.00549  -2687225.28845  23983947.269    23983955.786
  24573571.083    -2843087.36949  -2200137.33145  24573570.681    24573579.070
  24287790.973    -7183903.78149  -5414257.49545  24287790.403    24287799.799
  24522196.249    -5185435.99949  -4018308.44545  24522195.807    24522203.124
 03  4 13  2 18 30.0000000  0  8G14G25G 3G11G31G23G15G18
  21086781.792   -22168791.65549 -17255155.67047  21086781.275    21086786.217
  21649532.933   -20331322.56149 -15826379.55347  21649532.690    21649539.072
  24750875.274    -3842706.18549  -2767781.01145  24750875.185    24750885.283
  22159478.359   -17419146.55949 -12964228.46847  22159478.003    22159483.251
  23998394.705    -3390764.71449  -2628068.23245  23998394.087    23998402.575
  24585884.756    -2778378.53149  -2149714.89745  24585884.446    24585892.601
  24309485.125    -7069900.38249  -5325423.71745  24309484.463    24309494.007
  24536846.011    -5108451.06149  -3958320.20445  24536845.356    24536852.920
 03  4 13  2 19  0.0000000  0  8G14G25G 3G11G31G23G15G18
  21097773.974   -22111027.52049 -17210144.66147  21097773.465    21097778.403
  21636242.183   -20401165.74749 -15880802.76047  21636241.922    21636248.293
  24766757.745    -3759244.13849  -2702745.79645  24766757.652    24766767.871
  22146748.132   -17486044.26849 -13016356.52347  22146747.786    22146753.020
  24012871.322    -3314689.91749  -2568789.23345  24012870.696    24012879.185
  24598217.401    -2713570.16249  -2099214.91945  24598217.008    24598225.393
  24331202.042    -6955777.59349  -5236496.90445  24331201.260    24331210.866
  24551514.261    -5031369.16649  -3898256.42545  24551513.712    24551521.180
 03  4 13  2 19 30.0000000  0  8G14G25G 3G11G31G23G15G18
  21108815.033   -22053006.45649 -17164933.45247  21108814.522    21108819.441
  21623025.532   -20470619.53049 -15934922.53947  21623025.281    21623031.646
  24782626.793    -3675852.18249  -2637765.26345  24782626.773    24782637.027
  22134093.391   -17552545.30249 -13068175.48647  22134093.036    22134098.275
  24027377.108    -3238461.70949  -2509390.69445  24027376.523    24027385.000
  24610569.055    -2648661.90449  -2048637.07445  24610568.648    24610576.952
  24352941.301    -6841537.57749  -5147478.77045  24352940.629    24352950.189
  24566200.952    -4954190.12949  -3838116.95545  24566200.204    24566207.903
 03  4 13  2 20  0.0000000  0  8G14G25G 3G11G31G23G15G18
  21119904.650   -21994730.01949 -17119523.25347  21119904.135    21119909.069
  21609883.448   -20539681.33049 -15988736.87747  21609883.199    21609889.549
  24798482.062    -3592532.74649  -2572841.21445  24798481.849    24798492.425
  22121514.581   -17618647.25949 -13119683.47947  22121514.215    22121519.462
  24041911.570    -3162082.98049  -2449874.86245  24041910.982    24041919.527
  24622939.869    -2583653.37049  -1997981.09145  24622939.344    24622947.798
  24374702.369    -6727182.19549  -5058370.73945  24374701.625    24374711.317
  24580906.166    -4876914.07849  -3777901.84445  24580905.433    24580913.022
 03  4 13  2 20 30.0000000  0  8G14G25G 3G11G31G23G15G18
  21131042.487   -21936200.40549 -17073915.77047  21131041.964    21131046.911
  21596816.358   -20608349.19249 -16042244.24647  21596816.105    21596822.443
  24814323.054    -3509288.56649  -2507975.79545  24814322.950    24814333.301
  22109012.105   -17684348.09749 -13170878.91547  22109011.740    22109016.962
  24056474.098    -3085556.66049  -2390244.03945  24056473.529    24056482.076
  24635329.800    -2518544.09249  -1947246.65845  24635329.337    24635337.813
  24396485.053    -6612713.94249  -4969174.71345  24396484.276    24396494.039
  24595629.827    -4799540.70149  -3717610.96045  24595629.269    24595636.753
 03  4 13  2 21  0.0000000  0  6G14G25G11G31G23G15
  21142228.172   -21877419.15449 -17028112.21247  21142227.660    21142232.602
  21583824.716   -20676620.60049 -16095442.68847  21583824.459    21583830.799
  22096586.532   -17749644.80149 -13221759.44047  22096586.162    22096591.353
  24071064.175    -3008885.50349  -2330500.36945  24071063.540    24071072.167
  24647739.016    -2453333.31249  -1896433.05345  24647738.576    24647746.836
  24418288.709    -6498134.31449  -4879891.95245  24418287.881    24418297.826
 03  4 13  2 21 30.0000000  0  6G14G25G11G31G23G15
  21153461.008   -21818390.30949 -16982115.72247  21153460.484    21153465.420
  21570908.523   -20744495.44249 -16148332.12347  21570908.261    21570914.573
  22084237.799   -17814537.74649 -13272325.35647  22084237.440    22084242.589
  24085680.798    -2932074.69749  -2270647.86845  24085680.151    24085688.767
  24660167.172    -2388023.10749  -1845542.01245  24660166.641    24660175.229
  24440113.009    -6383447.75849  -4790525.76545  24440112.232    24440121.947
 03  4 13  2 22  0.0000000  0  6G14G25G11G31G23G15
  21164740.964   -21759113.72849 -16935926.19147  21164740.445    21164745.383
  21558068.642   -20811969.28449 -16200909.08447  21558068.380    21558074.685
  22071966.699   -17879022.73649 -13322573.36847  22071966.346    22071971.486
  24100323.896    -2855125.04149  -2210687.17645  24100323.304    24100331.871
  24672614.669    -2322610.95949  -1794571.55845  24672614.164    24672622.781
  24461957.382    -6268653.99049  -4701076.21545  24461956.660    24461966.688
 03  4 13  2 22 30.0000000  0  6G14G25G11G31G23G15
  21176067.683   -21699591.56149 -16889545.29547  21176067.174    21176072.103
  21545305.419   -20879040.17049 -16253172.05947  21545305.146    21545311.442
  22059773.611   -17943097.79949 -13372501.97347  22059773.257    22059778.370
  24114992.744    -2778039.87649  -2150620.89645  24114992.198    24115000.708
  24685081.564    -2257096.93649  -1743521.67945  24685081.184    24685089.860
  24483821.958    -6153755.94749  -4611545.14245  24483821.173    24483830.723
 03  4 13  2 23  0.0000000  0  6G14G25G11G31G23G15
  21187440.747   -21639825.81349 -16842974.59747  21187440.230    21187445.169
  21532619.226   -20945706.38249 -16305119.69847  21532618.958    21532625.254
  22047658.972   -18006760.71849 -13422109.42647  22047658.604    22047663.719
  24129686.818    -2700822.17449  -2090451.33345  24129686.346    24129694.910
  24697567.943    -2191480.58049  -1692392.09145  24697567.400    24697576.151
  24505705.670    -6038755.57649  -4521934.60245  24505704.953    24505714.901
 03  4 13  2 23 30.0000000  0  6G14G25G11G31G23G15
  21198859.818   -21579818.29149 -16796215.50347  21198859.295    21198864.231
  21520010.594   -21011964.98649 -16356749.72447  21520010.347    21520016.595
  22035623.173   -18070009.12549 -13471393.88547  22035622.826    22035627.909
  24144405.602    -2623474.81749  -2030180.73145  24144405.116    24144413.677
  24710073.958    -2125761.43049  -1641182.37545  24710073.303    24710082.204
  24527608.739    -5923655.06949  -4432245.84945  24527607.940    24527617.714
 03  4 13  2 24  0.0000000  0  6G14G25G11G31G23G15
  21210324.432   -21519571.40949 -16749269.89347  21210323.898    21210328.834
  21507479.778   -21077814.57249 -16408061.03947  21507479.532    21507485.762
  22023666.552   -18132841.52149 -13520354.17647  22023666.193    22023671.295
  24159148.416    -2546001.21349  -1969811.76145  24159147.870    24159156.520
  24722599.427    -2059939.74849  -1589892.77145  24722598.661    24722607.590
  24549530.052    -5808456.77849  -4342480.96445  24549529.225    24549539.235
 03  4 13  2 24 30.0000000  0  6G14G25G11G31G23G15
  21221834.195   -21459087.14449 -16702139.30847  21221833.670    21221838.607
  21495027.227   -21143253.08549 -16459052.03447  21495026.993    21495033.183
  22011789.505   -18195255.77549 -13568988.64647  22011789.165    22011794.225
  24173914.640    -2468404.41549  -1909346.80545  24173914.097    24173922.700
  24735144.475    -1994015.16549  -1538523.03545  24735143.736    24735152.721
  24571469.831    -5693163.19049  -4252641.81745  24571469.086    24571478.954
 03  4 13  2 25  0.0000000  0  6G14G25G11G31G23G15
  21233388.855   -21398367.10849 -16654825.00347  21233388.331    21233393.266
  21482653.317   -21208278.17649 -16509720.88647  21482653.069    21482659.251
  21999992.468   -18257249.42849 -13617295.37347  21999992.152    21999997.177
  24188703.811    -2390687.17249  -1848788.00045  24188703.209    24188711.923
  24747709.235    -1927987.04249  -1487072.54245  24747708.608    24747717.344
  24593427.157    -5577775.88749  -4162729.61844  24593426.177    24593436.061
 03  4 13  2 25 30.0000000  0  5G14G25G11G31G15
  21244986.828   -21337419.33549 -16607333.23747  21244986.302    21244991.251
  21470357.390   -21272893.56249 -16560070.49247  21470357.141    21470363.302
  21988274.717   -18318826.62449 -13665277.59147  21988274.364    21988279.426
  24203514.209    -2312858.51849  -1788142.38245  24203513.626    24203522.296
  24615400.963    -5462303.20449  -4072750.88145  24615400.052    24615410.016
 03  4 13  2 26  0.0000000  0  5G14G25G11G31G15
  21256629.341   -21276237.54849 -16559659.12947  21256628.812    21256633.769
  21458141.358   -21337088.98849 -16610092.85047  21458141.108    21458147.265
  21976638.200   -18379976.86849 -13712927.11847  21976637.860    21976642.921
  24218346.765    -2234913.35649  -1727405.98345  24218346.148    24218354.801
  24637392.102    -5346739.05649  -3982700.96145  24637391.180    24637401.186
 03  4 13  2 26 30.0000000  0  5G14G25G11G31G15
  21268315.995   -21214823.86549 -16511804.32047  21268315.472    21268320.433
  21446005.605   -21400862.60849 -16659786.53347  21446005.350    21446011.506
  21965083.280   -18440698.44249 -13760242.62147  21965082.949    21965087.969
  24233200.823    -2156854.94649  -1666581.33645  24233200.265    24233208.990
  24659400.137    -5231085.99749  -3892581.61845  24659399.223    24659409.023
 03  4 13  2 27  0.0000000  0  5G14G25G11G31G15
  21280046.025   -21153182.07749 -16463771.76047  21280045.501    21280050.468
  21433950.052   -21464214.65949 -16709151.72247  21433949.805    21433955.947
  21953609.946   -18500991.14649 -13807223.93547  21953609.592    21953614.617
  24248075.541    -2078687.96549  -1605672.09145  24248075.027    24248083.810
  24681424.485    -5115348.10149  -3802396.18545  24681423.577    24681433.431
 03  4 13  2 27 30.0000000  0  4G14G25G11G31
  21291819.437   -21091312.44849 -16415561.66447  21291818.920    21291823.871
  21421975.550   -21527140.98849 -16758185.17747  21421975.305    21421981.441
  21942219.003   -18560850.93149 -13853867.90947  21942218.668    21942223.687
  24262970.725    -2000413.74749  -1544679.28745  24262970.125    24262978.991
 03  4 13  2 28  0.0000000  0  4G14G25G11G31
  21303635.581   -21029218.17649 -16367176.52047  21303635.060    21303640.014
  21410082.162   -21589640.93149 -16806886.38247  21410081.909    21410088.055
  21930910.432   -18620277.82549 -13900174.56947  21930910.087    21930915.115
  24277885.339    -1922036.85649  -1483606.47845  24277884.819    24277893.661
 03  4 13  2 28 30.0000000  0  4G14G25G11G31
  21315494.044   -20966901.61049 -16318618.15947  21315493.521    21315498.477
  21398270.179   -21651713.09449 -16855254.25747  21398269.936    21398276.065
  21919684.563   -18679269.97649 -13946142.46547  21919684.218    21919689.252
  24292818.935    -1843560.62949  -1422456.27545  24292818.512    24292827.295
 03  4 13  2 29  0.0000000  0  4G14G25G11G31
  21327394.436   -20904364.66849 -16269888.07847  21327393.892    21327398.866
  21386540.009   -21713355.30249 -16903287.09647  21386539.777    21386545.900
  21908541.952   -18737824.77349 -13991769.56447  21908541.582    21908546.625
  24307770.874    -1764987.81549  -1361230.79845  24307770.461    24307779.228
 03  4 13  2 29 30.0000000  0  4G14G25G11G31
  21339336.393   -20841609.38949 -16220987.86347  21339335.865    21339340.818
  21374892.021   -21774565.71649 -16950983.47447  21374891.790    21374897.903
  21897482.827   -18795940.77649 -14037054.74247  21897482.468    21897487.489
  24322740.579    -1686321.65649  -1299932.59745  24322740.168    24322749.036
 03  4 13  2 30  0.0000000  0  4G14G25G11G31
  21351319.474   -20778637.87149 -16171919.15347  21351318.939    21351323.895
  21363326.489   -21835342.72249 -16998342.13547  21363326.247    21363332.361
  21886507.515   -18853616.39049 -14081996.76647  21886507.156    21886512.182
  24337727.528    -1607565.46249  -1238564.22545  24337726.993    24337735.914
 03  4 13  2 30 30.0000000  0  4G14G25G11G31
  21363343.326   -20715452.06749 -16122683.46947  21363342.815    21363347.765
  21351843.890   -21895684.04549 -17045361.30147  21351843.666    21351849.758
  21875616.453   -18910849.30049 -14126593.82047  21875616.106    21875621.127
  24352730.965    -1528722.07249  -1177127.92045  24352730.366    24352739.370
 03  4 13  2 31  0.0000000  0  4G14G25G11G31
  21375407.760   -20652052.93749 -16073281.55547  21375407.253    21375412.192
  21340444.682   -21955587.07249 -17092038.93147  21340444.458    21340450.559
  21864810.120   -18967636.77049 -14170843.78047  21864809.767    21864814.817
  24367750.583    -1449793.85649  -1115625.52145  24367750.038    24367758.998
 03  4 13  2 31 30.0000000  0  4G14G25G11G31
  21387512.337   -20588443.04149 -16023715.41047  21387511.824    21387516.769
  21329129.042   -22015050.91549 -17138374.34047  21329128.811    21329134.891
  21854088.757   -19023977.76649 -14214745.84047  21854088.409    21854093.459
  24382785.705    -1370784.30649  -1054059.73745  24382785.199    24382794.077
 03  4 13  2 32  0.0000000  0  4G14G25G11G31
  21399656.591   -20524624.61449 -15973986.77847  21399656.056    21399661.028
  21317897.381   -22074073.59849 -17184365.99147  21317897.147    21317903.214
  21843452.679   -19079870.62049 -14258298.69547  21843452.333    21843457.385
  24397835.704    -1291696.64649   -992433.08645  24397835.100    24397844.088
 03  4 13  2 32 30.0000000  0  4G14G25G11G31
  21411840.261   -20460599.01149 -15924096.70347  21411839.742    21411844.706
  21306750.110   -22132652.72649 -17230012.01347  21306749.864    21306755.922
  21832902.444   -19135312.46849 -14301500.11847  21832902.087    21832907.144
  24412900.100    -1212533.41549   -930747.52845  24412899.461    24412908.440
 03  4 13  2 33  0.0000000  0  4G14G25G11G31
  21424063.028   -20396367.98949 -15874046.56947  21424062.510    21424067.463
  21295687.520   -22190786.83849 -17275311.27147  21295687.292    21295693.313
  21822438.318   -19190301.68949 -14344348.84747  21822437.971    21822443.030
  24427978.153    -1133297.62249   -869005.49145  24427977.592    24427986.570
 03  4 13  2 33 30.0000000  0  4G14G25G11G31
  21436324.501   -20331933.55949 -15823837.92847  21436323.982    21436328.936
  21284710.001   -22248473.93749 -17320262.21047  21284709.772    21284715.785
  21812060.669   -19244836.48449 -14386843.47747  21812060.325    21812065.393
  24443069.550    -1053992.30649   -807209.21645  24443069.036    24443078.057
 03  4 13  2 34  0.0000000  0  4G14G25G11G31
  21448624.262   -20267297.85949 -15773472.45847  21448623.757    21448628.702
  21273817.885   -22305712.12949 -17364863.34947  21273817.653    21273823.652
  21801769.794   -19298915.22449 -14428982.74247  21801769.439    21801774.513
  24458173.652     -974620.56749   -745361.22145  24458173.239    24458182.239
 03  4 13  2 34 30.0000000  0  4G14G25G11G31
  21460962.057   -20202462.43949 -15722951.35447  21460961.536    21460966.498
  21263011.547   -22362499.63049 -17409113.30447  21263011.314    21263017.292
  21791566.177   -19352535.63349 -14470764.86547  21791565.813    21791570.883
  24473289.859     -895185.13949   -683463.57945  24473289.366    24473298.364
 03  4 13  2 35  0.0000000  0  4G14G25G11G31
  21473337.493   -20137429.14749 -15672276.07447  21473336.968    21473341.926
  21252291.276   -22418834.78249 -17453010.77647  21252291.045    21252297.025
  21781450.117   -19405695.75049 -14512188.32247  21781449.736    21781454.810
  24488417.452     -815689.11249   -621518.73245  24488416.953    24488426.116
 03  4 13  2 35 30.0000000  0  4G14G25G11G31
  21485750.270   -20072199.45649 -15621447.74647  21485749.745    21485754.706
  21241657.575   -22474715.00449 -17496553.76047  21241657.357    21241663.313
  21771422.103   -19458393.44049 -14553251.45047  21771421.748    21771426.791
  24503556.194     -736134.88049   -559528.53845  24503555.721    24503564.699
 03  4 13  2 36  0.0000000  0  4G14G25G11G31
  21498200.043   -20006775.56449 -15570468.09747  21498199.526    21498204.509
  21231110.654   -22530139.31649 -17539741.49147  21231110.428    21231116.377
  21761482.337   -19510627.23649 -14593953.10047  21761481.989    21761486.983
  24518705.408     -656525.88349   -497495.66145  24518704.943    24518713.906
 03  4 13  2 36 30.0000000  0  4G14G25G11G31
  21510686.401   -19941159.32249 -15519338.56447  21510685.882    21510690.847
  21220650.916   -22585105.35649 -17582572.12447  21220650.689    21220656.621
  21751631.154   -19562395.54649 -14634292.03447  21751630.789    21751635.783
  24533864.443     -576864.87649   -435422.28145  24533864.068    24533872.878
 03  4 13  2 37  0.0000000  0  4G14G25G11G31
  21523209.074   -19875352.18649 -15468060.27747  21523208.553    21523213.544
  21210278.690   -22639611.75349 -17625044.59647  21210278.460    21210284.363
  21741868.981   -19613696.03249 -14674266.42947  21741868.627    21741873.619
  24549032.785     -497154.86949   -373310.71545  24549032.488    24549041.560
 03  4 13  2 37 30.0000000  0  4G14G25G11G31
  21535767.695   -19809356.17349 -15416634.81747  21535767.169    21535772.173
  21199994.174   -22693656.96149 -17667157.70147  21199993.940    21199999.846
  21732196.126   -19664527.18749 -14713875.11147  21732195.754    21732200.742
  24564209.952     -417398.56449   -311163.03245  24564209.662    24564218.739
 03  4 13  2 38  0.0000000  0  4G14G25G11G31
  21548361.916   -19743173.31849 -15365063.76847  21548361.370    21548366.355
  21189797.766   -22747239.29049 -17708910.12447  21189797.529    21189803.424
  21722612.933   -19714887.18949 -14753116.66147  21722612.578    21722617.553
  24579395.306     -337599.32949   -248981.92745  24579394.989    24579404.239
 03  4 13  2 38 30.0000000  0  4G14G25G11G31
  21560991.236   -19676805.77549 -15313348.80547  21560990.687    21560995.675
  21179689.759   -22800357.05449 -17750300.54647  21179689.516    21179695.388
  21713119.647   -19764774.71449 -14791990.04847  21713119.290    21713124.237
  24594588.292     -257760.22849   -186769.73545  24594588.070    24594597.231
 03  4 13  2 39  0.0000000  0  4G14G25G11G31
  21573655.493   -19610254.61249 -15261490.75947  21573654.929    21573659.953
  21169670.518   -22853008.26349 -17791327.41747  21169670.272    21169676.134
  21703716.709   -19814187.31049 -14830493.35747  21703716.350    21703721.322
  24609788.390     -177883.77949   -124528.45445  24609788.108    24609797.203
 03  4 13  2 39 30.0000000  0  4G14G25G11G31
  21586354.304   -19543521.90849 -15209491.25947  21586353.748    21586358.755
  21159740.361   -22905191.41049 -17831989.57147  21159740.127    21159745.962
  21694404.470   -19863123.49049 -14868625.43347  21694404.107    21694409.090
  24624994.993      -97973.09349    -62260.49345  24624994.660    24625003.777
 03  4 13  2 40  0.0000000  0  4G14G25G11G31
  21599087.414   -19476609.01549 -15157351.34947  21599086.883    21599091.881
  21149899.663   -22956904.59149 -17872285.51547  21149899.419    21149905.261
  21685183.265   -19911581.27749 -14906384.73647  21685182.890    21685187.855
  24640207.634      -18030.65349        32.21045  24640207.219    24640216.372
 03  4 13  2 40 30.0000000  0  5G14G20G25G11G31
  21611854.092   -19409519.58349 -15105073.87247  21611853.535    21611858.553
  24730008.991    -2480544.21949  -1923485.30845  24730008.401    24730015.867
  21140148.314   -23008148.03549 -17912215.43347  21140148.060    21140153.899
  21676053.120   -19959560.42449 -14943771.06547  21676052.741    21676057.703
  24655425.471       61938.89849     62346.02645  24655424.875    24655434.225
 03  4 13  2 41  0.0000000  0  5G14G20G25G11G31
  21624652.606   -19342262.96249 -15052666.12747  21624652.065    21624657.068
  24713627.840    -2566627.84549  -1990563.40345  24713627.242    24713634.789
  21130485.262   -23058927.53749 -17951783.83547  21130485.020    21130490.851
  21667012.861   -20007067.34849 -14980789.42947  21667012.469    21667017.449
  24670646.469      141925.05249    124672.81145  24670645.959    24670655.210
 03  4 13  2 41 30.0000000  0  5G14G20G25G11G31
  21637485.261   -19274826.91749 -15000118.56547  21637484.721    21637489.728
  24697241.226    -2652739.98349  -2057663.69945  24697240.576    24697248.266
  21120913.436   -23109227.61549 -17990978.66047  21120913.196    21120918.994
  21658065.492   -20054085.95449 -15017427.29047  21658065.113    21658070.073
  24685872.592      221939.02549    187021.24845  24685872.226    24685881.354
 03  4 13  2 42  0.0000000  0  5G14G20G25G11G31
  21650351.384   -19207215.02949 -14947433.98247  21650350.834    21650355.861
  24680848.800    -2738882.38749  -2124787.56145  24680848.104    24680855.946
  21111432.740   -23159048.88949 -18029800.38847  21111432.489    21111438.290
  21649210.988   -20100616.58549 -15053684.90647  21649210.623    21649215.589
  24701103.026      301975.69249    249387.34145  24701102.671    24701112.120
 03  4 13  2 42 30.0000000  0  5G14G20G25G11G31
  21663250.338   -19139430.57749 -14894614.93947  21663249.794    21663254.821
  24664450.521    -2825055.77549  -2191935.57645  24664449.817    24664457.666
  21102043.135   -23208391.42049 -18068249.07347  21102042.890    21102048.683
  21640449.401   -20146659.01849 -15089562.11147  21640449.029    21640454.008
  24716337.177      382030.80449    311767.88245  24716336.767    24716346.120
 03  4 13  2 43  0.0000000  0  5G14G20G25G11G31
  21676181.737   -19071475.70549 -14841663.10147  21676181.192    21676186.224
  24648046.341    -2911259.99249  -2259107.58545  24648045.613    24648053.468
  21092744.997   -23257253.42949 -18106323.32847  21092744.747    21092750.520
  21631780.969   -20192211.90949 -15125057.85347  21631780.600    21631785.559
  24731574.125      462101.13949    374160.23845  24731573.727    24731583.215
 03  4 13  2 43 30.0000000  0  5G14G20G25G11G31
  21689145.019   -19003353.18949 -14788580.63247  21689144.478    21689149.491
  24631636.237    -2997495.37349  -2326303.87645  24631635.504    24631643.477
  21083538.310   -23305634.65649 -18144022.94247  21083538.060    21083543.826
  21623205.785   -20237274.66749 -15160171.67547  21623205.406    21623210.377
  24746813.242      542182.90049    436561.46345  24746812.877    24746822.380
 03  4 13  2 44  0.0000000  0  5G14G20G25G11G31
  21702140.035   -18935064.08549 -14735368.35447  21702139.501    21702144.510
  24615220.383    -3083760.84049  -2393523.63745  24615219.647    24615227.685
  21074423.529   -23353533.06949 -18181346.33947  21074423.280    21074429.033
  21614724.323   -20281845.03049 -15194901.80947  21614723.938    21614728.917
  24762054.143      622273.79849    498969.86345  24762053.907    24762063.263
 03  4 13  2 44 30.0000000  0  5G14G20G25G11G31
  21715166.359   -18866610.25049 -14682027.71047  21715165.824    21715170.817
  24598798.878    -3170056.29849  -2460766.77345  24598798.167    24598806.041
  21065400.869   -23400947.31549 -18218292.46647  21065400.607    21065406.364
  21606336.783   -20325921.75649 -15229247.29447  21606336.424    21606341.398
  24777296.101      702370.71549    561382.94445  24777295.985    24777305.314
 03  4 13  2 45  0.0000000  0  5G14G20G25G11G31
  21728223.617   -18797994.01349 -14628560.52147  21728223.074    21728228.086
  24582371.797    -3256380.97549  -2528032.67845  24582370.968    24582378.939
  21056470.539   -23447876.30649 -18254860.47147  21056470.279    21056476.023
  21598043.385   -20369503.68249 -15263207.22147  21598043.026    21598047.996
  24792538.628      782470.58449    623798.30845  24792538.342    24792547.838
 03  4 13  2 45 30.0000000  0  5G14G20G25G11G31
  21741311.371   -18729217.37749 -14574968.34247  21741310.824    21741315.838
  24565939.101    -3342735.19549  -2595321.62445  24565938.175    24565946.162
  21047632.745   -23494318.96549 -18291049.51747  21047632.487    21047638.227
  21589844.439   -20412589.53249 -15296780.59547  21589844.062    21589849.028
  24807781.137      862569.90949    686213.25945  24807780.651    24807790.427
 03  4 13  2 46  0.0000000  0  5G14G20G25G11G31
  21754429.523   -18660281.04349 -14521251.72847  21754428.992    21754434.005
  24549501.067    -3429117.47649  -2662632.43945  24549500.075    24549508.021
  21038887.907   -23540273.25549 -18326858.01547  21038887.651    21038893.391
  21581740.316   -20455176.93949 -15329965.57147  21581739.942    21581744.896
  24823023.199      942666.75349    748626.28845  24823022.690    24823032.150
 03  4 13  2 46 30.0000000  0  5G14G20G25G11G31
  21767577.552   -18591187.75249 -14467412.80347  21767577.020    21767582.025
  24533057.638    -3515527.81849  -2729965.12445  24533056.668    24533064.515
  21030236.145   -23585738.42849 -18362285.37947  21030235.891    21030241.615
  21573731.151   -20497265.25249 -15362761.64747  21573730.777    21573735.745
  24838264.000     1022757.62749    811034.64445  24838263.579    24838273.068
 03  4 13  2 47  0.0000000  0  5G14G20G25G11G31
  21780755.252   -18521938.32349 -14413452.21747  21780754.727    21780759.722
  24516609.088    -3601965.24149  -2797318.92245  24516608.285    24516615.951
  21021677.779   -23630712.71149 -18397330.23747  21021677.526    21021683.237
  21565817.395   -20538852.31549 -15395167.13847  21565817.025    21565821.967
  24853503.276     1102840.16949    873436.53345  24853502.858    24853512.260
 03  4 13  2 47 30.0000000  0  5G14G20G25G11G31
  21793962.296   -18452534.92649 -14359371.64947  21793961.764    21793966.771
  24500155.445    -3688429.41549  -2864693.54745  24500154.765    24500162.358
  21013213.028   -23675195.10949 -18431991.80847  21013212.785    21013218.482
  21557999.279   -20579936.68749 -15427180.91947  21557998.918    21558003.851
  24868740.451     1182911.16549    935829.36945  24868740.098    24868749.594
 03  4 13  2 48  0.0000000  0  5G14G20G25G11G31
  21807198.296   -18382979.21149 -14305172.40047  21807197.791    21807202.795
  24483696.808    -3774919.78449  -2932088.56845  24483696.130    24483703.647
  21004842.171   -23719184.17349 -18466268.96348  21004841.911    21004847.606
  21550277.072   -20620517.18649 -15458802.07647  21550276.714    21550281.628
  24883974.745     1262967.79649    998211.06145  24883974.263    24883983.993
 03  4 13  2 48 30.0000000  0  5G14G20G25G11G31
  21820463.108   -18313272.19549 -14250855.25147  21820462.598    21820467.607
  24467233.513    -3861434.79449  -2999502.77945  24467232.818    24467240.407
  20996565.540   -23762677.93749 -18500160.16948  20996565.280    20996570.972
  21542651.142   -20660591.55949 -15490028.84747  21542650.793    21542655.687
  24899205.905     1343007.96849   1060579.92045  24899205.489    24899215.211
 03  4 13  2 49  0.0000000  0  5G14G20G25G11G31
  21833756.277   -18243416.19449 -14196422.01547  21833755.756    21833760.760
  24450765.426    -3947974.67949  -3066936.35045  24450764.738    24450772.322
  20988383.230   -23805676.01149 -18533665.12248  20988382.985    20988388.643
  21535121.677   -20700159.20549 -15520860.76947  21535121.326    21535126.215
  24914433.309     1423028.17749   1122933.18445  24914432.737    24914442.619
 03  4 13  2 49 30.0000000  0  4G14G20G25G11
  21847077.130   -18173414.56549 -14141875.29647  21847076.604    21847081.619
  24434292.431    -4034540.60849  -3134390.24845  24434291.772    24434299.301
  20980295.273   -23848178.40249 -18566783.82748  20980295.014    20980300.674
  21527688.610   -20739220.26349 -15551297.94147  21527688.232    21527693.113
 03  4 13  2 50  0.0000000  0  4G14G20G25G11
  21860425.499   -18103268.42249 -14087215.97147  21860424.973    21860430.012
  24417814.666    -4121131.51649  -3201863.59945  24417814.049    24417821.448
  20972301.913   -23890183.65349 -18599515.15448  20972301.648    20972307.303
  21520352.280   -20777772.88149 -15581338.93047  21520351.920    21520356.789
 03  4 13  2 50 30.0000000  0  4G14G20G25G11
  21873801.591   -18032976.62549 -14032443.15847  21873801.093    21873806.096
  24401332.892    -4207743.70549  -3269353.56945  24401332.279    24401339.509
  20964404.018   -23931687.13049 -18631855.48848  20964403.765    20964409.416
  21513113.489   -20815812.89849 -15610980.48947  21513113.122    21513117.998
 03  4 13  2 51  0.0000000  0  4G14G20G25G11
  21887204.940   -17962541.50849 -13977558.65647  21887204.424    21887209.434
  24384846.946    -4294377.37349  -3336860.23845  24384846.383    24384853.541
  20956601.655   -23972688.66149 -18663804.69548  20956601.407    20956607.068
  21505972.454   -20853339.19149 -15640221.74347  21505972.085    21505976.962
 03  4 13  2 51 30.0000000  0  4G14G20G25G11
  21900635.241   -17891964.80049 -13922563.83247  21900634.736    21900639.763
  24368357.038    -4381031.95849  -3404383.21845  24368356.498    24368363.570
  20948894.970   -24013187.48649 -18695362.18548  20948894.722    20948900.371
  21498929.322   -20890351.00749 -15669062.10747  21498928.951    21498933.824
 03  4 13  2 52  0.0000000  0  4G14G20G25G11
  21914092.236   -17821247.89149 -13867459.74747  21914091.730    21914096.761
  24351863.272    -4467706.73449  -3471921.92045  24351862.677    24351869.812
  20941284.174   -24053182.22549 -18726526.87448  20941283.921    20941289.577
  21491984.365   -20926846.99849 -15697500.52547  21491983.989    21491988.874
 03  4 13  2 52 30.0000000  0  4G14G20G25G11
  21927575.470   -17750393.00249 -13812248.16247  21927574.975    21927580.017
  24335365.758    -4554401.50649  -3539476.21545  24335364.948    24335372.256
  20933769.447   -24092672.27749 -18757298.30748  20933769.193    20933774.844
  21485137.728   -20962826.06649 -15725536.15247  21485137.379    21485142.255
 03  4 13  2 53  0.0000000  0  4G14G20G25G11
  21941084.572   -17679402.13149 -13756930.60847  21941084.054    21941089.147
  24318864.513    -4641115.78149  -3607045.70945  24318863.582    24318871.094
  20926350.932   -24131656.66349 -18787675.71248  20926350.689    20926356.325
  21478389.714   -20998287.08849 -15753168.10847  21478389.360    21478394.234
 03  4 13  2 53 30.0000000  0  4G14G20G25G11
  21954619.354   -17608276.36149 -13701507.93947  21954618.844    21954623.926
  24302359.748    -4727848.52249  -3674629.60945  24302359.047    24302366.457
  20919028.948   -24170133.83349 -18817657.88748  20919028.708    20919034.332
  21471740.563   -21033228.54549 -15780395.20847  21471740.214    21471745.069
 03  4 13  2 54  0.0000000  0  4G14G20G25G11
  21968179.499   -17537017.35449 -13645981.44447  21968178.986    21968184.090
  24285851.559    -4814599.26749  -3742227.51945  24285850.886    24285858.168
  20911803.666   -24208102.86749 -18847244.10748  20911803.420    20911809.045
  21465190.491   -21067649.28949 -15807216.55847  21465190.128    21465195.015
 03  4 13  2 54 30.0000000  0  4G14G20G25G11
  21981764.657   -17465626.99349 -13590352.60047  21981764.151    21981769.252
  24269340.109    -4901367.14249  -3809838.78845  24269339.436    24269346.774
  20904675.215   -24245562.91049 -18876433.71248  20904674.975    20904680.586
  21458739.736   -21101548.09149 -15833631.19747  21458739.374    21458744.242
 03  4 13  2 55  0.0000000  0  4G14G20G25G11
  21995374.498   -17394106.75349 -13534622.55147  21995373.979    21995379.094
  24252825.511    -4988151.86049  -3877463.19645  24252824.859    24252832.148
  20897643.784   -24282513.16049 -18905226.07448  20897643.543    20897649.137
  21452388.526   -21134923.99049 -15859638.38547  21452388.161    21452393.032
 03  4 13  2 55 30.0000000  0  4G14G20G25G11
  22009008.898   -17322457.55149 -13478792.01147  22009008.361    22009013.477
  24236307.967    -5074951.98049  -3945099.61145  24236307.274    24236314.566
  20890709.795   -24318951.49249 -18933619.54748  20890709.553    20890715.139
  21446137.152   -21167775.11849 -15885236.65947  21446136.788    21446141.674
 03  4 13  2 56  0.0000000  0  4G14G20G25G11
  22022667.347   -17250681.85049 -13422862.89447  22022666.845    22022671.922
  24219787.489    -5161767.50449  -4012748.03545  24219786.680    24219794.071
  20883873.141   -24354878.14549 -18961614.30448  20883872.896    20883878.472
  21439985.737   -21200101.01149 -15910425.66147  21439985.377    21439990.251
 03  4 13  2 56 30.0000000  0  4G14G20G25G11
  22036349.720   -17178780.65149 -13366836.00347  22036349.193    22036354.289
  24203264.269    -5248597.27649  -4080407.55245  24203263.489    24203270.802
  20877134.205   -24390291.39349 -18989209.00848  20877133.951    20877139.520
  21433934.587   -21231899.93349 -15935204.03547  21433934.206    21433939.112
 03  4 13  2 57  0.0000000  0  4G14G20G25G11
  22050055.760   -17106754.99349 -13310712.11847  22050055.225    22050060.326
  24186738.633    -5335439.83849  -4148077.03945  24186737.800    24186745.181
  20870493.207   -24425189.89349 -19016402.61048  20870492.948    20870498.512
  21427984.011   -21263170.35849 -15959570.59547  21427983.646    21427988.549
 03  4 13  2 57 30.0000000  0  4G14G20G25G11
  22063784.972   -17034607.44749 -13254493.26147  22063784.460    22063789.570
  24170210.465    -5422295.63849  -4215756.81745  24170209.583    24170217.036
  20863950.207   -24459573.36549 -19043194.88948  20863949.968    20863955.506
  21422134.059   -21293912.08349 -15983525.18347  21422133.685    21422138.590
 03  4 13  2 58  0.0000000  0  4G14G20G25G11
  22077537.188   -16962339.02849 -13198180.22147  22077536.669    22077541.778
  24153680.125    -5509163.27849  -4283445.83245  24153679.256    24153686.687
  20857505.375   -24493441.08849 -19069585.29048  20857505.130    20857510.659
  21416384.997   -21324123.52949 -16007066.56447  21416384.635    21416389.527
 03  4 13  2 58 30.0000000  0  4G14G20G25G11
  22091312.182   -16889951.07749 -13141774.03247  22091311.653    22091316.757
  24137147.589    -5596042.06649  -4351143.51145  24137146.761    24137154.148
  20851158.918   -24526791.72049 -19095572.76648  20851158.683    20851164.178
  21410737.057   -21353803.68649 -16030193.95647  21410736.695    21410741.576
 03  4 13  2 59  0.0000000  0  4G14G20G25G11
  22105109.607   -16817445.12449 -13085275.89847  22105109.101    22105114.204
  24120613.140    -5682931.03349  -4418849.12545  24120612.437    24120619.711
  20844911.080   -24559624.26949 -19121156.53648  20844910.829    20844916.319
  21405190.513   -21382950.98649 -16052906.13047  21405190.145    21405195.021
 03  4 13  2 59 30.0000000  0  4G14G20G25G11
  22118929.198   -16744822.72049 -13028687.02847  22118928.694    22118933.780
  24104076.926    -5769829.36449  -4486562.01745  24104076.225    24104083.506
  20838761.987   -24591937.81949 -19146335.89648  20838761.746    20838767.227
  21399745.458   -21411565.02149 -16075202.78047  21399745.095    21399749.961
 03  4 13  3  0  0.0000000  0  4G14G20G25G11
  22132770.634   -16672085.61349 -12972008.77147  22132770.112    22132775.200
  24087538.955    -5856736.62249  -4554281.87545  24087538.245    24087545.630
  20832711.758   -24623731.93649 -19171110.50148  20832711.524    20832716.981
  21394402.089   -21439644.54549 -16097082.92247  21394401.734    21394406.593
 03  4 13  3  0 30.0000000  0  4G14G20G25G11
  22146633.692   -16599234.74349 -12915241.87047  22146633.185    22146638.270
  24070999.531    -5943651.50949  -4622007.65245  24070998.795    24071006.131
  20826760.610   -24655005.31749 -19195479.34048  20826760.374    20826765.824
  21389160.752   -21467188.00049 -16118545.34547  21389160.392    21389165.230
 03  4 13  3  1  0.0000000  0  4G14G20G25G11
  22160518.085   -16526271.91449 -12858387.73747  22160517.563    22160522.636
  24054458.755    -6030573.53149  -4689739.01245  24054458.026    24054465.431
  20820908.654   -24685757.39749 -19219441.97048  20820908.415    20820913.855
  21384021.474   -21494195.09849 -16139589.83647  21384021.130    21384025.932
 03  4 13  3  1 30.0000000  0  4G14G20G25G11
  22174423.573   -16453198.16449 -12801447.17947  22174423.056    22174428.125
  24037916.857    -6117501.58649  -4757475.06345  24037916.087    24037923.484
  20815156.146   -24715987.00849 -19242997.48348  20815155.908    20815161.338
  21378984.537   -21520664.50749 -16160215.34447  21378984.187    21378988.977
 03  4 13  3  2  0.0000000  0  4G14G20G25G11
  22188349.701   -16380015.93349 -12744422.06747  22188349.166    22188354.229
  24021373.832    -6204435.62949  -4825215.76845  24021373.020    24021380.408
  20809502.991   -24745694.35549 -19266146.03848  20809502.751    20809508.162
  21374049.973   -21546595.69649 -16180421.46147  21374049.613    21374054.421
 03  4 13  3  2 30.0000000  0  4G14G20G25G11
  22202296.368   -16306725.73949 -12687312.85347  22202295.850    22202300.896
  24004829.993    -6291373.88949  -4892959.80545  24004829.192    24004836.463
  20803949.520   -24774877.97149 -19288886.48648  20803949.276    20803954.681
  21369218.134   -21571987.22749 -16200207.06647  21369217.778    21369222.576
 03  4 13  3  3  0.0000000  0  4G14G20G25G11
  22216263.255   -16233329.29549 -12630120.82847  22216262.751    22216267.769
  23988285.464    -6378315.85549  -4960706.72445  23988284.606    23988291.889
  20798495.807   -24803537.37149 -19311218.46248  20798495.561    20798500.958
  21364489.128   -21596838.30149 -16219571.54047  21364488.772    21364493.571
 03  4 13  3  3 30.0000000  0  4G14G20G25G11
  22230250.054   -16159828.24349 -12572847.30247  22230249.548    22230254.569
  23971740.341    -6465260.75349  -5028455.91845  23971739.530    23971746.673
  20793141.953   -24831671.94449 -19333141.48148  20793141.708    20793147.100
  21359863.087   -21621148.23549 -16238514.34147  21359862.745    21359867.523
 03  4 13  3  4  0.0000000  0  4G14G20G25G11
  22244256.704   -16086222.92549 -12515492.51247  22244256.182    22244261.244
  23955194.927    -6552206.85849  -5096206.06345  23955194.105    23955201.258
  20787888.263   -24859280.12149 -19354654.32348  20787888.015    20787893.402
  21355340.393   -21644915.22149 -16257034.06347  21355340.036    21355344.825
 03  4 13  3  4 30.0000000  0  4G14G20G25G11
  22258282.676   -16012515.93849 -12458058.51947  22258282.152    22258287.213
  23938649.314    -6639154.46249  -5163957.38045  23938648.578    23938655.521
  20782734.752   -24886361.85949 -19375756.94448  20782734.512    20782739.882
  21350920.963   -21668139.45349 -16275130.86447  21350920.585    21350925.385
 03  4 13  3  5  0.0000000  0  4G14G20G25G11
  22272327.840   -15938708.27349 -12400546.06347  22272327.329    22272332.364
  23922103.633    -6726102.08749  -5231708.73045  23922102.843    23922109.932
  20777681.555   -24912916.49849 -19396448.83948  20777681.301    20777686.674
  21346605.095   -21690819.35849 -16292803.50747  21346604.723    21346609.525
 03  4 13  3  5 30.0000000  0  4G14G20G25G11
  22286391.951   -15864800.90649 -12342955.92847  22286391.452    22286396.497
  23905558.212    -6813048.80149  -5299459.34845  23905557.447    23905564.386
  20772728.766   -24938943.53049 -19416729.61748  20772728.509    20772733.889
  21342392.879   -21712954.65049 -16310051.78147  21342392.519    21342397.309
 03  4 13  3  6  0.0000000  0  4G14G20G25G11
  22300474.705   -15790795.67849 -12285289.52047  22300474.163    22300479.247
  23889013.054    -6899993.86849  -5367208.70945  23889012.321    23889019.198
  20767876.472   -24964442.41649 -19436598.85148  20767876.209    20767881.575
  21338284.462   -21734544.54849 -16326875.07047  21338284.093    21338288.911
 03  4 13  3  6 30.0000000  0  4G14G20G25G11
  22314575.731   -15716694.33349 -12227548.24046  22314575.201    22314580.290
  23872468.316    -6986936.75649  -5434956.38445  23872467.624    23872474.471
  20763124.702   -24989413.03949 -19456056.45548  20763124.438    20763129.808
  21334279.873   -21755588.63149 -16343273.04747  21334279.506    21334284.334
 03  4 13  3  7  0.0000000  0  4G14G20G25G11
  22328694.803   -15642498.20649 -12169733.08746  22328694.276    22328699.353
  23855924.271    -7073876.10849  -5502701.30745  23855923.598    23855930.359
  20758473.633   -25013854.37549 -19475101.62548  20758473.378    20758478.728
  21330379.437   -21776085.61049 -16359244.70847  21330379.086    21330383.896
 03  4 13  3  7 30.0000000  0  4G14G20G25G11
  22342831.832   -15568207.74849 -12111844.42346  22342831.310    22342836.399
  23839381.162    -7160810.58949  -5570442.41845  23839380.471    23839387.107
  20753923.447   -25037765.70949 -19493733.80748  20753923.188    20753928.531
  21326583.267   -21796034.53849 -16374789.32247  21326582.914    21326587.733
 03  4 13  3  8  0.0000000  0  4G14G20G25G11
  22356986.347   -15493825.20949 -12053884.01346  22356985.830    22356990.919
  23822838.963    -7247740.00749  -5638179.58845  23822838.263    23822845.019
  20749474.116   -25061146.93749 -19511952.91748  20749473.868    20749479.202
  21322891.429   -21815435.16149 -16389906.68747  21322891.080    21322895.905
 03  4 13  3  8 30.0000000  0  4G14G20G25G11
  22371158.436   -15419350.61549 -11995851.85646  22371157.890    22371163.002
  23806298.174    -7334662.10649  -5705911.03845  23806297.474    23806304.415
  20745125.940   -25083996.58349 -19529757.80648  20745125.688    20745131.020
  21319304.319   -21834285.57549 -16404595.31647  21319303.983    21319308.797
 03  4 13  3  9  0.0000000  0  5G14G20G25G11G 1
  22385348.002   -15344783.94049 -11937747.97246  22385347.446    22385352.554
  23789759.212    -7421574.72749  -5773635.08145  23789758.413    23789765.444
  20740879.309   -25106312.78849 -19547147.02748  20740879.058    20740884.372
  21315822.259   -21852583.93449 -16418853.77347  21315821.904    21315826.710
  24624490.972    -3453802.87049  -2350209.00145  24624490.481    24624500.106
 03  4 13  3  9 30.0000000  0  5G14G20G25G11G 1
  22399555.170   -15270124.71649 -11879571.97346  22399554.641    22399559.749
  23773222.598    -7508474.84249  -5841349.38745  23773221.871    23773228.839
  20736734.589   -25128093.24749 -19564118.78448  20736734.348    20736739.646
  21312445.717   -21870327.79049 -16432680.15847  21312445.371    21312450.176
  24609101.315    -3534675.36649  -2413226.42945  24609100.865    24609110.462
 03  4 13  3 10  0.0000000  0  5G14G20G25G11G 1
  22413778.666   -15195379.75549 -11821329.16446  22413778.124    22413783.248
  23756687.509    -7595367.05249  -5909057.53845  23756686.808    23756693.751
  20732690.830   -25149343.21349 -19580677.16848  20732690.597    20732695.879
  21309173.735   -21887522.14349 -16446078.34947  21309173.396    21309178.199
  24593739.658    -3615401.00149  -2476129.43545  24593739.079    24593748.538
 03  4 13  3 10 30.0000000  0  5G14G20G25G11G 1
  22428018.370   -15120549.62549 -11763019.97446  22428017.856    22428022.986
  23740154.267    -7682249.77049  -5976758.27345  23740153.474    23740160.427
  20728748.250   -25170061.52049 -19596821.27548  20728747.996    20728753.292
  21306006.617   -21904165.53549 -16459047.21347  21306006.269    21306011.089
  24578406.070    -3695978.65149  -2538917.10745  24578405.632    24578415.156
 03  4 13  3 11  0.0000000  0  5G14G20G25G11G 1
  22442274.047   -15045635.56049 -11704645.38946  22442273.537    22442278.665
  23723623.021    -7769121.86349  -6044450.73045  23723622.228    23723629.151
  20724906.959   -25190247.60049 -19612550.65948  20724906.706    20724911.989
  21302944.433   -21920257.31249 -16471586.24647  21302944.089    21302948.909
  24563100.923    -3776407.87049  -2601589.14645  24563100.392    24563109.929
 03  4 13  3 11 30.0000000  0  5G14G20G25G11G 1
  22456545.605   -14970638.17249 -11646205.87846  22456545.058    22456550.213
  23707094.133    -7855981.57949  -6112133.54645  23707093.331    23707100.322
  20721167.109   -25209900.41949 -19627864.51548  20721166.865    20721172.133
  21299987.524   -21935796.08849 -16483694.37447  21299987.156    21299991.983
  24547824.006    -3856687.87149  -2664144.89545  24547823.545    24547833.180
 03  4 13  3 12  0.0000000  0  5G14G20G25G11G 1
  22470832.784   -14895558.61949 -11587702.35046  22470832.256    22470837.353
  23690567.779    -7942827.71049  -6179805.78745  23690567.032    23690574.014
  20717528.856   -25229019.54949 -19642762.51048  20717528.613    20717533.879
  21297135.911   -21950781.36649 -16495371.20947  21297135.550    21297140.357
  24532575.691    -3936817.90949  -2726583.80845  24532575.132    24532584.971
 03  4 13  3 12 30.0000000  0  5G14G20G25G11G 1
  22485135.401   -14820397.81749 -11529135.49946  22485134.895    22485139.986
  23674044.211    -8029659.23049  -6247466.63945  23674043.511    23674050.404
  20713992.221   -25247604.50549 -19657244.27148  20713991.972    20713997.238
  21294389.761   -21965212.55049 -16506616.28847  21294389.401    21294394.185
  24517355.948    -4016797.68449  -2788905.65245  24517355.406    24517364.989
 03  4 13  3 13  0.0000000  0  5G14G20G25G11G 1
  22499453.174   -14745157.46749 -11470506.66346  22499452.683    22499457.760
  23657523.665    -8116475.31849  -6315115.46345  23657522.978    23657529.867
  20710557.208   -25265655.52649 -19671309.97748  20710556.960    20710562.215
  21291749.109   -21979089.24949 -16517429.29947  21291748.739    21291753.526
  24502164.825    -4096627.19849  -2851110.40145  24502164.375    24502173.906
 03  4 13  3 13 30.0000000  0  5G14G20G25G11G 1
  22513785.949   -14669838.27049 -11411816.38846  22513785.421    22513790.538
  23641006.293    -8203274.50249  -6382751.12345  23641005.593    23641012.490
  20707223.914   -25283171.90249 -19684959.08148  20707223.697    20707228.948
  21289214.139   -21992410.56649 -16527809.54247  21289213.794    21289218.558
  24487002.337    -4176305.69949  -2913197.44645  24487001.982    24487011.531
 03  4 13  3 14  0.0000000  0  5G14G20G25G11G 1
  22528133.442   -14594441.75049 -11353065.86246  22528132.938    22528138.021
  23624492.310    -8290055.79049  -6450372.84445  23624491.595    23624498.444
  20703992.482   -25300153.09749 -19698191.15448  20703992.264    20703997.508
  21286784.915   -22005176.19749 -16537756.78047  21286784.566    21286789.336
  24471868.752    -4255832.81849  -2975166.56345  24471868.349    24471877.999
 03  4 13  3 14 30.0000000  0  5G14G20G25G11G 1
  22542495.353   -14518969.42349 -11294256.26546  22542494.866    22542499.959
  23607981.844    -8376818.55949  -6517980.12345  23607981.075    23607987.948
  20700862.831   -25316599.39549 -19711006.43048  20700862.601    20700867.844
  21284461.391   -22017386.33349 -16547271.16747  21284461.044    21284465.802
  24456763.982    -4335208.66349  -3037017.79245  24456763.584    24456773.173
 03  4 13  3 15  0.0000000  0  5G14G20G25G11G 1
  22556871.563   -14443422.04649 -11235388.19746  22556871.033    22556876.181
  23591475.187    -8463561.33649  -6585571.84145  23591474.452    23591481.278
  20697835.078   -25332510.24949 -19723404.47648  20697834.857    20697840.092
  21282243.792   -22029039.92249 -16556351.88147  21282243.449    21282248.213
  24441688.124    -4414432.68349  -3098750.72745  24441687.802    24441697.222
 03  4 13  3 15 30.0000000  0  5G14G20G25G11G 1
  22571261.749   -14367801.25049 -11176462.91746  22571261.201    22571266.348
  23574972.571    -8550283.08049  -6653147.17645  23574971.807    23574978.614
  20694909.187   -25347885.81649 -19735385.41348  20694908.953    20694914.185
  21280132.148   -22040136.66249 -16564998.68747  21280131.801    21280136.555
  24426641.121    -4493504.76049  -3160365.23445  24426640.768    24426650.511
 03  4 13  3 16  0.0000000  0  5G14G20G25G11G 1
  22585665.740   -14292107.75949 -11117480.99546  22585665.219    22585670.349
  23558474.173    -8636982.61349  -6720705.19145  23558473.319    23558480.202
  20692085.223   -25362725.75849 -19746948.98248  20692084.998    20692090.222
  21278126.541   -22050676.21949 -16573211.33447  21278126.190    21278130.948
  24411623.203    -4572424.37949  -3221860.97045  24411622.676    24411632.453
 03  4 13  3 16 30.0000000  0  5G14G20G25G11G 1
  22600083.314   -14216343.04649 -11058443.55946  22600082.768    22600087.913
  23541980.099    -8723659.08249  -6788245.24946  23541979.287    23541986.127
  20689363.180   -25377030.03449 -19758095.14948  20689362.942    20689368.174
  21276226.981   -22060658.51549 -16580989.74447  21276226.615    21276231.372
  24396634.263    -4651191.41449  -3283237.78445  24396633.831    24396643.501
 03  4 13  3 17  0.0000000  0  5G14G20G25G11G 1
  22614514.200   -14140508.18349 -10999351.46246  22614513.688    22614518.790
  23525490.698    -8810311.20649  -6855766.31846  23525489.842    23525496.713
  20686743.112   -25390798.53449 -19768823.82648  20686742.876    20686748.106
  21274433.503   -22070083.16749 -16588333.63147  21274433.146    21274437.903
  24381674.508    -4729805.61549  -3344495.54345  24381674.049    24381683.529
 03  4 13  3 17 30.0000000  0  5G14G20G25G11G 1
  22628958.240   -14064604.19449 -10940205.51646  22628957.729    22628962.855
  23509006.173    -8896937.79649  -6923267.50346  23509005.384    23509012.166
  20684225.084   -25404030.87549 -19779134.71948  20684224.849    20684230.046
  21272746.285   -22078949.63249 -16595242.57047  21272745.934    21272750.690
  24366743.858    -4808266.42949  -3405633.76445  24366743.395    24366752.859
 03  4 13  3 18  0.0000000  0  5G14G20G25G11G 1
  22643415.118   -13988632.83949 -10881007.07046  22643414.600    22643419.726
  23492526.641    -8983538.13549  -6990748.24246  23492525.833    23492532.649
  20681808.924   -25416727.80849 -19789028.40848  20681808.682    20681813.879
  21271165.215   -22087258.18049 -16601716.76247  21271164.869    21271169.622
  24351842.340    -4886574.40749  -3466652.91345  24351841.802    24351851.267
 03  4 13  3 18 30.0000000  0  5G14G20G25G11G 1
  22657884.753   -13912594.44049 -10821756.38746  22657884.263    22657889.375
  23476052.429    -9070110.41049  -7058207.09046  23476051.677    23476058.399
  20679494.837   -25428888.32149 -19798504.11248  20679494.584    20679499.774
  21269690.478   -22095007.83749 -16607755.45647  21269690.130    21269694.900
  24336970.046    -4964728.57349  -3527552.19845  24336969.466    24336978.996
 03  4 13  3 19  0.0000000  0  5G14G20G25G11G 1
  22672366.825   -13836490.73149 -10762454.80146  22672366.298    22672371.447
  23459583.664    -9156654.03849  -7125643.62046  23459582.959    23459589.639
  20677282.761   -25440512.80549 -19807562.13148  20677282.515    20677287.694
  21268322.083   -22102198.81449 -16613358.81047  21268321.737    21268326.507
  24322127.008    -5042729.14549  -3588331.80345  24322126.433    24322135.896
 03  4 13  3 19 30.0000000  0  5G14G20G25G11G 1
  22686861.119   -13760322.65049 -10703103.06646  22686860.583    22686865.753
  23443120.737    -9243167.28649  -7193056.49346  23443120.016    23443126.658
  20675172.734   -25451601.07049 -19816202.31348  20675172.476    20675177.654
  21267060.008   -22108831.05249 -16618526.78547  21267059.671    21267064.432
  24307313.234    -5120575.58349  -3648991.30245  24307312.726    24307322.029
 03  4 13  3 20  0.0000000  0  5G14G20G25G11G 1
  22701367.555   -13684090.99049 -10643701.77346  22701366.981    22701372.164
  23426663.791    -9329649.04649  -7260444.83446  23426663.029    23426669.640
  20673164.743   -25462152.92749 -19824424.51848  20673164.486    20673169.657
  21265904.448   -22114903.58249 -16623258.62247  21265904.111    21265908.889
  24292528.939    -5198267.42149  -3709530.32845  24292528.442    24292537.777
 03  4 13  3 20 30.0000000  0  5G14G20G25G11G 1
  22715885.761   -13607797.15649 -10584252.05846  22715885.210    22715890.444
  23410212.959    -9416098.53449  -7327808.01746  23410212.178    23410218.819
  20671258.738   -25472168.91849 -19832229.16748  20671258.486    20671263.645
  21264855.333   -22120416.72849 -16627554.57547  21264854.987    21264859.741
  24277774.033    -5275804.57649  -3769948.82445  24277773.547    24277782.856
 03  4 13  3 21  0.0000000  0  5G14G20G25G11G 1
  22730415.654   -13531442.11749 -10524754.64946  22730415.101    22730420.320
  23393768.569    -9502514.14749  -7395144.82046  23393767.752    23393774.432
  20669454.768   -25481648.84849 -19839616.10648  20669454.534    20669459.683
  21263912.728   -22125370.15049 -16631414.38647  21263912.370    21263917.152
  24263048.622    -5353186.90749  -3830246.68045  24263048.150    24263057.440
 03  4 13  3 21 30.0000000  0  5G14G20G25G11G 1
  22744956.972   -13455027.06549 -10465210.46946  22744956.414    22744961.648
  23377330.817    -9588894.77649  -7462454.34346  23377330.042    23377336.701
  20667752.793   -25490592.65049 -19846585.28348  20667752.553    20667757.710
  21263076.664   -22129763.71049 -16634837.93647  21263076.309    21263081.070
  24248352.714    -5430414.27049  -3890423.77545  24248352.256    24248361.546
 03  4 13  3 22  0.0000000  0  5G14G20G25G11G 1
  22759509.508   -13378552.91549 -10405620.23146  22759508.960    22759514.197
  23360900.028    -9675239.06249  -7529735.55946  23360899.256    23360905.920
  20666152.832   -25499000.33249 -19853136.70548  20666152.590    20666157.754
  21262347.083   -22133597.63549 -16637825.41447  21262346.724    21262351.455
  24233686.314    -5507486.29249  -3950479.81845  24233685.848    24233695.190
 03  4 13  3 22 30.0000000  0  5G14G20G25G11G 1
  22774073.055   -13302021.09049 -10345985.06946  22774072.477    22774077.681
  23344476.314    -9761545.99849  -7596987.67646  23344475.556    23344482.121
  20664654.853   -25506872.22449 -19859270.62948  20664654.617    20664659.785
  21261724.017   -22136871.97249 -16640376.84847  21261723.655    21261728.409
  24219049.517    -5584402.96749  -4010414.80945  24219049.042    24219058.388
 03  4 13  3 23  0.0000000  0  5G14G20G25G11G 1
  22788647.446   -13225432.28549 -10286305.48946  22788646.908    22788652.067
  23328059.949    -9847814.33549  -7664209.72046  23328059.160    23328065.709
  20663258.811   -25514208.42349 -19864987.13048  20663258.574    20663263.738
  21261207.486   -22139586.36349 -16642491.95647  21261207.132    21261211.875
  24204442.286    -5661164.07649  -4070228.56145  24204441.824    24204451.141
 03  4 13  3 23 30.0000000  0  5G14G20G25G11G 1
  22803232.451   -13148787.63249 -10226582.39346  22803231.901    22803237.036
  23311651.201    -9934042.64549  -7731400.58146  23311650.410    23311656.892
  20661964.649   -25521009.20849 -19870286.42748  20661964.410    20661969.551
  21260797.516   -22141740.78449 -16644170.72247  21260797.146    21260801.899
  24189864.758    -5737769.21349  -4129920.80245  24189864.265    24189873.641
 03  4 13  3 24  0.0000000  0  5G14G20G25G11G 1
  22817827.915   -13072088.07749 -10166816.51146  22817827.346    22817832.527
  23295250.295   -10020229.81449  -7798559.37246  23295249.544    23295255.964
  20660772.312   -25527274.92549 -19875168.78748  20660772.065    20660777.215
  21260494.095   -22143335.29249 -16645413.19047  21260493.736    21260498.478
  24175316.899    -5814218.32249  -4189491.43045  24175316.417    24175325.777
 03  4 13  3 24 30.0000000  0  5G14G20G25G11G 1
  22832433.427   -12995335.31749 -10107009.18446  22832432.925    22832438.122
  23278857.419   -10106374.99149  -7865685.44946  23278856.653    23278863.008
  20659681.691   -25533006.09049 -19879634.61048  20659681.440    20659686.589
  21260297.085   -22144370.53749 -16646219.86647  21260296.733    21260301.487
  24160798.692    -5890511.63149  -4248940.67645  24160798.267    24160807.515
 03  4 13  3 25  0.0000000  0  5G14G20G25G11G 1
  22847049.117   -12918529.66249 -10047160.62946  22847048.558    22847053.743
  23262472.804   -10192476.34649  -7932777.37846  23262472.066    23262478.375
  20658692.901   -25538202.10949 -19883683.43648  20658692.655    20658697.798
  21260206.633   -22144845.85649 -16646590.23847  21260206.275    21260211.054
  24146310.283    -5966648.42949  -4308267.97745  24146309.897    24146319.059
 03  4 13  3 25 30.0000000  0  5G14G20G25G11G 1
  22861674.507   -12841672.57849  -9987271.99646  22861673.982    22861679.179
  23246096.705   -10278533.07949  -7999834.53646  23246095.962    23246102.233
  20657805.834   -25542863.62549 -19887315.76748  20657805.599    20657810.742
  21260222.643   -22144761.67649 -16646524.63547  21260222.304    21260227.060
  24131851.554    -6042628.95149  -4367473.47345  24131851.077    24131860.343
 03  4 13  3 26  0.0000000  0  5G14G20G25G11G 1
  22876309.580   -12764764.56049  -9927343.66646  22876309.061    22876314.277
  23229729.469   -10364543.30949  -8066855.45646  23229728.694    23229735.062
  20657020.469   -25546990.66949 -19890531.62748  20657020.222    20657025.364
  21260345.236   -22144117.47649 -16646022.65547  21260344.890    21260349.650
  24117422.727    -6118452.52149  -4426556.67345  24117422.276    24117431.496
 03  4 13  3 26 30.0000000  0  5G14G20G25G11G 1
  22890954.107   -12687807.56749  -9867377.18746  22890953.493    22890958.700
  23213371.189   -10450506.39849  -8133839.64346  23213370.408    23213376.791
  20656336.632   -25550584.13649 -19893331.71148  20656336.386    20656341.513
  21260574.189   -22142914.31649 -16645085.12247  21260573.841    21260578.600
  24103023.702    -6194119.75449  -4485518.07745  24103023.204    24103032.390
 03  4 13  3 27  0.0000000  0  5G14G20G25G11G 1
  22905607.811   -12610801.56349  -9807372.51246  22905607.288    22905612.454
  23197022.282   -10536420.24149  -8200785.45846  23197021.476    23197027.926
  20655754.439   -25553643.59649 -19895715.68448  20655754.179    20655759.312
  21260909.603   -22141151.62149 -16643711.58647  21260909.259    21260914.004
  24088654.578    -6269629.63049  -4544356.86045  24088654.131    24088663.245
 03  4 13  3 27 30.0000000  0  5G14G20G25G11G 1
  22920270.570   -12533748.29249  -9747331.00646  22920270.067    22920275.228
  23180682.846   -10622284.43849  -8267692.58846  23180682.058    23180688.526
  20655273.648   -25556170.06249 -19897684.34348  20655273.402    20655278.518
  21261351.348   -22138830.24049 -16641902.71147  21261350.993    21261355.744
  24074315.319    -6344982.81249  -4603073.55445  24074314.778    24074323.895
 03  4 13  3 28  0.0000000  0  5G14G20G25G11G 1
  22934942.220   -12456648.44449  -9687253.20146  22934941.690    22934946.856
  23164353.179   -10708097.24049  -8334559.66846  23164352.382    23164358.884
  20654894.266   -25558163.68549 -19899237.79548  20654894.024    20654899.118
  21261899.463   -22135949.93649 -16639658.31047  21261899.104    21261903.853
  24060005.969    -6420178.72649  -4661667.67045  24060005.475    24060014.368
 03  4 13  3 28 30.0000000  0  5G14G20G25G11G 1
  22949622.505   -12379502.86649  -9627139.77046  22949621.988    22949627.151
  23148033.576   -10793857.21149  -8401385.58046  23148032.780    23148039.281
  20654616.204   -25559624.92049 -19900376.40348  20654615.947    20654621.051
  21262553.848   -22132510.98249 -16636978.59647  21262553.490    21262558.249
  24045726.528    -6495217.26849  -4720139.18445  24045726.070    24045735.015
 03  4 13  3 29  0.0000000  0  5G14G20G25G11G 1
  22964311.345   -12302312.39449  -9566991.37246  22964310.868    22964315.998
  23131724.287   -10879562.86249  -8468169.16146  23131723.481    23131729.999
  20654439.470   -25560553.58049 -19901100.01748  20654439.229    20654444.315
  21263314.573   -22128513.30849 -16633863.51547  21263314.204    21263318.978
  24031477.076    -6570098.17949  -4778487.85245  24031476.635    24031485.617
 03  4 13  3 29 30.0000000  0  5G14G20G25G11G 1
  22979008.489   -12225078.52449  -9506809.13046  22979007.974    22979013.105
  23115425.540   -10965213.21549  -8534909.63846  23115424.734    23115431.269
  20654363.839   -25560950.85549 -19901409.56348  20654363.592    20654368.676
  21264181.460   -22123957.72149 -16630313.69947  21264181.104    21264185.890
  24017257.589    -6644821.84149  -4836713.99845  24017257.158    24017266.126
 03  4 13  3 30  0.0000000  0  5G14G20G25G11G 1
  22993713.841   -12147801.87149  -9446593.56546  22993713.283    22993718.381
  23099137.612   -11050806.59049  -8601605.71346  23099136.800    23099143.360
  20654389.358   -25560816.84249 -19901305.12048  20654389.114    20654394.192
  21265154.517   -22118844.17049 -16626329.10747  21265154.150    21265158.946
  24003068.134    -6719387.65149  -4894817.13945  24003067.673    24003076.555
 03  4 13  3 30 30.0000000  0  5G14G20G25G11G 1
  23008427.061   -12070483.70949  -9386345.65346  23008426.458    23008431.549
  23082860.718   -11136342.19849  -8668256.78146  23082859.889    23082866.444
  20654515.745   -25560152.45849 -19900787.39948  20654515.506    20654520.574
  21266233.613   -22113173.44949 -16621910.35647  21266233.263    21266238.050
  23988908.623    -6793796.02249  -4952797.60145  23988908.125    23988917.009
 03  4 13  3 31  0.0000000  0  5G14G20G25G11G 1
  23023147.990   -11993124.57949  -9326065.81846  23023147.396    23023152.519
  23066595.142   -11221818.09449  -8734861.31246  23066594.329    23066600.878
  20654743.096   -25558957.62349 -19899856.33848  20654742.849    20654747.922
  21267418.770   -22106945.45149 -16617057.36747  21267418.403    21267423.201
  23974779.193    -6868046.39149  -5010654.94945  23974778.646    23974787.661
 03  4 13  3 31 30.0000000  0  5G14G20G25G11G 1
  23037876.608   -11915724.81249  -9265754.30846  23037876.111    23037881.192
  23050341.290   -11307232.60249  -8801418.01146  23050340.491    23050347.004
  20655071.357   -25557232.62949 -19898512.16948  20655071.132    20655076.186
  21268709.911   -22100160.25549 -16611770.19747  21268709.559    21268714.350
  23960679.894    -6942138.26749  -5068388.79345  23960679.467    23960688.326
 03  4 13  3 32  0.0000000  0  5G14G20G25G11G 1
  23052612.634   -11838286.43249  -9205412.72646  23052612.179    23052617.247
  23034099.179   -11392585.12349  -8867926.39946  23034098.396    23034104.889
  20655500.258   -25554978.54749 -19896755.72548  20655500.025    20655505.089
  21270106.970   -22092818.82249 -16606049.60547  21270106.602    21270111.392
  23946610.597    -7016072.43849  -5125999.74545  23946610.217    23946619.040
 03  4 13  3 32 30.0000000  0  5G14G20G25G11G 1
  23067355.993   -11760809.62849  -9145041.19346  23067355.493    23067360.560
  23017869.298   -11477873.65149  -8934384.92646  23017868.501    23017874.984
  20656029.893   -25552195.32749 -19894586.96248  20656029.658    20656034.719
  21271609.798   -22084921.22949 -16599895.63547  21271609.451    21271614.218
  23932571.472    -7089848.28249  -5183487.35745  23932570.956    23932579.987
 03  4 13  3 33  0.0000000  0  5G14G20G25G11G 1
  23082106.469   -11683295.57049  -9084640.63646  23082105.930    23082111.039
  23001651.781   -11563096.93849  -9000792.61746  23001650.988    23001657.474
  20656660.023   -25548883.89549 -19892006.61048  20656659.792    20656664.840
  21273218.356   -22076468.30549 -16593308.94247  21273218.008    21273222.776
  23918562.437    -7163466.00649  -5240851.74445  23918561.884    23918570.860
 03  4 13  3 33 30.0000000  0  5G14G20G25G11G 1
  23096863.781   -11605745.35549  -9024211.90346  23096863.244    23096868.363
  22985446.892   -11648254.00549  -9067148.71146  22985446.117    22985452.581
  20657390.523   -25545044.92649 -19889015.18548  20657390.276    20657395.334
  21274932.493   -22067460.34949 -16586289.76247  21274932.141    21274936.927
  23904583.502    -7236925.71349  -5298093.02145  23904582.982    23904591.817
 03  4 13  3 34  0.0000000  0  5G14G20G25G11G 1
  23111627.880   -11528159.70649  -8963755.56746  23111627.373    23111632.444
  22969254.962   -11733343.02449  -9133451.78046  22969254.196    22969260.574
  20658221.294   -25540679.10949 -19885613.23548  20658221.061    20658226.112
  21276752.199   -22057897.82749 -16578838.45847  21276751.851    21276756.626
  23890634.623    -7310227.17849  -5355210.96445  23890634.108    23890642.979
 03  4 13  3 34 30.0000000  0  5G14G20G25G11G 1
  23126398.646   -11450538.88949  -8903271.82646  23126398.137    23126403.170
  22953076.292   -11818362.15749  -9199700.39946  22953075.517    22953081.867
  20659152.302   -25535786.59649 -19881800.87248  20659152.057    20659157.129
  21278677.439   -22047780.62249 -16570954.93347  21278677.098    21278681.867
  23876716.014    -7383369.70449  -5412205.07545  23876715.444    23876724.294
 03  4 13  3 35  0.0000000  0  5G14G20G25G11G 1
  23141175.788   -11372884.48149  -8842761.89346  23141175.248    23141180.285
  22936911.142   -11903310.56349  -9265893.90046  22936910.338    22936916.696
  20660183.297   -25530368.57749 -19877579.02048  20660183.053    20660188.103
  21280707.978   -22037110.21549 -16562640.33947  21280707.623    21280712.389
  23862827.557    -7456353.74449  -5469075.66945  23862826.999    23862835.856
 03  4 13  3 35 30.0000000  0  5G14G20G25G11G 1
  23155959.237   -11295197.42149  -8782226.51646  23155958.613    23155963.725
  22920759.723   -11988186.51449  -9332030.95046  22920758.949    22920765.266
  20661314.166   -25524425.77349 -19872948.24948  20661313.920    20661318.970
  21282843.715   -22025886.80049 -16553894.82547  21282843.364    21282848.144
  23848969.258    -7529179.37349  -5525822.85145  23848968.742    23848977.569
 03  4 13  3 36  0.0000000  0  5G14G20G25G11G 1
  23170748.649   -11217478.31949  -8721666.18746  23170748.045    23170753.153
  22904622.405   -12072988.64149  -9398110.47546  22904621.621    22904627.950
  20662544.796   -25517958.72249 -19867908.97248  20662544.558    20662549.600
  21285084.580   -22014110.97049 -16544718.85347  21285084.233    21285089.012
  23835141.093    -7601846.46249  -5582446.46145  23835140.585    23835149.389
 03  4 13  3 36 30.0000000  0  5G14G20G25G11G 1
  23185544.152   -11139727.56049  -8661081.19746  23185543.562    23185548.683
  22888499.488   -12157715.04349  -9464130.98446  22888498.702    22888504.967
  20663875.136   -25510967.65549 -19862461.37448  20663874.887    20663879.942
  21287430.547   -22001782.82949 -16535112.51247  21287430.189    21287434.973
  23821343.177    -7674354.75749  -5638946.35945  23821342.687    23821351.428
 03  4 13  3 37  0.0000000  0  5G14G20G25G11G 1
  23200345.455   -11061945.87149  -8600472.10046  23200344.885    23200350.005
  22872391.232   -12242364.28349  -9530091.38546  22872390.493    22872396.678
  20665305.039   -25503453.47349 -19856606.14948  20665304.787    20665309.832
  21289881.458   -21988903.10649 -16525076.35947  21289881.102    21289885.893
  23807575.488    -7746704.09749  -5695322.36445  23807574.999    23807583.788
 03  4 13  3 37 30.0000000  0  5G14G20G25G11G 1
  23215152.331   -10984134.89749  -8539840.17546  23215151.885    23215157.016
  22856297.796   -12326935.55449  -9595991.02346  22856297.055    22856303.227
  20666834.246   -25495417.36149 -19850344.22748  20666833.999    20666839.041
  21292437.161   -21975472.94649 -16514611.30247  21292436.793    21292441.581
  23793837.924    -7818895.08749  -5751574.98945  23793837.379    23793846.182
 03  4 13  3 38  0.0000000  0  5G14G20G25G11G 1
  23229964.870   -10906294.57349  -8479185.38546  23229964.430    23229969.509
  22840219.665   -12411426.47249  -9661828.05346  22840218.906    22840225.063
  20668462.725   -25486859.49549 -19843675.74048  20668462.481    20668467.514
  21295097.571   -21961492.34549 -16503717.33047  21295097.221    21295101.988
  23780130.661    -7890926.87749  -5807703.57445  23780130.108    23780138.866
 03  4 13  3 38 30.0000000  0  5G14G20G25G11G 1
  23244782.652   -10828426.65349  -8418509.09046  23244782.202    23244787.315
  22824156.981   -12495836.38249  -9727601.97046  22824156.206    22824162.344
  20670190.253   -25477781.34949 -19836601.83948  20670190.005    20670195.033
  21297862.404   -21946963.06049 -16492395.80647  21297862.037    21297866.811
  23766453.575    -7962800.28749  -5863708.72145  23766453.017    23766461.796
 03  4 13  3 39  0.0000000  0  5G14G20G25G11G 1
  23259605.615   -10750531.46549  -8357811.53946  23259605.101    23259610.332
  22808110.052   -12580163.37049  -9793311.26246  22808109.275    22808115.364
  20672016.681   -25468183.36049 -19829122.87248  20672016.421    20672021.458
  21300731.607   -21931885.31349 -16480646.91547  21300731.251    21300736.013
  23752806.684    -8034514.84749  -5919590.11045  23752806.145    23752814.803
 03  4 13  3 39 30.0000000  0  5G14G20G25G11G 1
  23274433.669   -10672609.75449  -8297093.35346  23274433.095    23274438.342
  22792079.173   -12664405.84649  -9858954.69846  22792078.433    22792084.505
  20673941.825   -25458066.46349 -19821239.55648  20673941.568    20673946.599
  21303705.105   -21916259.49549 -16468470.95547  21303704.742    21303709.519
  23739190.010    -8106070.64149  -5975347.77545  23739189.461    23739198.103
 03  4 13  3 40  0.0000000  0  5G14G20G25G11G 1
  23289266.479   -10594662.53049  -8236355.26846  23289265.946    23289271.241
  22776064.651   -12748562.57649  -9924531.31846  22776063.909    22776069.950
  20675965.568   -25447431.61949 -19812952.64648  20675965.337    20675970.350
  21306782.684   -21900086.60649 -16455868.70647  21306782.341    21306787.106
  23725603.516    -8177467.73349  -6030981.76845  23725602.946    23725611.572
 03  4 13  3 40 30.0000000  0  5G14G20G25G11G 1
  23304104.056   -10516690.35749  -8175597.74546  23304103.535    23304108.838
  22760066.810   -12832631.63149  -9990039.61446  22760066.034    22760072.125
  20678087.750   -25436279.38949 -19804262.58148  20678087.508    20678092.502
  21309964.229   -21883367.37549 -16442840.74047  21309963.899    21309968.669
  23712047.292    -8248705.81149  -6086491.85745  23712046.752    23712055.401
 03  4 13  3 41  0.0000000  0  5G14G20G25G11G 1
  23318946.381   -10438693.54949  -8114821.01946  23318945.870    23318951.153
  22744085.995   -12916610.97149 -10055478.02046  22744085.237    22744091.307
  20680308.292   -25424610.19649 -19795169.68948  20680308.051    20680313.033
  21313249.648   -21866102.60749 -16429387.67447  21313249.294    21313254.062
  23698521.351    -8319784.67949  -6141877.86745  23698520.786    23698529.424
 03  4 13  3 41 30.0000000  0  5G14G20G25G11G 1
  23333793.085   -10360673.58249  -8054026.24946  23333792.621    23333797.886
  22728122.361   -13000500.13649 -10120846.15246  22728121.629    22728127.674
  20682626.878   -25412425.96649 -19785675.47048  20682626.636    20682631.610
  21316638.612   -21848293.57949 -16415510.51147  21316638.248    21316643.005
  23685025.512    -8390705.14849  -6197140.48245  23685024.978    23685033.594
 03  4 13  3 42  0.0000000  0  5G14G20G25G11G 1
  23348644.090   -10282630.90849  -7993213.79346  23348643.650    23348648.844
  22712176.297   -13084296.91749 -10186142.29746  22712175.588    22712181.630
  20685043.359   -25399727.27249 -19775780.37148  20685043.113    20685048.083
  21320131.080   -21829940.57249 -16401209.46347  21320130.711    21320135.468
  23671559.927    -8461466.73749  -6252279.27545  23671559.451    23671568.022
 03  4 13  3 42 30.0000000  0  5G14G20G25G11G 1
  23363499.322   -10204566.28949  -7932384.22946  23363498.816    23363504.062
  22696248.151   -13167999.76249 -10251365.24246  22696247.445    22696253.461
  20687557.554   -25386514.89749 -19765485.00048  20687557.312    20687562.285
  21323726.845   -21811044.62249 -16386485.34247  21323726.481    21323731.263
  23658124.588    -8532069.63049  -6307294.42045  23658124.021    23658132.599
 03  4 13  3 43  0.0000000  0  5G14G20G25G11G 1
  23378358.465   -10126480.98949  -7871538.54946  23378357.950    23378363.195
  22680338.032   -13251607.64149 -10316514.19046  22680337.309    22680343.351
  20690169.226   -25372790.40849 -19754790.58148  20690168.994    20690173.952
  21327425.674   -21791606.92349 -16371339.07947  21327425.331    21327430.127
  23644719.381    -8602514.16049  -6362186.16345  23644718.792    23644727.389
 03  4 13  3 43 30.0000000  0  5G14G20G25G11G 1
  23393221.681   -10048374.39949  -7810676.29346  23393221.150    23393226.381
  22664446.565   -13335117.82249 -10381587.01646  22664445.821    22664451.899
  20692878.402   -25358553.70649 -19743697.04048  20692878.159    20692883.125
  21331227.612   -21771627.53949 -16355770.73247  21331227.269    21331232.073
  23631344.446    -8672799.32749  -6416953.70945  23631343.961    23631352.456
 03  4 13  3 44  0.0000000  0  5G14G20G25G11G 1
  23408088.582    -9970248.55149  -7749799.01946  23408087.997    23408093.280
  22648573.758   -13418529.81949 -10446583.33146  22648572.980    22648579.044
  20695684.619   -25343806.75649 -19732205.90348  20695684.386    20695689.350
  21335132.247   -21751108.55649 -16339781.91447  21335131.926    21335136.737
  23617999.668    -8742926.35549  -6471598.04445  23617999.150    23618007.656
 03  4 13  3 44 30.0000000  0  5G14G20G25G11G 1
  23422959.122    -9892103.30349  -7688906.62846  23422958.553    23422963.860
  22632720.110   -13501841.12749 -10511501.18646  22632719.345    22632725.412
  20698587.910   -25328549.90949 -19720317.44148  20698587.676    20698592.644
  21339139.564   -21730049.97449 -16323372.63047  21339139.211    21339144.047
  23604685.120    -8812894.27749  -6526118.38845  23604684.667    23604693.078
 03  4 13  3 45  0.0000000  0  5G14G20G25G11G 1
  23437833.175    -9813939.71449  -7627999.96146  23437832.616    23437837.857
  22616885.866   -13585050.54549 -10576339.65146  22616885.106    22616891.154
  20701587.939   -25312784.51949 -19708032.71548  20701587.709    20701592.657
  21343249.233   -21708453.52049 -16306544.23047  21343248.876    21343253.718
  23591400.780    -8882703.57549  -6580515.15545  23591400.343    23591408.737
 03  4 13  3 45 30.0000000  0  5G14G20G25G11G 1
  23452710.598    -9735758.70449  -7567079.71346  23452709.967    23452715.166
  22601071.304   -13668156.52749 -10641097.51346  22601070.554    22601076.558
  20704684.519   -25296511.79749 -19695352.66348  20704684.305    20704689.242
  21347461.107   -21686320.00349 -16289297.33747  21347460.750    21347465.597
  23578146.558    -8952354.65549  -6634788.61345  23578146.070    23578154.417
 03  4 13  3 46  0.0000000  0  5G14G20G25G11G 1
  23467591.284    -9657560.17849  -7506145.83046  23467590.615    23467595.823
  22585276.791   -13751156.97949 -10705773.15146  22585276.019    22585282.017
  20707877.619   -25279731.91649 -19682277.42148  20707877.405    20707882.342
  21351775.074   -21663649.83549 -16271632.27347  21351774.734    21351779.584
  23564922.565    -9021846.79749  -6688938.22445  23564922.084    23564930.430
 03  4 13  3 46 30.0000000  0  5G14G20G25G11G 1
  23482475.097    -9579345.22449  -7445199.13246  23482474.481    23482479.693
  22569502.634   -13834050.57649 -10770365.52046  22569501.869    22569507.849
  20711166.905   -25262446.66549 -19668808.38248  20711166.678    20711171.618
  21356190.832   -21640445.00249 -16253550.58647  21356190.487    21356195.351
  23551728.692    -9091180.50049  -6742964.39045  23551728.228    23551736.523
 03  4 13  3 47  0.0000000  0  5G14G20G25G11G 1
  23497361.862    -9501114.66249  -7384240.27145  23497361.315    23497366.416
  22553749.157   -13916835.65349 -10834873.33146  22553748.375    22553754.380
  20714552.053   -25244657.49149 -19654946.67348  20714551.814    20714556.765
  21360708.216   -21616706.04449 -16235052.69647  21360707.850    21360712.710
  23538564.962    -9160355.75449  -6796867.08245  23538564.491    23538572.813
 03  4 13  3 47 30.0000000  0  5G14G20G25G11G 1
  23512251.621    -9422868.80149  -7323269.48545  23512251.027    23512256.212
  22538016.618   -13999510.37549 -10899295.15446  22538015.856    22538021.842
  20718033.041   -25226364.73549 -19640692.56748  20718032.814    20718037.749
  21365327.076   -21592433.80749 -16216139.26647  21365326.712    21365331.561
  23525431.464    -9229372.37849  -6850646.17245  23525430.984    23525439.256
 03  4 13  3 48  0.0000000  0  5G14G20G25G11G 1
  23527144.064    -9344608.61949  -7262287.54645  23527143.497    23527148.639
  22522305.398   -14082073.28449 -10963629.84246  22522304.633    22522310.604
  20721609.525   -25207570.02849 -19626047.32848  20721609.298    20721614.247
  21370047.095   -21567630.03449 -16196811.65247  21370046.744    21370051.570
  23512327.980    -9298231.05949  -6904302.20445  23512327.564    23512335.791
 03  4 13  3 48 30.0000000  0  5G14G20G25G11G 1
  23542039.087    -9266334.52649  -7201294.77445  23542038.536    23542043.684
  22506615.846   -14164522.29749 -11027875.78046  22506615.084    22506621.044
  20725281.370   -25188274.43549 -19611011.78748  20725281.136    20725286.057
  21374868.064   -21542295.57449 -16177070.51947  21374867.707    21374872.541
  23499254.693    -9366931.40349  -6957834.84846  23499254.235    23499262.430
 03  4 13  3 49  0.0000000  0  5G14G20G25G11G 1
  23556936.764    -9188047.09349  -7140291.59345  23556936.153    23556941.285
  22490948.217   -14246855.99649 -11092031.86246  22490947.461    22490953.444
  20729048.313   -25168479.04349 -19595586.79048  20729048.089    20729052.999
  21379789.828   -21516431.57649 -16156916.75547  21379789.480    21379794.313
  23486211.512    -9435473.47249  -7011244.17246  23486210.985    23486219.208
 03  4 13  3 49 30.0000000  0  5G14G20G25G11G 1
  23571836.756    -9109747.24549  -7079278.75045  23571836.157    23571841.252
  22475302.851   -14329072.70049 -11156096.77846  22475302.072    22475308.081
  20732910.104   -25148185.11349 -19579773.32548  20732909.875    20732914.797
  21384812.090   -21490039.51949 -16136351.51447  21384811.733    21384816.555
  23473198.369    -9503857.53749  -7064530.37146  23473197.864    23473206.000
 03  4 13  3 50  0.0000000  0  5G14G20G25G11G 1
  23586738.968    -9031435.68249  -7018256.77645  23586738.380    23586743.475
  22459680.055   -14411170.81849 -11220069.29246  22459679.297    22459685.249
  20736866.500   -25127393.95549 -19563572.40948  20736866.276    20736871.190
  21389934.629   -21463120.40549 -16115375.58147  21389934.257    21389939.080
  23460215.375    -9572083.56049  -7117693.42946  23460214.851    23460222.935
 03  4 13  3 50 30.0000000  0  5G14G20G25G11G 1
  23601643.273    -8953112.92649  -6957226.07545  23601642.703    23601647.878
  22444080.194   -14493148.44749 -11283947.91646  22444079.457    22444085.358
  20740917.295   -25106106.91349 -19546985.09548  20740917.072    20740921.974
  21395157.202   -21435675.60249 -16093990.01947  21395156.841    21395161.644
  23447262.376    -9640151.74449  -7170733.49446  23447261.818    23447269.927
 03  4 13  3 51  0.0000000  0  5G14G20G25G11G 1
  23616549.772    -8874778.91449  -6896186.60745  23616549.183    23616554.423
  22428503.645   -14575003.54849 -11347731.07246  22428502.891    22428508.792
  20745062.333   -25084324.57549 -19530011.83348  20745062.102    20745067.026
  21400479.702   -21407705.64449 -16072195.24247  21400479.356    21400484.140
  23434339.474    -9708061.71349  -7223650.29346  23434338.955    23434346.988
 03  4 13  3 51 30.0000000  0  5G14G20G25G11G 1
  23631458.133    -8796434.95849  -6835139.39545  23631457.533    23631462.777
  22412950.683   -14656734.72149 -11411417.65746  22412949.948    22412955.814
  20749301.183   -25062049.08649 -19512654.29548  20749300.968    20749305.867
  21405901.791   -21379212.48149 -16049992.77247  21405901.433    21405906.197
  23421446.585    -9775814.00449  -7276444.20146  23421446.070    23421454.103
 03  4 13  3 52  0.0000000  0  5G14G20G25G11G 1
  23646368.332    -8718081.57349  -6774084.84745  23646367.769    23646372.969
  22397421.663   -14738340.12249 -11475006.23846  22397420.928    22397426.778
  20753633.798   -25039281.02349 -19494912.93848  20753633.569    20753638.472
  21411423.217   -21350197.31549 -16027383.55347  21411422.860    21411427.607
  23408583.721    -9843408.55949  -7329115.21546  23408583.185    23408591.246
 03  4 13  3 52 30.0000000  0  5G14G20G25G11G 1
  23661280.270    -8639719.06249  -6713023.17945  23661279.677    23661284.887
  22381916.894   -14819818.18049 -11538495.59446  22381916.132    22381921.957
  20758059.847   -25016021.98049 -19476788.99848  20758059.604    20758064.519
  21417043.675   -21320661.46949 -16004368.60647  21417043.310    21417048.074
  23395750.798    -9910845.71449  -7381663.58146  23395750.238    23395758.345
 03  4 13  3 53  0.0000000  0  5G14G20G25G11G 1
  23676193.831    -8561347.39849  -6651954.37245  23676193.343    23676198.555
  22366436.763   -14901166.48449 -11601883.84046  22366436.008    22366441.846
  20762579.167   -24992272.68749 -19458283.04348  20762578.936    20762583.844
  21422763.073   -21290605.91949 -15980948.69747  21422762.710    21422767.469
  23382947.936    -9978124.92349  -7434088.86946  23382947.392    23382955.518
 03  4 13  3 53 30.0000000  0  5G14G20G25G11G 1
  23691108.959    -8482968.02249  -6590879.55845  23691108.476    23691113.758
  22350981.586   -14982383.81449 -11665170.03046  22350980.838    22350986.677
  20767191.424   -24968035.01449 -19439396.53748  20767191.183    20767196.103
  21428580.998   -21260032.39949 -15957125.18347  21428580.642    21428585.401
  23370174.975   -10045246.90149  -7486391.65146  23370174.425    23370182.433
 03  4 13  3 54  0.0000000  0  5G14G20G25G11G 1
  23706025.464    -8404581.49249  -6529799.16445  23706024.841    23706030.208
  22335551.655   -15063468.36249 -11728352.75546  22335550.900    22335556.745
  20771896.329   -24943310.53649 -19420130.69948  20771896.086    20771901.012
  21434497.281   -21228942.15249 -15932899.01847  21434496.917    21434501.671
  23357431.936   -10112211.85949  -7538572.06946  23357431.427    23357439.417
 03  4 13  3 54 30.0000000  0  5G14G20G25G11G 1
  23720943.263    -8326187.82849  -6468713.22445  23720942.723    23720948.163
  22320147.416   -15144418.04149 -11791430.38046  22320146.634    22320152.504
  20776693.646   -24918100.41549 -19400486.43748  20776693.414    20776698.325
  21440511.629   -21197336.49749 -15908271.23747  21440511.253    21440516.023
  23344718.835   -10179019.35949  -7590629.80446  23344718.308    23344726.234
 03  4 13  3 55  0.0000000  0  5G14G20G25G11G 1
  23735862.255    -8247787.98149  -6407622.43545  23735861.764    23735867.192
  22304769.099   -15225231.48049 -11854401.85346  22304768.330    22304774.182
  20781583.110   -24892406.03349 -19380464.83348  20781582.870    20781587.818
  21446623.746   -21165217.20349 -15883243.21847  21446623.372    21446628.139
  23332035.624   -10245669.97649  -7642565.29546  23332035.098    23332042.997
 03  4 13  3 55 30.0000000  0  5G14G20G25G11G 1
  23750782.373    -8169382.50849  -6346527.28145  23750781.876    23750787.284
  22289417.058   -15305906.81649 -11917265.71446  22289416.288    22289422.136
  20786564.444   -24866228.88849 -19360067.04748  20786564.211    20786569.144
  21452833.317   -21132585.63349 -15857816.02047  21452832.943    21452837.714
  23319382.168   -10312163.94449  -7694378.71146  23319381.708    23319389.529
 03  4 13  3 56  0.0000000  0  5G14G20G25G11G 1
  23765703.437    -8090971.59849  -6285427.88545  23765703.005    23765708.428
  22274091.738   -15386441.76049 -11980020.17746  22274090.988    22274096.822
  20791637.464   -24839569.85649 -19339293.77048  20791637.229    20791642.184
  21459140.158   -21099442.89249 -15831990.51347  21459139.797    21459144.565
  23306758.641   -10378500.88149  -7746069.77046  23306758.167    23306765.997
 03  4 13  3 56 30.0000000  0  5G14G20G25G11G 1
  23780625.414    -8012556.04649  -6224324.86545  23780625.006    23780630.434
  22258793.409   -15466834.83949 -12042664.10146  22258792.669    22258798.524
  20796801.855   -24812430.69549 -19318146.36748  20796801.624    20796806.556
  21465543.937   -21065790.69449 -15805768.02947  21465543.583    21465548.345
  23294164.900   -10444681.09349  -7797638.67746  23294164.406    23294172.274
 03  4 13  3 57  0.0000000  0  6G14G20G25G16G11G 1
  23795548.042    -7934137.21349  -6163219.30645  23795547.586    23795553.050
  22243522.249   -15547085.19949 -12105196.81147  22243521.501    22243527.360
  20802057.234   -24784813.51449 -19296626.47948  20802057.016    20802061.950
  24691117.826    -4465097.65649  -3311775.85445  24691117.105    24691123.899
  21472044.252   -21031631.33549 -15779150.35347  21472043.913    21472048.678
  23281600.729   -10510705.87249  -7849086.46846  23281600.254    23281608.103
 03  4 13  3 57 30.0000000  0  6G14G20G25G16G11G 1
  23810470.884    -7855716.91449  -6102112.58445  23810470.484    23810475.846
  22228278.359   -15627192.26249 -12167617.86347  22228277.604    22228283.471
  20807403.003   -24756721.24749 -19274736.39848  20807402.775    20807407.717
  24674273.899    -4553614.08849  -3380749.74845  24674273.265    24674279.428
  21478640.468   -20996968.03049 -15752139.99747  21478640.127    21478644.884
  23269065.906   -10576576.58649  -7900414.22646  23269065.391    23269073.263
 03  4 13  3 58  0.0000000  0  6G14G20G25G16G11G 1
  23825394.775    -7777291.57249  -6041001.94045  23825394.363    23825399.705
  22213062.841   -15707150.07149 -12229922.61347  22213062.097    22213067.971
  20812839.624   -24728151.60549 -19252474.33648  20812839.381    20812844.327
  24657418.082    -4642191.97149  -3449771.49645  24657417.406    24657423.451
  21485333.026   -20961798.23949 -15724734.98047  21485332.694    21485337.454
  23256561.148   -10642289.17249  -7951618.74646  23256560.588    23256568.478
 03  4 13  3 58 30.0000000  0  6G14G20G25G16G11G 1
  23840319.437    -7698862.26949  -5979888.20545  23840318.941    23840324.310
  22197875.992   -15786957.42949 -12292110.12547  22197875.201    22197881.115
  20818366.732   -24699106.52249 -19229841.80448  20818366.495    20818371.439
  24640550.728    -4730828.90149  -3518839.08745  24640549.992    24640556.665
  21492121.649   -20926123.85649 -15696936.77647  21492121.314    21492126.102
  23244086.345   -10707844.36949  -8002700.63446  23244085.804    23244093.674
 03  4 13  3 59  0.0000000  0  6G14G20G25G16G11G 1
  23855244.542    -7620430.15349  -5918772.29445  23855244.067    23855249.462
  22182718.015   -15866613.05649 -12354179.40647  22182717.234    22182723.112
  20823983.905   -24669588.03349 -19206840.38148  20823983.666    20823988.616
  24623673.148    -4819522.57149  -3587951.04345  24623672.276    24623679.065
  21499005.855   -20889947.21149 -15668747.19847  21499005.508    21499010.303
  23231641.367   -10773243.01849  -8053660.52846  23231640.790    23231648.656
 03  4 13  3 59 30.0000000  0  6G14G20G25G16G11G 1
  23870170.018    -7541996.23049  -5857654.94845  23870169.644    23870174.995
  22167589.132   -15946115.54449 -12416129.35247  22167588.378    22167594.251
  20829690.786   -24639598.11749 -19183471.61448  20829690.555    20829695.500
  24606784.771    -4908271.18049  -3657105.81444  24606783.949    24606790.242
  21505985.229   -20853270.38049 -15640167.86647  21505984.876    21505989.671
  23219225.982   -10838485.80749  -8104498.98346  23219225.435    23219233.255
 03  4 13  4  0  0.0000000  0  6G14G20G25G16G11G 1
  23885095.998    -7463560.03349  -5796535.83745  23885095.543    23885100.939
  22152489.870   -16025462.48249 -12477958.09247  22152489.121    22152495.010
  20835487.202   -24609137.70949 -19159736.22848  20835486.963    20835491.917
  24589886.479    -4997071.06049  -3726300.46145  24589885.796    24589892.127
  21513059.591   -20816094.40449 -15611199.58747  21513059.239    21513064.037
  23206840.418   -10903572.11149  -8155215.51246  23206839.849    23206847.691
 03  4 13  4  0 30.0000000  0  6G14G20G25G16G11G 1
  23900021.994    -7385123.52349  -5735416.49645  23900021.539    23900026.951
  22137420.338   -16104653.18349 -12539665.08847  22137419.603    22137425.453
  20841372.613   -24578209.54549 -19135636.35848  20841372.378    20841377.333
  24572979.224    -5085920.63049  -3795533.88245  24572978.510    24572984.883
  21520228.424   -20778422.01049 -15581844.48547  21520228.056    21520232.895
  23194484.304   -10968503.46749  -8205811.28546  23194483.743    23194491.577
 03  4 13  4  1  0.0000000  0  6G14G20G25G16G11G 1
  23914948.113    -7306686.08549  -5674296.43645  23914947.567    23914953.070
  22122381.181   -16183684.38349 -12601247.79847  22122380.435    22122386.264
  20847346.984   -24546814.06649 -19111172.34448  20847346.762    20847351.723
  24556062.703    -5174816.34049  -3864803.19744  24556062.093    24556068.523
  21527491.597   -20740253.67349 -15552102.93047  21527491.228    21527496.077
  23182157.901   -11033278.93549  -8256285.60546  23182157.336    23182165.182
 03  4 13  4  1 30.0000000  0  6G14G20G25G16G11G 1
  23929874.311    -7228248.43549  -5613176.20245  23929873.773    23929879.299
  22107372.579   -16262554.87749 -12662705.27647  22107371.825    22107377.671
  20853409.915   -24514953.07049 -19086345.58848  20853409.705    20853414.661
  24539138.175    -5263755.27849  -3934106.27845  24539137.359    24539143.783
  21534848.728   -20701591.71849 -15521976.74347  21534848.375    21534853.220
  23169861.087   -11097898.83449  -8306638.70646  23169860.500    23169868.302
 03  4 13  4  2  0.0000000  0  6G14G20G25G16G11G 1
  23944800.400    -7149811.42249  -5552056.44145  23944799.879    23944805.280
  22092394.858   -16341263.04849 -12724036.27547  22092394.134    22092399.943
  20859561.036   -24482628.69749 -19061157.76348  20859560.817    20859565.788
  24522205.954    -5352735.22049  -4003441.29445  24522205.370    24522211.534
  21542299.452   -20662437.99849 -15491467.36447  21542299.097    21542303.955
  23157593.704   -11162363.96949  -8356871.22146  23157593.122    23157600.922
 03  4 13  4  2 30.0000000  0  6G14G20G25G16G11G 1
  23959726.451    -7071374.72549  -5490936.94145  23959725.987    23959731.351
  22077448.530   -16419806.46049 -12785238.88947  22077447.781    22077453.593
  20865800.131   -24449842.02349 -19035609.69948  20865799.907    20865804.867
  24505266.118    -5441752.86649  -4072805.54245  24505265.688    24505272.217
  21549843.459   -20622793.96649 -15460575.91847  21549843.084    21549847.953
  23145355.818   -11226673.99949  -8406982.86446  23145355.274    23145363.033
 03  4 13  4  3  0.0000000  0  6G14G20G25G16G11G 1
  23974652.229    -6992938.99549  -5429818.19945  23974651.794    23974657.133
  22062533.877   -16498183.26549 -12846311.68447  22062533.126    22062538.930
  20872126.908   -24416594.53649 -19009702.56448  20872126.677    20872131.639
  24488320.193    -5530805.31949  -4142197.12545  24488319.739    24488325.710
  21557480.459   -20582661.26049 -15429303.68847  21557480.107    21557484.984
  23133147.465   -11290829.13149  -8456973.79746  23133146.886    23133154.669
 03  4 13  4  3 30.0000000  0  6G14G20G25G16G11G 1
  23989577.689    -6914505.32049  -5368701.04845  23989577.262    23989582.576
  22047651.154   -16576392.27549 -12907253.72647  22047650.419    22047656.200
  20878540.887   -24382888.77549 -18983438.33148  20878540.657    20878545.628
  24471367.685    -5619890.68649  -4211614.22645  24471367.106    24471373.389
  21565210.020   -20542042.23949 -15397652.51347  21565209.656    21565214.546
  23120968.440   -11354830.03149  -8506844.54946  23120967.867    23120975.646
